| time (UTC) | temp C | wind direction | speed KPH | gust KPH | rain 1hr cm | rain 24hr cm | rain mn cm | humidity % | barometer mb |
| 20260901075143 | 25 | 144 | 8.0 | 12.9 | 0.00 | 0.00 | 0.00 | 70 | 1016.4 |
| 20260901075042 | 25 | 144 | 8.0 | 12.9 | 0.00 | 0.00 | 0.00 | 70 | 1016.4 |
| 20260901074941 | 25 | 145 | 8.0 | 12.9 | 0.00 | 0.00 | 0.00 | 70 | 1016.4 |
| 20260901074840 | 25 | 143 | 9.7 | 12.9 | 0.00 | 0.00 | 0.00 | 71 | 1016.4 |
| 20260901074740 | 25 | 150 | 8.0 | 12.9 | 0.00 | 0.00 | 0.00 | 71 | 1016.4 |
| 20260901074710 | 25 | 144 | 4.8 | 12.9 | 0.00 | 0.00 | 0.00 | 71 | 1016.4 |
| 20260901074526 | 25 | 130 | 6.4 | 12.9 | 0.00 | 0.00 | 0.00 | 71 | 1016.4 |
| 20260901074448 | 25 | 110 | 6.4 | 12.9 | 0.00 | 0.00 | 0.00 | 71 | 1016.4 |
| 20260901074405 | 25 | 143 | 6.4 | 12.9 | 0.00 | 0.00 | 0.00 | 71 | 1016.4 |
| 20260901074242 | 25 | 140 | 6.4 | 12.9 | 0.00 | 0.00 | 0.00 | 71 | 1016.4 |
| 20260901074141 | 25 | 137 | 4.8 | 11.3 | 0.00 | 0.00 | 0.00 | 71 | 1016.4 |
| 20260901074038 | 25 | 151 | 4.8 | 11.3 | 0.00 | 0.00 | 0.00 | 71 | 1016.4 |
| 20260901073936 | 25 | 148 | 9.7 | 11.3 | 0.00 | 0.00 | 0.00 | 71 | 1016.4 |
| 20260901073835 | 25 | 144 | 8.0 | 11.3 | 0.00 | 0.00 | 0.00 | 70 | 1016.4 |
| 20260901073736 | 25 | 144 | 8.0 | 11.3 | 0.00 | 0.00 | 0.00 | 71 | 1016.4 |
| 20260901073658 | 25 | 137 | 8.0 | 11.3 | 0.00 | 0.00 | 0.00 | 71 | 1016.4 |
| 20260901073535 | 25 | 131 | 9.7 | 11.3 | 0.00 | 0.00 | 0.00 | 71 | 1016.4 |
| 20260901073434 | 25 | 131 | 8.0 | 11.3 | 0.00 | 0.00 | 0.00 | 71 | 1016.4 |
| 20260901073352 | 25 | 121 | 6.4 | 11.3 | 0.00 | 0.00 | 0.00 | 70 | 1016.4 |
| 20260901073242 | 25 | 114 | 6.4 | 11.3 | 0.00 | 0.00 | 0.00 | 71 | 1016.4 |
| 20260901073153 | 25 | 109 | 8.0 | 11.3 | 0.00 | 0.00 | 0.00 | 71 | 1016.4 |
| 20260901073049 | 25 | 138 | 6.4 | 11.3 | 0.00 | 0.00 | 0.00 | 71 | 1016.4 |
| 20260901072926 | 25 | 137 | 6.4 | 11.3 | 0.00 | 0.00 | 0.00 | 71 | 1016.4 |
| 20260901072843 | 25 | 141 | 6.4 | 11.3 | 0.00 | 0.00 | 0.00 | 71 | 1016.4 |
| 20260901072725 | 25 | 126 | 6.4 | 11.3 | 0.00 | 0.00 | 0.00 | 71 | 1016.4 |
| 20260901072642 | 25 | 143 | 6.4 | 11.3 | 0.00 | 0.00 | 0.00 | 71 | 1016.4 |
| 20260901072541 | 25 | 145 | 6.4 | 11.3 | 0.00 | 0.00 | 0.00 | 71 | 1016.4 |
| 20260901072439 | 25 | 145 | 8.0 | 11.3 | 0.00 | 0.00 | 0.00 | 71 | 1016.4 |
| 20260901072338 | 25 | 141 | 8.0 | 11.3 | 0.00 | 0.00 | 0.00 | 70 | 1016.4 |
| 20260901072256 | 25 | 144 | 8.0 | 11.3 | 0.00 | 0.00 | 0.00 | 70 | 1016.4 |
| 20260901072132 | 25 | 145 | 8.0 | 11.3 | 0.00 | 0.00 | 0.00 | 70 | 1016.4 |
| 20260901072029 | 25 | 141 | 8.0 | 11.3 | 0.00 | 0.00 | 0.00 | 70 | 1016.4 |
| 20260901071931 | 25 | 137 | 6.4 | 11.3 | 0.00 | 0.00 | 0.00 | 70 | 1016.4 |
| 20260901071830 | 25 | 136 | 6.4 | 11.3 | 0.00 | 0.00 | 0.00 | 70 | 1016.4 |
| 20260901071728 | 25 | 134 | 6.4 | 11.3 | 0.00 | 0.00 | 0.00 | 70 | 1016.4 |
| 20260901071658 | 25 | 121 | 8.0 | 11.3 | 0.00 | 0.00 | 0.00 | 71 | 1016.4 |
| 20260901071535 | 25 | 143 | 8.0 | 11.3 | 0.00 | 0.00 | 0.00 | 71 | 1016.4 |
| 20260901071434 | 25 | 143 | 8.0 | 11.3 | 0.00 | 0.00 | 0.00 | 71 | 1016.4 |
| 20260901071332 | 25 | 134 | 6.4 | 11.3 | 0.00 | 0.00 | 0.00 | 71 | 1016.4 |
| 20260901071234 | 25 | 143 | 8.0 | 11.3 | 0.00 | 0.00 | 0.00 | 71 | 1016.6 |
| 20260901071132 | 25 | 144 | 8.0 | 11.3 | 0.00 | 0.00 | 0.00 | 71 | 1016.6 |
| 20260901071031 | 25 | 145 | 8.0 | 11.3 | 0.00 | 0.00 | 0.00 | 71 | 1016.6 |
| 20260901070930 | 25 | 144 | 8.0 | 11.3 | 0.00 | 0.00 | 0.00 | 71 | 1016.6 |
| 20260901070828 | 25 | 141 | 6.4 | 11.3 | 0.00 | 0.00 | 0.00 | 71 | 1016.6 |
| 20260901070727 | 25 | 145 | 6.4 | 11.3 | 0.00 | 0.00 | 0.00 | 71 | 1016.6 |
| 20260901070630 | 25 | 148 | 8.0 | 11.3 | 0.00 | 0.00 | 0.00 | 71 | 1016.6 |
| 20260901070529 | 25 | 147 | 6.4 | 12.9 | 0.00 | 0.00 | 0.00 | 71 | 1016.6 |
| 20260901070427 | 25 | 147 | 6.4 | 12.9 | 0.00 | 0.00 | 0.00 | 70 | 1016.6 |
| 20260901070326 | 25 | 147 | 6.4 | 12.9 | 0.00 | 0.00 | 0.00 | 71 | 1016.6 |
| 20260901070225 | 25 | 147 | 8.0 | 12.9 | 0.00 | 0.00 | 0.00 | 71 | 1016.6 |
| 20260901070157 | 25 | 143 | 6.4 | 12.9 | 0.00 | 0.00 | 0.00 | 71 | 1016.6 |
| 20260901070034 | 25 | 144 | 4.8 | 12.9 | 0.00 | 0.00 | 0.00 | 71 | 1016.6 |
| 20260901065935 | 25 | 144 | 8.0 | 12.9 | 0.00 | 0.00 | 0.00 | 71 | 1016.6 |
| 20260901065838 | 25 | 148 | 8.0 | 12.9 | 0.00 | 0.00 | 0.00 | 70 | 1016.6 |
| 20260901065738 | 25 | 152 | 8.0 | 12.9 | 0.00 | 0.00 | 0.00 | 70 | 1016.6 |
| 20260901065640 | 25 | 151 | 6.4 | 12.9 | 0.00 | 0.00 | 0.00 | 70 | 1016.6 |
| 20260901065538 | 25 | 154 | 4.8 | 12.9 | 0.00 | 0.00 | 0.00 | 70 | 1016.6 |
| 20260901065436 | 25 | 150 | 3.2 | 12.9 | 0.00 | 0.00 | 0.00 | 71 | 1016.6 |
| 20260901065335 | 25 | 150 | 6.4 | 12.9 | 0.00 | 0.00 | 0.00 | 71 | 1016.6 |
| 20260901065237 | 25 | 145 | 6.4 | 12.9 | 0.00 | 0.00 | 0.00 | 71 | 1016.6 |
| 20260901065135 | 25 | 150 | 9.7 | 12.9 | 0.00 | 0.00 | 0.00 | 70 | 1016.6 |
| 20260901065034 | 25 | 143 | 8.0 | 12.9 | 0.00 | 0.00 | 0.00 | 71 | 1016.6 |
| 20260901064932 | 25 | 155 | 6.4 | 12.9 | 0.00 | 0.00 | 0.00 | 71 | 1016.6 |
| 20260901064830 | 25 | 145 | 9.7 | 12.9 | 0.00 | 0.00 | 0.00 | 71 | 1016.6 |
| 20260901064729 | 25 | 148 | 8.0 | 11.3 | 0.00 | 0.00 | 0.00 | 71 | 1016.6 |
| 20260901064659 | 25 | 150 | 9.7 | 11.3 | 0.00 | 0.00 | 0.00 | 71 | 1016.6 |
| 20260901064557 | 25 | 144 | 6.4 | 11.3 | 0.00 | 0.00 | 0.00 | 71 | 1016.6 |
| 20260901064458 | 25 | 151 | 6.4 | 11.3 | 0.00 | 0.00 | 0.00 | 71 | 1016.6 |
| 20260901064335 | 25 | 151 | 8.0 | 11.3 | 0.00 | 0.00 | 0.00 | 71 | 1016.6 |
| 20260901064235 | 25 | 150 | 8.0 | 11.3 | 0.00 | 0.00 | 0.00 | 71 | 1016.6 |
| 20260901064133 | 25 | 144 | 8.0 | 11.3 | 0.00 | 0.00 | 0.00 | 71 | 1016.6 |
| 20260901064031 | 25 | 143 | 8.0 | 11.3 | 0.00 | 0.00 | 0.00 | 71 | 1016.6 |
| 20260901063929 | 25 | 141 | 8.0 | 11.3 | 0.00 | 0.00 | 0.00 | 71 | 1016.6 |
| 20260901063828 | 25 | 143 | 6.4 | 11.3 | 0.00 | 0.00 | 0.00 | 71 | 1016.6 |
| 20260901063734 | 25 | 144 | 6.4 | 11.3 | 0.00 | 0.00 | 0.00 | 71 | 1016.6 |
| 20260901063633 | 25 | 141 | 8.0 | 11.3 | 0.00 | 0.00 | 0.00 | 72 | 1016.6 |
| 20260901063531 | 25 | 143 | 3.2 | 11.3 | 0.00 | 0.00 | 0.00 | 72 | 1016.6 |
| 20260901063430 | 25 | 143 | 6.4 | 11.3 | 0.00 | 0.00 | 0.00 | 71 | 1016.6 |
| 20260901063329 | 25 | 147 | 8.0 | 11.3 | 0.00 | 0.00 | 0.00 | 71 | 1016.6 |
| 20260901063238 | 25 | 141 | 8.0 | 11.3 | 0.00 | 0.00 | 0.00 | 71 | 1016.6 |
| 20260901063148 | 25 | 144 | 8.0 | 11.3 | 0.00 | 0.00 | 0.00 | 71 | 1016.6 |
| 20260901063028 | 25 | 141 | 4.8 | 11.3 | 0.00 | 0.00 | 0.00 | 71 | 1016.6 |
| 20260901062926 | 25 | 136 | 4.8 | 9.7 | 0.00 | 0.00 | 0.00 | 71 | 1016.6 |
| 20260901062825 | 25 | 134 | 8.0 | 9.7 | 0.00 | 0.00 | 0.00 | 71 | 1016.6 |
| 20260901062743 | 25 | 136 | 8.0 | 9.7 | 0.00 | 0.00 | 0.00 | 70 | 1016.7 |
| 20260901062701 | 25 | 138 | 6.4 | 9.7 | 0.00 | 0.00 | 0.00 | 70 | 1016.7 |
| 20260901062539 | 25 | 133 | 6.4 | 9.7 | 0.00 | 0.00 | 0.00 | 71 | 1016.7 |
| 20260901062437 | 25 | 141 | 4.8 | 9.7 | 0.00 | 0.00 | 0.00 | 71 | 1016.7 |
| 20260901062335 | 25 | 137 | 8.0 | 9.7 | 0.00 | 0.00 | 0.00 | 71 | 1016.7 |
| 20260901062239 | 25 | 137 | 6.4 | 9.7 | 0.00 | 0.00 | 0.00 | 71 | 1016.7 |
| 20260901062157 | 25 | 136 | 6.4 | 9.7 | 0.00 | 0.00 | 0.00 | 71 | 1016.7 |
| 20260901062034 | 25 | 138 | 4.8 | 9.7 | 0.00 | 0.00 | 0.00 | 71 | 1016.7 |
| 20260901061933 | 25 | 138 | 3.2 | 9.7 | 0.00 | 0.00 | 0.00 | 71 | 1016.7 |
| 20260901061831 | 25 | 140 | 4.8 | 9.7 | 0.00 | 0.00 | 0.00 | 71 | 1016.7 |
| 20260901061740 | 25 | 140 | 6.4 | 9.7 | 0.00 | 0.00 | 0.00 | 71 | 1016.7 |
| 20260901061648 | 25 | 136 | 6.4 | 9.7 | 0.00 | 0.00 | 0.00 | 70 | 1016.7 |
| 20260901061526 | 25 | 136 | 4.8 | 9.7 | 0.00 | 0.00 | 0.00 | 70 | 1016.7 |
| 20260901061428 | 25 | 138 | 8.0 | 9.7 | 0.00 | 0.00 | 0.00 | 70 | 1016.7 |
| 20260901061325 | 25 | 127 | 6.4 | 9.7 | 0.00 | 0.00 | 0.00 | 71 | 1016.7 |
| 20260901061245 | 25 | 141 | 6.4 | 9.7 | 0.00 | 0.00 | 0.00 | 71 | 1016.8 |
| 20260901061141 | 25 | 136 | 6.4 | 9.7 | 0.00 | 0.00 | 0.00 | 71 | 1016.8 |
| 20260901061040 | 25 | 137 | 4.8 | 9.7 | 0.00 | 0.00 | 0.00 | 71 | 1016.8 |
| 20260901060940 | 25 | 134 | 6.4 | 11.3 | 0.00 | 0.00 | 0.00 | 71 | 1016.8 |
| 20260901060859 | 25 | 141 | 8.0 | 11.3 | 0.00 | 0.00 | 0.00 | 70 | 1016.8 |
| 20260901060757 | 25 | 138 | 8.0 | 11.3 | 0.00 | 0.00 | 0.00 | 70 | 1016.8 |
| 20260901060634 | 25 | 138 | 6.4 | 11.3 | 0.00 | 0.00 | 0.00 | 70 | 1016.8 |
| 20260901060536 | 25 | 133 | 4.8 | 11.3 | 0.00 | 0.00 | 0.00 | 70 | 1016.8 |
| 20260901060434 | 25 | 137 | 6.4 | 12.9 | 0.00 | 0.00 | 0.00 | 70 | 1016.8 |
| 20260901060333 | 25 | 137 | 4.8 | 12.9 | 0.00 | 0.00 | 0.00 | 70 | 1016.8 |
| 20260901060242 | 25 | 136 | 6.4 | 12.9 | 0.00 | 0.00 | 0.00 | 70 | 1016.8 |
| 20260901060152 | 25 | 137 | 6.4 | 12.9 | 0.00 | 0.00 | 0.00 | 70 | 1016.8 |
| 20260901060029 | 25 | 134 | 6.4 | 12.9 | 0.00 | 0.00 | 0.00 | 71 | 1016.8 |
| 20260901055927 | 25 | 136 | 8.0 | 12.9 | 0.00 | 0.00 | 0.00 | 71 | 1016.8 |
| 20260901055830 | 25 | 134 | 4.8 | 12.9 | 0.00 | 0.00 | 0.00 | 71 | 1016.8 |
| 20260901055748 | 25 | 130 | 6.4 | 12.9 | 0.00 | 0.00 | 0.00 | 71 | 1016.8 |
| 20260901055646 | 25 | 126 | 9.7 | 12.9 | 0.00 | 0.00 | 0.00 | 71 | 1016.8 |
| 20260901055544 | 25 | 127 | 8.0 | 11.3 | 0.00 | 0.00 | 0.00 | 71 | 1016.8 |
| 20260901055502 | 25 | 126 | 6.4 | 11.3 | 0.00 | 0.00 | 0.00 | 71 | 1016.8 |
| 20260901055340 | 25 | 128 | 4.8 | 11.3 | 0.00 | 0.00 | 0.00 | 71 | 1016.8 |
| 20260901055238 | 25 | 126 | 4.8 | 11.3 | 0.00 | 0.00 | 0.00 | 71 | 1016.8 |
| 20260901055136 | 25 | 130 | 8.0 | 11.3 | 0.00 | 0.00 | 0.00 | 71 | 1016.8 |
| 20260901055035 | 25 | 136 | 6.4 | 9.7 | 0.00 | 0.00 | 0.00 | 71 | 1016.8 |
| 20260901054958 | 25 | 130 | 4.8 | 9.7 | 0.00 | 0.00 | 0.00 | 71 | 1016.8 |
| 20260901054856 | 25 | 133 | 4.8 | 9.7 | 0.00 | 0.00 | 0.00 | 70 | 1016.8 |
| 20260901054733 | 25 | 131 | 6.4 | 9.7 | 0.00 | 0.00 | 0.00 | 70 | 1016.8 |
| 20260901054704 | 25 | 133 | 6.4 | 9.7 | 0.00 | 0.00 | 0.00 | 70 | 1016.8 |
| 20260901054542 | 25 | 133 | 6.4 | 9.7 | 0.00 | 0.00 | 0.00 | 70 | 1016.8 |
| 20260901054440 | 25 | 136 | 4.8 | 9.7 | 0.00 | 0.00 | 0.00 | 70 | 1016.8 |
| 20260901054338 | 25 | 131 | 6.4 | 9.7 | 0.00 | 0.00 | 0.00 | 70 | 1016.8 |
| 20260901054235 | 25 | 133 | 8.0 | 9.7 | 0.00 | 0.00 | 0.00 | 70 | 1016.9 |
| 20260901054153 | 25 | 130 | 6.4 | 9.7 | 0.00 | 0.00 | 0.00 | 70 | 1016.9 |
| 20260901054035 | 25 | 130 | 4.8 | 9.7 | 0.00 | 0.00 | 0.00 | 70 | 1016.9 |
| 20260901053934 | 25 | 130 | 6.4 | 9.7 | 0.00 | 0.00 | 0.00 | 70 | 1016.9 |
| 20260901053832 | 25 | 130 | 4.8 | 9.7 | 0.00 | 0.00 | 0.00 | 70 | 1016.9 |
| 20260901053731 | 25 | 130 | 4.8 | 9.7 | 0.00 | 0.00 | 0.00 | 70 | 1016.9 |
| 20260901053629 | 25 | 137 | 6.4 | 9.7 | 0.00 | 0.00 | 0.00 | 70 | 1016.9 |
| 20260901053527 | 25 | 136 | 4.8 | 9.7 | 0.00 | 0.00 | 0.00 | 70 | 1016.9 |
| 20260901053425 | 25 | 137 | 4.8 | 9.7 | 0.00 | 0.00 | 0.00 | 70 | 1016.9 |
| 20260901053329 | 25 | 136 | 8.0 | 9.7 | 0.00 | 0.00 | 0.00 | 70 | 1016.9 |
| 20260901053239 | 25 | 137 | 6.4 | 9.7 | 0.00 | 0.00 | 0.00 | 70 | 1016.9 |
| 20260901053149 | 25 | 137 | 6.4 | 9.7 | 0.00 | 0.00 | 0.00 | 70 | 1016.9 |
| 20260901053026 | 25 | 138 | 6.4 | 9.7 | 0.00 | 0.00 | 0.00 | 70 | 1016.9 |
| 20260901052924 | 25 | 134 | 4.8 | 9.7 | 0.00 | 0.00 | 0.00 | 70 | 1016.9 |
| 20260901052843 | 25 | 137 | 4.8 | 9.7 | 0.00 | 0.00 | 0.00 | 70 | 1016.9 |
| 20260901052742 | 25 | 138 | 4.8 | 9.7 | 0.00 | 0.00 | 0.00 | 70 | 1016.9 |
| 20260901052625 | 25 | 136 | 3.2 | 9.7 | 0.00 | 0.00 | 0.00 | 70 | 1016.9 |
| 20260901052543 | 25 | 138 | 3.2 | 9.7 | 0.00 | 0.00 | 0.00 | 70 | 1016.9 |
| 20260901052501 | 25 | 138 | 4.8 | 9.7 | 0.00 | 0.00 | 0.00 | 70 | 1016.9 |
| 20260901052358 | 25 | 138 | 6.4 | 9.7 | 0.00 | 0.00 | 0.00 | 70 | 1016.9 |
| 20260901052238 | 25 | 137 | 6.4 | 9.7 | 0.00 | 0.00 | 0.00 | 70 | 1016.9 |
| 20260901052136 | 25 | 136 | 6.4 | 9.7 | 0.00 | 0.00 | 0.00 | 70 | 1016.9 |
| 20260901052034 | 25 | 136 | 6.4 | 9.7 | 0.00 | 0.00 | 0.00 | 70 | 1016.9 |
| 20260901051951 | 25 | 137 | 3.2 | 9.7 | 0.00 | 0.00 | 0.00 | 70 | 1016.9 |
| 20260901051829 | 25 | 136 | 6.4 | 9.7 | 0.00 | 0.00 | 0.00 | 70 | 1016.9 |
| 20260901051751 | 25 | 134 | 8.0 | 9.7 | 0.00 | 0.00 | 0.00 | 70 | 1016.9 |
| 20260901051720 | 25 | 136 | 6.4 | 9.7 | 0.00 | 0.00 | 0.00 | 70 | 1016.9 |
| 20260901051536 | 25 | 136 | 6.4 | 9.7 | 0.00 | 0.00 | 0.00 | 70 | 1016.9 |
| 20260901051435 | 25 | 136 | 3.2 | 8.0 | 0.00 | 0.00 | 0.00 | 70 | 1016.9 |
| 20260901051333 | 25 | 138 | 6.4 | 8.0 | 0.00 | 0.00 | 0.00 | 70 | 1016.9 |
| 20260901051234 | 25 | 138 | 4.8 | 9.7 | 0.00 | 0.00 | 0.00 | 70 | 1016.9 |
| 20260901051132 | 25 | 138 | 6.4 | 9.7 | 0.00 | 0.00 | 0.00 | 70 | 1016.9 |
| 20260901051034 | 25 | 141 | 4.8 | 9.7 | 0.00 | 0.00 | 0.00 | 70 | 1016.9 |
| 20260901050934 | 25 | 143 | 4.8 | 9.7 | 0.00 | 0.00 | 0.00 | 70 | 1016.9 |
| 20260901050853 | 25 | 141 | 4.8 | 9.7 | 0.00 | 0.00 | 0.00 | 70 | 1016.9 |
| 20260901050729 | 25 | 141 | 4.8 | 9.7 | 0.00 | 0.00 | 0.00 | 70 | 1016.9 |
| 20260901050627 | 25 | 143 | 6.4 | 9.7 | 0.00 | 0.00 | 0.00 | 70 | 1016.9 |
| 20260901050526 | 25 | 143 | 4.8 | 9.7 | 0.00 | 0.00 | 0.00 | 70 | 1016.9 |
| 20260901050425 | 25 | 144 | 4.8 | 9.7 | 0.00 | 0.00 | 0.00 | 70 | 1016.9 |
| 20260901050327 | 25 | 144 | 4.8 | 9.7 | 0.00 | 0.00 | 0.00 | 70 | 1016.9 |
| 20260901050237 | 25 | 144 | 4.8 | 9.7 | 0.00 | 0.00 | 0.00 | 70 | 1016.9 |
| 20260901050148 | 25 | 141 | 6.4 | 9.7 | 0.00 | 0.00 | 0.00 | 70 | 1016.9 |
| 20260901050044 | 25 | 138 | 4.8 | 8.0 | 0.00 | 0.00 | 0.00 | 70 | 1016.9 |
| 20260901045942 | 25 | 140 | 4.8 | 9.7 | 0.00 | 0.00 | 0.00 | 70 | 1016.9 |
| 20260901045840 | 25 | 141 | 4.8 | 9.7 | 0.00 | 0.00 | 0.00 | 70 | 1016.9 |
| 20260901045737 | 25 | 140 | 4.8 | 9.7 | 0.00 | 0.00 | 0.00 | 70 | 1016.9 |
| 20260901045636 | 25 | 138 | 4.8 | 9.7 | 0.00 | 0.00 | 0.00 | 70 | 1016.9 |
| 20260901045540 | 25 | 138 | 6.4 | 9.7 | 0.00 | 0.00 | 0.00 | 70 | 1016.9 |
| 20260901045439 | 25 | 137 | 8.0 | 9.7 | 0.00 | 0.00 | 0.00 | 70 | 1016.9 |
| 20260901045356 | 25 | 141 | 6.4 | 9.7 | 0.00 | 0.00 | 0.00 | 70 | 1016.9 |
| 20260901045234 | 25 | 141 | 4.8 | 9.7 | 0.00 | 0.00 | 0.00 | 70 | 1016.9 |
| 20260901045132 | 25 | 143 | 8.0 | 9.7 | 0.00 | 0.00 | 0.00 | 70 | 1016.9 |
| 20260901045032 | 25 | 140 | 6.4 | 9.7 | 0.00 | 0.00 | 0.00 | 69 | 1016.9 |
| 20260901044931 | 25 | 140 | 4.8 | 9.7 | 0.00 | 0.00 | 0.00 | 70 | 1016.9 |
| 20260901044855 | 25 | 143 | 6.4 | 9.7 | 0.00 | 0.00 | 0.00 | 70 | 1016.9 |
| 20260901044743 | 25 | 145 | 4.8 | 9.7 | 0.00 | 0.00 | 0.00 | 70 | 1016.9 |
| 20260901044651 | 25 | 140 | 4.8 | 9.7 | 0.00 | 0.00 | 0.00 | 70 | 1016.9 |
| 20260901044528 | 25 | 143 | 4.8 | 9.7 | 0.00 | 0.00 | 0.00 | 70 | 1016.9 |
| 20260901044430 | 25 | 143 | 8.0 | 9.7 | 0.00 | 0.00 | 0.00 | 70 | 1016.9 |
| 20260901044349 | 25 | 137 | 4.8 | 9.7 | 0.00 | 0.00 | 0.00 | 70 | 1016.9 |
| 20260901044225 | 25 | 141 | 8.0 | 9.7 | 0.00 | 0.00 | 0.00 | 70 | 1016.8 |
| 20260901044143 | 25 | 141 | 4.8 | 9.7 | 0.00 | 0.00 | 0.00 | 70 | 1016.8 |
| 20260901044045 | 25 | 140 | 3.2 | 9.7 | 0.00 | 0.00 | 0.00 | 70 | 1016.8 |
| 20260901043942 | 25 | 138 | 3.2 | 8.0 | 0.00 | 0.00 | 0.00 | 70 | 1016.8 |
| 20260901043844 | 25 | 140 | 4.8 | 9.7 | 0.00 | 0.00 | 0.00 | 71 | 1016.8 |
| 20260901043740 | 25 | 137 | 6.4 | 9.7 | 0.00 | 0.00 | 0.00 | 71 | 1016.8 |
| 20260901043700 | 25 | 138 | 6.4 | 9.7 | 0.00 | 0.00 | 0.00 | 71 | 1016.8 |
| 20260901043538 | 25 | 136 | 6.4 | 11.3 | 0.00 | 0.00 | 0.00 | 71 | 1016.8 |
| 20260901043436 | 25 | 138 | 4.8 | 11.3 | 0.00 | 0.00 | 0.00 | 71 | 1016.8 |
| 20260901043333 | 25 | 138 | 6.4 | 11.3 | 0.00 | 0.00 | 0.00 | 71 | 1016.8 |
| 20260901043236 | 25 | 137 | 6.4 | 11.3 | 0.00 | 0.00 | 0.00 | 70 | 1016.8 |
| 20260901043207 | 25 | 140 | 4.8 | 11.3 | 0.00 | 0.00 | 0.00 | 70 | 1016.8 |
| 20260901043103 | 25 | 137 | 6.4 | 11.3 | 0.00 | 0.00 | 0.00 | 70 | 1016.8 |
| 20260901042940 | 25 | 133 | 4.8 | 11.3 | 0.00 | 0.00 | 0.00 | 70 | 1016.8 |
| 20260901042839 | 25 | 123 | 4.8 | 11.3 | 0.00 | 0.00 | 0.00 | 70 | 1016.8 |
| 20260901042737 | 25 | 124 | 6.4 | 11.3 | 0.00 | 0.00 | 0.00 | 70 | 1016.8 |
| 20260901042636 | 25 | 121 | 6.4 | 11.3 | 0.00 | 0.00 | 0.00 | 70 | 1016.8 |
| 20260901042532 | 25 | 137 | 4.8 | 9.7 | 0.00 | 0.00 | 0.00 | 70 | 1016.8 |
| 20260901042433 | 25 | 138 | 3.2 | 9.7 | 0.00 | 0.00 | 0.00 | 70 | 1016.8 |
| 20260901042333 | 25 | 137 | 4.8 | 9.7 | 0.00 | 0.00 | 0.00 | 70 | 1016.8 |
| 20260901042234 | 25 | 137 | 8.0 | 9.7 | 0.00 | 0.00 | 0.00 | 71 | 1016.8 |
| 20260901042133 | 25 | 134 | 6.4 | 9.7 | 0.00 | 0.00 | 0.00 | 71 | 1016.8 |
| 20260901042031 | 25 | 141 | 6.4 | 9.7 | 0.00 | 0.00 | 0.00 | 71 | 1016.8 |
| 20260901041930 | 25 | 134 | 4.8 | 9.7 | 0.00 | 0.00 | 0.00 | 71 | 1016.8 |
| 20260901041829 | 25 | 137 | 4.8 | 9.7 | 0.00 | 0.00 | 0.00 | 71 | 1016.8 |
| 20260901041731 | 25 | 136 | 6.4 | 9.7 | 0.00 | 0.00 | 0.00 | 71 | 1016.8 |
| 20260901041701 | 25 | 137 | 8.0 | 9.7 | 0.00 | 0.00 | 0.00 | 71 | 1016.8 |
| 20260901041540 | 25 | 134 | 6.4 | 9.7 | 0.00 | 0.00 | 0.00 | 71 | 1016.8 |
| 20260901041440 | 25 | 140 | 4.8 | 9.7 | 0.00 | 0.00 | 0.00 | 71 | 1016.8 |
| 20260901041340 | 25 | 138 | 6.4 | 9.7 | 0.00 | 0.00 | 0.00 | 71 | 1016.8 |
| 20260901041239 | 25 | 131 | 4.8 | 9.7 | 0.00 | 0.00 | 0.00 | 71 | 1016.9 |
| 20260901041137 | 25 | 140 | 4.8 | 9.7 | 0.00 | 0.00 | 0.00 | 71 | 1016.9 |
| 20260901041040 | 25 | 140 | 4.8 | 9.7 | 0.00 | 0.00 | 0.00 | 71 | 1016.9 |
| 20260901040939 | 25 | 140 | 6.4 | 9.7 | 0.00 | 0.00 | 0.00 | 71 | 1016.9 |
| 20260901040836 | 25 | 140 | 4.8 | 9.7 | 0.00 | 0.00 | 0.00 | 71 | 1016.9 |
| 20260901040734 | 25 | 137 | 4.8 | 9.7 | 0.00 | 0.00 | 0.00 | 71 | 1016.9 |
| 20260901040633 | 25 | 140 | 4.8 | 9.7 | 0.00 | 0.00 | 0.00 | 71 | 1016.9 |
| 20260901040552 | 25 | 133 | 6.4 | 9.7 | 0.00 | 0.00 | 0.00 | 71 | 1016.9 |
| 20260901040429 | 25 | 136 | 8.0 | 9.7 | 0.00 | 0.00 | 0.00 | 72 | 1016.9 |
| 20260901040332 | 25 | 136 | 6.4 | 9.7 | 0.00 | 0.00 | 0.00 | 71 | 1016.9 |
| 20260901040202 | 25 | 136 | 6.4 | 9.7 | 0.00 | 0.00 | 0.00 | 71 | 1016.9 |
| 20260901040059 | 25 | 134 | 6.4 | 9.7 | 0.00 | 0.00 | 0.00 | 71 | 1016.9 |
| 20260901035937 | 25 | 134 | 4.8 | 9.7 | 0.00 | 0.00 | 0.00 | 71 | 1016.9 |
| 20260901035835 | 25 | 131 | 6.4 | 9.7 | 0.00 | 0.00 | 0.00 | 71 | 1016.9 |
| 20260901035733 | 25 | 134 | 4.8 | 9.7 | 0.00 | 0.00 | 0.00 | 71 | 1016.9 |
| 20260901035637 | 25 | 136 | 4.8 | 9.7 | 0.00 | 0.00 | 0.00 | 71 | 1016.9 |
| 20260901035535 | 25 | 136 | 4.8 | 9.7 | 0.00 | 0.00 | 0.00 | 70 | 1016.9 |
| 20260901035433 | 25 | 134 | 4.8 | 9.7 | 0.00 | 0.00 | 0.00 | 70 | 1016.9 |
| 20260901035332 | 25 | 136 | 6.4 | 9.7 | 0.00 | 0.00 | 0.00 | 70 | 1016.9 |
| 20260901035230 | 25 | 136 | 4.8 | 9.7 | 0.00 | 0.00 | 0.00 | 71 | 1016.9 |
| 20260901035129 | 25 | 136 | 6.4 | 9.7 | 0.00 | 0.00 | 0.00 | 71 | 1016.9 |
| 20260901035027 | 25 | 131 | 6.4 | 9.7 | 0.00 | 0.00 | 0.00 | 70 | 1016.9 |
| 20260901034929 | 25 | 136 | 6.4 | 9.7 | 0.00 | 0.00 | 0.00 | 70 | 1016.9 |
| 20260901034848 | 25 | 137 | 4.8 | 9.7 | 0.00 | 0.00 | 0.00 | 70 | 1016.9 |
| 20260901034726 | 25 | 138 | 6.4 | 9.7 | 0.00 | 0.00 | 0.00 | 71 | 1016.9 |
| 20260901034656 | 25 | 137 | 6.4 | 9.7 | 0.00 | 0.00 | 0.00 | 71 | 1016.9 |
| 20260901034532 | 25 | 138 | 6.4 | 9.7 | 0.00 | 0.00 | 0.00 | 70 | 1016.9 |
| 20260901034452 | 25 | 140 | 6.4 | 9.7 | 0.00 | 0.00 | 0.00 | 71 | 1016.9 |
| 20260901034330 | 25 | 138 | 4.8 | 8.0 | 0.00 | 0.00 | 0.00 | 71 | 1016.9 |
| 20260901034229 | 25 | 140 | 4.8 | 8.0 | 0.00 | 0.00 | 0.00 | 70 | 1016.9 |
| 20260901034131 | 25 | 141 | 4.8 | 8.0 | 0.00 | 0.00 | 0.00 | 70 | 1016.9 |
| 20260901034029 | 25 | 141 | 3.2 | 8.0 | 0.00 | 0.00 | 0.00 | 70 | 1016.9 |
| 20260901033928 | 25 | 141 | 4.8 | 8.0 | 0.00 | 0.00 | 0.00 | 70 | 1016.9 |
| 20260901033827 | 25 | 141 | 4.8 | 8.0 | 0.00 | 0.00 | 0.00 | 70 | 1016.9 |
| 20260901033725 | 25 | 140 | 3.2 | 8.0 | 0.00 | 0.00 | 0.00 | 70 | 1016.9 |
| 20260901033642 | 25 | 137 | 4.8 | 8.0 | 0.00 | 0.00 | 0.00 | 70 | 1016.9 |
| 20260901033601 | 25 | 140 | 4.8 | 8.0 | 0.00 | 0.00 | 0.00 | 70 | 1016.9 |
| 20260901033443 | 25 | 140 | 4.8 | 8.0 | 0.00 | 0.00 | 0.00 | 70 | 1016.9 |
| 20260901033341 | 25 | 140 | 6.4 | 8.0 | 0.00 | 0.00 | 0.00 | 70 | 1016.9 |
| 20260901033240 | 25 | 138 | 6.4 | 8.0 | 0.00 | 0.00 | 0.00 | 70 | 1016.9 |
| 20260901033211 | 25 | 138 | 4.8 | 8.0 | 0.00 | 0.00 | 0.00 | 70 | 1016.9 |
| 20260901033047 | 25 | 138 | 6.4 | 8.0 | 0.00 | 0.00 | 0.00 | 70 | 1016.9 |
| 20260901032945 | 25 | 137 | 4.8 | 8.0 | 0.00 | 0.00 | 0.00 | 70 | 1016.9 |
| 20260901032904 | 25 | 136 | 4.8 | 8.0 | 0.00 | 0.00 | 0.00 | 70 | 1016.9 |
| 20260901032801 | 25 | 136 | 4.8 | 8.0 | 0.00 | 0.00 | 0.00 | 70 | 1017.0 |
| 20260901032638 | 25 | 136 | 4.8 | 8.0 | 0.00 | 0.00 | 0.00 | 70 | 1017.0 |
| 20260901032540 | 25 | 136 | 4.8 | 8.0 | 0.00 | 0.00 | 0.00 | 70 | 1017.0 |
| 20260901032438 | 25 | 133 | 4.8 | 8.0 | 0.00 | 0.00 | 0.00 | 70 | 1017.0 |
| 20260901032337 | 25 | 136 | 4.8 | 8.0 | 0.00 | 0.00 | 0.00 | 70 | 1017.0 |
| 20260901032236 | 25 | 136 | 4.8 | 8.0 | 0.00 | 0.00 | 0.00 | 70 | 1017.0 |
| 20260901032136 | 25 | 136 | 4.8 | 8.0 | 0.00 | 0.00 | 0.00 | 70 | 1017.0 |
| 20260901032035 | 25 | 136 | 4.8 | 8.0 | 0.00 | 0.00 | 0.00 | 70 | 1017.0 |
| 20260901031933 | 25 | 136 | 6.4 | 8.0 | 0.00 | 0.00 | 0.00 | 70 | 1017.0 |
| 20260901031856 | 25 | 134 | 4.8 | 8.0 | 0.00 | 0.00 | 0.00 | 70 | 1017.0 |
| 20260901031814 | 25 | 136 | 4.8 | 8.0 | 0.00 | 0.00 | 0.00 | 70 | 1017.0 |
| 20260901031723 | 25 | 136 | 6.4 | 8.0 | 0.00 | 0.00 | 0.00 | 70 | 1017.0 |
| 20260901031540 | 25 | 136 | 6.4 | 8.0 | 0.00 | 0.00 | 0.00 | 70 | 1017.0 |
| 20260901031439 | 25 | 136 | 4.8 | 8.0 | 0.00 | 0.00 | 0.00 | 70 | 1017.0 |
| 20260901031338 | 25 | 138 | 4.8 | 8.0 | 0.00 | 0.00 | 0.00 | 70 | 1017.0 |
| 20260901031237 | 25 | 136 | 6.4 | 8.0 | 0.00 | 0.00 | 0.00 | 70 | 1017.1 |
| 20260901031136 | 25 | 137 | 4.8 | 8.0 | 0.00 | 0.00 | 0.00 | 70 | 1017.1 |
| 20260901031038 | 25 | 136 | 4.8 | 8.0 | 0.00 | 0.00 | 0.00 | 70 | 1017.1 |
| 20260901030957 | 25 | 137 | 4.8 | 8.0 | 0.00 | 0.00 | 0.00 | 70 | 1017.1 |
| 20260901030837 | 25 | 137 | 4.8 | 8.0 | 0.00 | 0.00 | 0.00 | 70 | 1017.1 |
| 20260901030735 | 25 | 137 | 3.2 | 8.0 | 0.00 | 0.00 | 0.00 | 70 | 1017.1 |
| 20260901030652 | 25 | 134 | 3.2 | 8.0 | 0.00 | 0.00 | 0.00 | 71 | 1017.1 |
| 20260901030528 | 25 | 137 | 4.8 | 8.0 | 0.00 | 0.00 | 0.00 | 71 | 1017.1 |
| 20260901030428 | 25 | 137 | 3.2 | 8.0 | 0.00 | 0.00 | 0.00 | 70 | 1017.1 |
| 20260901030330 | 25 | 137 | 3.2 | 8.0 | 0.00 | 0.00 | 0.00 | 70 | 1017.1 |
| 20260901030229 | 25 | 133 | 3.2 | 8.0 | 0.00 | 0.00 | 0.00 | 71 | 1017.1 |
| 20260901030200 | 25 | 137 | 3.2 | 8.0 | 0.00 | 0.00 | 0.00 | 71 | 1017.1 |
| 20260901030038 | 25 | 137 | 3.2 | 8.0 | 0.00 | 0.00 | 0.00 | 71 | 1017.1 |
| 20260901025936 | 25 | 137 | 3.2 | 8.0 | 0.00 | 0.00 | 0.00 | 70 | 1017.1 |
| 20260901025835 | 25 | 137 | 1.6 | 8.0 | 0.00 | 0.00 | 0.00 | 71 | 1017.1 |
| 20260901025735 | 25 | 138 | 4.8 | 8.0 | 0.00 | 0.00 | 0.00 | 71 | 1017.1 |
| 20260901025638 | 25 | 136 | 4.8 | 8.0 | 0.00 | 0.00 | 0.00 | 71 | 1017.1 |
| 20260901025537 | 25 | 138 | 3.2 | 8.0 | 0.00 | 0.00 | 0.00 | 70 | 1017.1 |
| 20260901025435 | 25 | 138 | 4.8 | 8.0 | 0.00 | 0.00 | 0.00 | 71 | 1017.1 |
| 20260901025334 | 25 | 136 | 4.8 | 8.0 | 0.00 | 0.00 | 0.00 | 71 | 1017.1 |
| 20260901025233 | 25 | 138 | 4.8 | 8.0 | 0.00 | 0.00 | 0.00 | 71 | 1017.1 |
| 20260901025131 | 25 | 138 | 4.8 | 8.0 | 0.00 | 0.00 | 0.00 | 71 | 1017.1 |
| 20260901025030 | 25 | 138 | 3.2 | 8.0 | 0.00 | 0.00 | 0.00 | 71 | 1017.1 |
| 20260901024954 | 25 | 138 | 4.8 | 8.0 | 0.00 | 0.00 | 0.00 | 71 | 1017.1 |
| 20260901024832 | 25 | 138 | 3.2 | 8.0 | 0.00 | 0.00 | 0.00 | 71 | 1017.1 |
| 20260901024741 | 25 | 137 | 6.4 | 8.0 | 0.00 | 0.00 | 0.00 | 71 | 1017.1 |
| 20260901024650 | 25 | 138 | 4.8 | 8.0 | 0.00 | 0.00 | 0.00 | 71 | 1017.1 |
| 20260901024528 | 25 | 137 | 4.8 | 8.0 | 0.00 | 0.00 | 0.00 | 71 | 1017.1 |
| 20260901024446 | 25 | 136 | 4.8 | 8.0 | 0.00 | 0.00 | 0.00 | 71 | 1017.1 |
| 20260901024324 | 25 | 136 | 4.8 | 8.0 | 0.00 | 0.00 | 0.00 | 71 | 1017.1 |
| 20260901024242 | 25 | 136 | 4.8 | 8.0 | 0.00 | 0.00 | 0.00 | 71 | 1016.9 |
| 20260901024124 | 25 | 134 | 4.8 | 8.0 | 0.00 | 0.00 | 0.00 | 71 | 1016.9 |
| 20260901024044 | 25 | 134 | 4.8 | 8.0 | 0.00 | 0.00 | 0.00 | 71 | 1016.9 |
| 20260901024002 | 25 | 134 | 4.8 | 9.7 | 0.00 | 0.00 | 0.00 | 71 | 1016.9 |
| 20260901023900 | 25 | 134 | 3.2 | 9.7 | 0.00 | 0.00 | 0.00 | 71 | 1016.9 |
| 20260901023737 | 25 | 136 | 3.2 | 9.7 | 0.00 | 0.00 | 0.00 | 71 | 1016.9 |
| 20260901023634 | 25 | 136 | 4.8 | 9.7 | 0.00 | 0.00 | 0.00 | 71 | 1016.9 |
| 20260901023534 | 25 | 134 | 4.8 | 9.7 | 0.00 | 0.00 | 0.00 | 71 | 1016.9 |
| 20260901023451 | 25 | 137 | 3.2 | 9.7 | 0.00 | 0.00 | 0.00 | 71 | 1016.9 |
| 20260901023333 | 25 | 136 | 4.8 | 9.7 | 0.00 | 0.00 | 0.00 | 71 | 1016.9 |
| 20260901023252 | 25 | 136 | 4.8 | 9.7 | 0.00 | 0.00 | 0.00 | 71 | 1016.9 |
| 20260901023223 | 25 | 137 | 6.4 | 9.7 | 0.00 | 0.00 | 0.00 | 71 | 1016.9 |
| 20260901023038 | 25 | 134 | 4.8 | 9.7 | 0.00 | 0.00 | 0.00 | 71 | 1016.9 |
| 20260901022938 | 25 | 137 | 4.8 | 9.7 | 0.00 | 0.00 | 0.00 | 71 | 1016.9 |
| 20260901022836 | 25 | 137 | 4.8 | 9.7 | 0.00 | 0.00 | 0.00 | 71 | 1016.9 |
| 20260901022735 | 25 | 137 | 4.8 | 9.7 | 0.00 | 0.00 | 0.00 | 71 | 1016.8 |
| 20260901022634 | 25 | 136 | 4.8 | 9.7 | 0.00 | 0.00 | 0.00 | 71 | 1016.8 |
| 20260901022536 | 25 | 134 | 6.4 | 9.7 | 0.00 | 0.00 | 0.00 | 71 | 1016.8 |
| 20260901022436 | 25 | 137 | 6.4 | 9.7 | 0.00 | 0.00 | 0.00 | 71 | 1016.8 |
| 20260901022336 | 25 | 134 | 6.4 | 9.7 | 0.00 | 0.00 | 0.00 | 71 | 1016.8 |
| 20260901022236 | 25 | 138 | 6.4 | 9.7 | 0.00 | 0.00 | 0.00 | 71 | 1016.8 |
| 20260901022135 | 25 | 138 | 6.4 | 9.7 | 0.00 | 0.00 | 0.00 | 72 | 1016.8 |
| 20260901022034 | 25 | 140 | 6.4 | 9.7 | 0.00 | 0.00 | 0.00 | 72 | 1016.8 |
| 20260901021953 | 25 | 138 | 4.8 | 8.0 | 0.00 | 0.00 | 0.00 | 71 | 1016.8 |
| 20260901021834 | 25 | 138 | 6.4 | 8.0 | 0.00 | 0.00 | 0.00 | 71 | 1016.8 |
| 20260901021753 | 25 | 141 | 4.8 | 8.0 | 0.00 | 0.00 | 0.00 | 71 | 1016.8 |
| 20260901021723 | 25 | 140 | 3.2 | 8.0 | 0.00 | 0.00 | 0.00 | 72 | 1016.8 |
| 20260901021539 | 25 | 141 | 6.4 | 8.0 | 0.00 | 0.00 | 0.00 | 72 | 1016.8 |
| 20260901021437 | 26 | 144 | 4.8 | 8.0 | 0.00 | 0.00 | 0.00 | 72 | 1016.8 |
| 20260901021335 | 26 | 144 | 4.8 | 8.0 | 0.00 | 0.00 | 0.00 | 72 | 1016.8 |
| 20260901021234 | 26 | 145 | 4.8 | 8.0 | 0.00 | 0.00 | 0.00 | 72 | 1016.7 |
| 20260901021136 | 26 | 144 | 3.2 | 8.0 | 0.00 | 0.00 | 0.00 | 72 | 1016.7 |
| 20260901021054 | 26 | 147 | 4.8 | 8.0 | 0.00 | 0.00 | 0.00 | 72 | 1016.7 |
| 20260901020932 | 26 | 148 | 4.8 | 8.0 | 0.00 | 0.00 | 0.00 | 71 | 1016.7 |
| 20260901020831 | 26 | 148 | 4.8 | 8.0 | 0.00 | 0.00 | 0.00 | 71 | 1016.7 |
| 20260901020729 | 26 | 148 | 4.8 | 6.4 | 0.00 | 0.00 | 0.00 | 71 | 1016.7 |
| 20260901020628 | 26 | 148 | 4.8 | 8.0 | 0.00 | 0.00 | 0.00 | 71 | 1016.7 |
| 20260901020549 | 26 | 147 | 4.8 | 8.0 | 0.00 | 0.00 | 0.00 | 71 | 1016.7 |
| 20260901020426 | 26 | 147 | 4.8 | 8.0 | 0.00 | 0.00 | 0.00 | 71 | 1016.7 |
| 20260901020349 | 26 | 150 | 3.2 | 8.0 | 0.00 | 0.00 | 0.00 | 72 | 1016.7 |
| 20260901020247 | 26 | 150 | 4.8 | 8.0 | 0.00 | 0.00 | 0.00 | 72 | 1016.7 |
| 20260901020217 | 26 | 151 | 4.8 | 8.0 | 0.00 | 0.00 | 0.00 | 72 | 1016.7 |
| 20260901020035 | 26 | 150 | 4.8 | 8.0 | 0.00 | 0.00 | 0.00 | 72 | 1016.7 |
| 20260901015935 | 26 | 150 | 4.8 | 8.0 | 0.00 | 0.00 | 0.00 | 73 | 1016.7 |
| 20260901015836 | 26 | 150 | 4.8 | 8.0 | 0.00 | 0.00 | 0.00 | 72 | 1016.7 |
| 20260901015736 | 26 | 151 | 4.8 | 8.0 | 0.00 | 0.00 | 0.00 | 72 | 1016.5 |
| 20260901015634 | 26 | 150 | 6.4 | 8.0 | 0.00 | 0.00 | 0.00 | 72 | 1016.5 |
| 20260901015538 | 26 | 148 | 4.8 | 8.0 | 0.00 | 0.00 | 0.00 | 72 | 1016.5 |
| 20260901015457 | 26 | 150 | 4.8 | 8.0 | 0.00 | 0.00 | 0.00 | 71 | 1016.5 |
| 20260901015335 | 26 | 148 | 6.4 | 8.0 | 0.00 | 0.00 | 0.00 | 72 | 1016.5 |
| 20260901015233 | 26 | 148 | 6.4 | 8.0 | 0.00 | 0.00 | 0.00 | 72 | 1016.5 |
| 20260901015132 | 26 | 148 | 4.8 | 8.0 | 0.00 | 0.00 | 0.00 | 72 | 1016.5 |
| 20260901015031 | 26 | 147 | 3.2 | 8.0 | 0.00 | 0.00 | 0.00 | 72 | 1016.5 |
| 20260901014949 | 26 | 148 | 4.8 | 8.0 | 0.00 | 0.00 | 0.00 | 72 | 1016.5 |
| 20260901014846 | 26 | 147 | 4.8 | 8.0 | 0.00 | 0.00 | 0.00 | 72 | 1016.5 |
| 20260901014728 | 26 | 147 | 6.4 | 8.0 | 0.00 | 0.00 | 0.00 | 72 | 1016.5 |
| 20260901014657 | 26 | 148 | 4.8 | 8.0 | 0.00 | 0.00 | 0.00 | 72 | 1016.5 |
| 20260901014534 | 26 | 148 | 6.4 | 8.0 | 0.00 | 0.00 | 0.00 | 72 | 1016.5 |
| 20260901014432 | 26 | 147 | 4.8 | 8.0 | 0.00 | 0.00 | 0.00 | 71 | 1016.5 |
| 20260901014329 | 26 | 147 | 4.8 | 6.4 | 0.00 | 0.00 | 0.00 | 70 | 1016.5 |
| 20260901014228 | 26 | 147 | 4.8 | 8.0 | 0.00 | 0.00 | 0.00 | 70 | 1016.3 |
| 20260901014148 | 26 | 145 | 4.8 | 8.0 | 0.00 | 0.00 | 0.00 | 70 | 1016.3 |
| 20260901014025 | 26 | 148 | 3.2 | 8.0 | 0.00 | 0.00 | 0.00 | 71 | 1016.3 |
| 20260901013928 | 26 | 150 | 4.8 | 8.0 | 0.00 | 0.00 | 0.00 | 71 | 1016.3 |
| 20260901013826 | 26 | 148 | 3.2 | 8.0 | 0.00 | 0.00 | 0.00 | 71 | 1016.3 |
| 20260901013746 | 26 | 148 | 3.2 | 8.0 | 0.00 | 0.00 | 0.00 | 71 | 1016.3 |
| 20260901013624 | 26 | 148 | 4.8 | 8.0 | 0.00 | 0.00 | 0.00 | 71 | 1016.3 |
| 20260901013543 | 26 | 147 | 4.8 | 8.0 | 0.00 | 0.00 | 0.00 | 71 | 1016.3 |
| 20260901013500 | 26 | 148 | 4.8 | 8.0 | 0.00 | 0.00 | 0.00 | 71 | 1016.3 |
| 20260901013337 | 26 | 148 | 4.8 | 8.0 | 0.00 | 0.00 | 0.00 | 70 | 1016.3 |
| 20260901013237 | 26 | 148 | 4.8 | 6.4 | 0.00 | 0.00 | 0.00 | 70 | 1016.3 |
| 20260901013211 | 26 | 148 | 4.8 | 6.4 | 0.00 | 0.00 | 0.00 | 69 | 1016.3 |
| 20260901013047 | 26 | 147 | 3.2 | 4.8 | 0.00 | 0.00 | 0.00 | 69 | 1016.3 |
| 20260901012924 | 26 | 148 | 4.8 | 4.8 | 0.00 | 0.00 | 0.00 | 69 | 1016.3 |
| 20260901012842 | 26 | 148 | 3.2 | 4.8 | 0.00 | 0.00 | 0.00 | 69 | 1016.3 |
| 20260901012741 | 26 | 148 | 3.2 | 4.8 | 0.00 | 0.00 | 0.00 | 69 | 1016.2 |
| 20260901012640 | 26 | 148 | 3.2 | 4.8 | 0.00 | 0.00 | 0.00 | 69 | 1016.2 |
| 20260901012537 | 26 | 148 | 3.2 | 4.8 | 0.00 | 0.00 | 0.00 | 69 | 1016.2 |
| 20260901012437 | 26 | 147 | 3.2 | 4.8 | 0.00 | 0.00 | 0.00 | 69 | 1016.2 |
| 20260901012339 | 26 | 148 | 3.2 | 4.8 | 0.00 | 0.00 | 0.00 | 69 | 1016.2 |
| 20260901012237 | 26 | 148 | 3.2 | 6.4 | 0.00 | 0.00 | 0.00 | 69 | 1016.2 |
| 20260901012155 | 26 | 148 | 3.2 | 6.4 | 0.00 | 0.00 | 0.00 | 69 | 1016.2 |
| 20260901012034 | 26 | 145 | 3.2 | 6.4 | 0.00 | 0.00 | 0.00 | 69 | 1016.2 |
| 20260901011932 | 26 | 147 | 3.2 | 6.4 | 0.00 | 0.00 | 0.00 | 69 | 1016.2 |
| 20260901011830 | 26 | 145 | 4.8 | 8.0 | 0.00 | 0.00 | 0.00 | 69 | 1016.2 |
| 20260901011702 | 26 | 147 | 4.8 | 8.0 | 0.00 | 0.00 | 0.00 | 69 | 1016.2 |
| 20260901011601 | 26 | 147 | 4.8 | 8.0 | 0.00 | 0.00 | 0.00 | 69 | 1016.2 |
| 20260901011439 | 26 | 148 | 4.8 | 8.0 | 0.00 | 0.00 | 0.00 | 69 | 1016.2 |
| 20260901011338 | 26 | 148 | 4.8 | 8.0 | 0.00 | 0.00 | 0.00 | 70 | 1016.2 |
| 20260901011236 | 26 | 148 | 3.2 | 8.0 | 0.00 | 0.00 | 0.00 | 69 | 1016.2 |
| 20260901011135 | 26 | 147 | 4.8 | 8.0 | 0.00 | 0.00 | 0.00 | 69 | 1016.2 |
| 20260901011054 | 26 | 148 | 4.8 | 8.0 | 0.00 | 0.00 | 0.00 | 69 | 1016.2 |
| 20260901010931 | 26 | 148 | 3.2 | 8.0 | 0.00 | 0.00 | 0.00 | 69 | 1016.2 |
| 20260901010853 | 26 | 150 | 4.8 | 8.0 | 0.00 | 0.00 | 0.00 | 69 | 1016.2 |
| 20260901010731 | 26 | 150 | 4.8 | 8.0 | 0.00 | 0.00 | 0.00 | 69 | 1016.2 |
| 20260901010631 | 26 | 150 | 4.8 | 8.0 | 0.00 | 0.00 | 0.00 | 68 | 1016.2 |
| 20260901010530 | 26 | 150 | 4.8 | 8.0 | 0.00 | 0.00 | 0.00 | 68 | 1016.2 |
| 20260901010427 | 26 | 151 | 4.8 | 8.0 | 0.00 | 0.00 | 0.00 | 68 | 1016.2 |
| 20260901010326 | 26 | 150 | 4.8 | 8.0 | 0.00 | 0.00 | 0.00 | 68 | 1016.2 |
| 20260901010224 | 26 | 151 | 4.8 | 8.0 | 0.00 | 0.00 | 0.00 | 68 | 1016.2 |
| 20260901010158 | 26 | 150 | 3.2 | 8.0 | 0.00 | 0.00 | 0.00 | 68 | 1016.2 |
| 20260901010036 | 26 | 151 | 4.8 | 8.0 | 0.00 | 0.00 | 0.00 | 68 | 1016.2 |
| 20260901005935 | 26 | 150 | 4.8 | 8.0 | 0.00 | 0.00 | 0.00 | 68 | 1016.2 |
| 20260901005833 | 26 | 150 | 6.4 | 8.0 | 0.00 | 0.00 | 0.00 | 68 | 1016.2 |
| 20260901005732 | 26 | 152 | 4.8 | 8.0 | 0.00 | 0.00 | 0.00 | 68 | 1016.0 |
| 20260901005630 | 26 | 151 | 6.4 | 8.0 | 0.00 | 0.00 | 0.00 | 68 | 1016.0 |
| 20260901005529 | 26 | 152 | 3.2 | 8.0 | 0.00 | 0.00 | 0.00 | 68 | 1016.0 |
| 20260901005451 | 26 | 152 | 6.4 | 8.0 | 0.00 | 0.00 | 0.00 | 68 | 1016.0 |
| 20260901005328 | 26 | 154 | 4.8 | 8.0 | 0.00 | 0.00 | 0.00 | 68 | 1016.0 |
| 20260901005228 | 26 | 157 | 4.8 | 8.0 | 0.00 | 0.00 | 0.00 | 68 | 1016.0 |
| 20260901005128 | 26 | 158 | 3.2 | 8.0 | 0.00 | 0.00 | 0.00 | 68 | 1016.0 |
| 20260901005026 | 26 | 155 | 4.8 | 8.0 | 0.00 | 0.00 | 0.00 | 68 | 1016.0 |
| 20260901004945 | 26 | 157 | 6.4 | 8.0 | 0.00 | 0.00 | 0.00 | 68 | 1016.0 |
| 20260901004904 | 26 | 157 | 6.4 | 8.0 | 0.00 | 0.00 | 0.00 | 68 | 1016.0 |
| 20260901004753 | 26 | 157 | 4.8 | 8.0 | 0.00 | 0.00 | 0.00 | 68 | 1016.0 |
| 20260901004646 | 26 | 158 | 4.8 | 8.0 | 0.00 | 0.00 | 0.00 | 68 | 1016.0 |
| 20260901004525 | 26 | 160 | 4.8 | 8.0 | 0.00 | 0.00 | 0.00 | 68 | 1016.0 |
| 20260901004427 | 26 | 161 | 4.8 | 8.0 | 0.00 | 0.00 | 0.00 | 68 | 1016.0 |
| 20260901004345 | 26 | 162 | 4.8 | 8.0 | 0.00 | 0.00 | 0.00 | 68 | 1016.0 |
| 20260901004242 | 27 | 164 | 4.8 | 8.0 | 0.00 | 0.00 | 0.00 | 68 | 1015.9 |
| 20260901004140 | 27 | 165 | 4.8 | 6.4 | 0.00 | 0.00 | 0.00 | 68 | 1015.9 |
| 20260901004039 | 27 | 165 | 4.8 | 6.4 | 0.00 | 0.00 | 0.00 | 67 | 1015.9 |
| 20260901003938 | 27 | 167 | 4.8 | 6.4 | 0.00 | 0.00 | 0.00 | 67 | 1015.9 |
| 20260901003840 | 27 | 164 | 4.8 | 6.4 | 0.00 | 0.00 | 0.00 | 68 | 1015.9 |
| 20260901003759 | 27 | 167 | 3.2 | 6.4 | 0.00 | 0.00 | 0.00 | 68 | 1015.9 |
| 20260901003637 | 27 | 167 | 3.2 | 6.4 | 0.00 | 0.00 | 0.00 | 67 | 1015.9 |
| 20260901003535 | 27 | 167 | 3.2 | 6.4 | 0.00 | 0.00 | 0.00 | 67 | 1015.9 |
| 20260901003453 | 27 | 165 | 4.8 | 6.4 | 0.00 | 0.00 | 0.00 | 67 | 1015.9 |
| 20260901003331 | 27 | 164 | 3.2 | 6.4 | 0.00 | 0.00 | 0.00 | 67 | 1015.9 |
| 20260901003229 | 27 | 162 | 4.8 | 8.0 | 0.00 | 0.00 | 0.00 | 67 | 1015.9 |
| 20260901003201 | 27 | 167 | 3.2 | 8.0 | 0.00 | 0.00 | 0.00 | 67 | 1015.9 |
| 20260901003042 | 27 | 165 | 3.2 | 8.0 | 0.00 | 0.00 | 0.00 | 67 | 1015.9 |
| 20260901002941 | 27 | 168 | 1.6 | 8.0 | 0.00 | 0.00 | 0.00 | 67 | 1015.9 |
| 20260901002840 | 27 | 169 | 1.6 | 8.0 | 0.00 | 0.00 | 0.00 | 67 | 1015.9 |
| 20260901002739 | 27 | 165 | 1.6 | 8.0 | 0.00 | 0.00 | 0.00 | 67 | 1015.9 |
| 20260901002638 | 27 | 168 | 1.6 | 8.0 | 0.00 | 0.00 | 0.00 | 67 | 1015.9 |
| 20260901002556 | 27 | 169 | 1.6 | 8.0 | 0.00 | 0.00 | 0.00 | 66 | 1015.9 |
| 20260901002433 | 27 | 168 | 1.6 | 8.0 | 0.00 | 0.00 | 0.00 | 66 | 1015.9 |
| 20260901002335 | 27 | 169 | 3.2 | 8.0 | 0.00 | 0.00 | 0.00 | 66 | 1015.9 |
| 20260901002235 | 27 | 167 | 1.6 | 6.4 | 0.00 | 0.00 | 0.00 | 66 | 1015.9 |
| 20260901002133 | 27 | 164 | 1.6 | 6.4 | 0.00 | 0.00 | 0.00 | 66 | 1015.9 |
| 20260901002033 | 27 | 167 | 1.6 | 8.0 | 0.00 | 0.00 | 0.00 | 66 | 1015.9 |
| 20260901001935 | 27 | 168 | 1.6 | 8.0 | 0.00 | 0.00 | 0.00 | 66 | 1015.9 |
| 20260901001833 | 27 | 168 | 3.2 | 8.0 | 0.00 | 0.00 | 0.00 | 66 | 1015.9 |
| 20260901001731 | 27 | 168 | 1.6 | 8.0 | 0.00 | 0.00 | 0.00 | 66 | 1015.9 |
| 20260901001706 | 27 | 168 | 3.2 | 8.0 | 0.00 | 0.00 | 0.00 | 66 | 1015.9 |
| 20260901001524 | 27 | 168 | 1.6 | 8.0 | 0.00 | 0.00 | 0.00 | 66 | 1015.9 |
| 20260901001442 | 27 | 165 | 1.6 | 8.0 | 0.00 | 0.00 | 0.00 | 66 | 1015.9 |
| 20260901001341 | 27 | 167 | 3.2 | 8.0 | 0.00 | 0.00 | 0.00 | 66 | 1015.9 |
| 20260901001240 | 27 | 167 | 3.2 | 8.0 | 0.00 | 0.00 | 0.00 | 66 | 1015.9 |
| 20260901001203 | 27 | 165 | 4.8 | 8.0 | 0.00 | 0.00 | 0.00 | 65 | 1015.9 |
| 20260901001042 | 27 | 168 | 4.8 | 4.8 | 0.00 | 0.00 | 0.00 | 65 | 1015.9 |
| 20260901000925 | 27 | 167 | 4.8 | 4.8 | 0.00 | 0.00 | 0.00 | 65 | 1015.9 |
| 20260901000824 | 27 | 167 | 3.2 | 4.8 | 0.00 | 0.00 | 0.00 | 65 | 1015.9 |
| 20260901000742 | 27 | 165 | 3.2 | 4.8 | 0.00 | 0.00 | 0.00 | 65 | 1015.9 |
| 20260901000701 | 27 | 165 | 3.2 | 4.8 | 0.00 | 0.00 | 0.00 | 65 | 1015.9 |
| 20260901000539 | 27 | 165 | 3.2 | 4.8 | 0.00 | 0.00 | 0.00 | 65 | 1015.9 |
| 20260901000438 | 27 | 168 | 3.2 | 4.8 | 0.00 | 0.00 | 0.00 | 65 | 1015.9 |
| 20260901000350 | 27 | 165 | 3.2 | 4.8 | 0.00 | 0.00 | 0.00 | 65 | 1015.9 |
| 20260901000237 | 27 | 167 | 3.2 | 4.8 | 0.00 | 0.00 | 0.00 | 65 | 1015.9 |
| 20260901000149 | 27 | 168 | 3.2 | 4.8 | 0.00 | 0.00 | 0.00 | 65 | 1015.9 |
| 20260901000049 | 27 | 168 | 3.2 | 4.8 | 0.00 | 0.00 | 0.00 | 65 | 1015.9 |
| 20260831235927 | 27 | 167 | 3.2 | 4.8 | 0.00 | 0.00 | 0.00 | 65 | 1015.9 |
| 20260831235827 | 27 | 167 | 3.2 | 4.8 | 0.00 | 0.00 | 0.00 | 65 | 1015.9 |
| 20260831235726 | 27 | 168 | 3.2 | 4.8 | 0.00 | 0.00 | 0.00 | 65 | 1016.0 |
| 20260831235624 | 27 | 167 | 3.2 | 4.8 | 0.00 | 0.00 | 0.00 | 65 | 1016.0 |
| 20260831235542 | 27 | 167 | 3.2 | 4.8 | 0.00 | 0.00 | 0.00 | 64 | 1016.0 |
| 20260831235440 | 27 | 167 | 4.8 | 4.8 | 0.00 | 0.00 | 0.00 | 64 | 1016.0 |
| 20260831235342 | 27 | 165 | 3.2 | 4.8 | 0.00 | 0.00 | 0.00 | 63 | 1016.0 |
| 20260831235241 | 27 | 164 | 3.2 | 4.8 | 0.00 | 0.00 | 0.00 | 62 | 1016.0 |
| 20260831235141 | 27 | 168 | 3.2 | 4.8 | 0.00 | 0.00 | 0.00 | 62 | 1016.0 |
| 20260831235100 | 27 | 167 | 3.2 | 4.8 | 0.00 | 0.00 | 0.00 | 62 | 1016.0 |
| 20260831234937 | 28 | 168 | 0.0 | 3.2 | 0.00 | 0.00 | 0.00 | 63 | 1016.0 |
| 20260831234835 | 28 | 167 | 0.0 | 3.2 | 0.00 | 0.00 | 0.00 | 63 | 1016.0 |
| 20260831234704 | 28 | 167 | 0.0 | 3.2 | 0.00 | 0.00 | 0.00 | 63 | 1016.0 |
| 20260831234606 | 28 | 169 | 1.6 | 3.2 | 0.00 | 0.00 | 0.00 | 64 | 1016.0 |
| 20260831234503 | 28 | 168 | 1.6 | 3.2 | 0.00 | 0.00 | 0.00 | 64 | 1016.0 |
| 20260831234341 | 28 | 168 | 1.6 | 3.2 | 0.00 | 0.00 | 0.00 | 63 | 1016.0 |
| 20260831234300 | 28 | 167 | 1.6 | 3.2 | 0.00 | 0.00 | 0.00 | 63 | 1015.9 |
| 20260831234157 | 28 | 167 | 0.0 | 1.6 | 0.00 | 0.00 | 0.00 | 63 | 1015.9 |
| 20260831234035 | 28 | 168 | 0.0 | 1.6 | 0.00 | 0.00 | 0.00 | 63 | 1015.9 |
| 20260831233935 | 28 | 165 | 0.0 | 1.6 | 0.00 | 0.00 | 0.00 | 62 | 1015.9 |
| 20260831233833 | 28 | 168 | 0.0 | 1.6 | 0.00 | 0.00 | 0.00 | 62 | 1015.9 |
| 20260831233737 | 28 | 169 | 0.0 | 1.6 | 0.00 | 0.00 | 0.00 | 62 | 1015.9 |
| 20260831233637 | 28 | 167 | 0.0 | 0.0 | 0.00 | 0.00 | 0.00 | 62 | 1015.9 |
| 20260831233534 | 28 | 164 | 0.0 | 0.0 | 0.00 | 0.00 | 0.00 | 62 | 1015.9 |
| 20260831233451 | 28 | 167 | 0.0 | 0.0 | 0.00 | 0.00 | 0.00 | 62 | 1015.9 |
| 20260831233330 | 28 | 168 | 0.0 | 0.0 | 0.00 | 0.00 | 0.00 | 62 | 1015.9 |
| 20260831233249 | 28 | 167 | 0.0 | 0.0 | 0.00 | 0.00 | 0.00 | 62 | 1015.9 |
| 20260831233220 | 28 | 168 | 0.0 | 0.0 | 0.00 | 0.00 | 0.00 | 62 | 1015.9 |
| 20260831233036 | 28 | 167 | 0.0 | 0.0 | 0.00 | 0.00 | 0.00 | 62 | 1015.9 |
| 20260831232954 | 28 | 168 | 0.0 | 0.0 | 0.00 | 0.00 | 0.00 | 62 | 1015.9 |
| 20260831232856 | 28 | 168 | 0.0 | 0.0 | 0.00 | 0.00 | 0.00 | 62 | 1015.9 |
| 20260831232735 | 28 | 167 | 0.0 | 0.0 | 0.00 | 0.00 | 0.00 | 61 | 1016.0 |
| 20260831232632 | 28 | 168 | 0.0 | 0.0 | 0.00 | 0.00 | 0.00 | 61 | 1016.0 |
| 20260831232531 | 28 | 168 | 0.0 | 1.6 | 0.00 | 0.00 | 0.00 | 61 | 1016.0 |
| 20260831232431 | 28 | 167 | 0.0 | 1.6 | 0.00 | 0.00 | 0.00 | 61 | 1016.0 |
| 20260831232330 | 28 | 165 | 0.0 | 1.6 | 0.00 | 0.00 | 0.00 | 61 | 1016.0 |
| 20260831232228 | 28 | 167 | 0.0 | 1.6 | 0.00 | 0.00 | 0.00 | 61 | 1016.0 |
| 20260831232151 | 28 | 168 | 0.0 | 1.6 | 0.00 | 0.00 | 0.00 | 61 | 1016.0 |
| 20260831232029 | 28 | 168 | 0.0 | 1.6 | 0.00 | 0.00 | 0.00 | 60 | 1016.0 |
| 20260831231928 | 28 | 168 | 0.0 | 3.2 | 0.00 | 0.00 | 0.00 | 60 | 1016.0 |
| 20260831231828 | 28 | 168 | 0.0 | 3.2 | 0.00 | 0.00 | 0.00 | 60 | 1016.0 |
| 20260831231726 | 28 | 165 | 0.0 | 3.2 | 0.00 | 0.00 | 0.00 | 60 | 1016.0 |
| 20260831231656 | 28 | 167 | 0.0 | 3.2 | 0.00 | 0.00 | 0.00 | 60 | 1016.0 |
| 20260831231534 | 28 | 168 | 0.0 | 3.2 | 0.00 | 0.00 | 0.00 | 60 | 1016.0 |
| 20260831231437 | 28 | 167 | 0.0 | 3.2 | 0.00 | 0.00 | 0.00 | 60 | 1016.0 |
| 20260831231356 | 28 | 165 | 1.6 | 3.2 | 0.00 | 0.00 | 0.00 | 60 | 1016.0 |
| 20260831231234 | 28 | 167 | 1.6 | 3.2 | 0.00 | 0.00 | 0.00 | 60 | 1016.0 |
| 20260831231133 | 28 | 167 | 0.0 | 3.2 | 0.00 | 0.00 | 0.00 | 60 | 1016.0 |
| 20260831231032 | 28 | 167 | 1.6 | 3.2 | 0.00 | 0.00 | 0.00 | 60 | 1016.0 |
| 20260831230930 | 28 | 167 | 1.6 | 3.2 | 0.00 | 0.00 | 0.00 | 60 | 1016.0 |
| 20260831230830 | 28 | 168 | 0.0 | 3.2 | 0.00 | 0.00 | 0.00 | 60 | 1016.0 |
| 20260831230733 | 28 | 165 | 0.0 | 3.2 | 0.00 | 0.00 | 0.00 | 60 | 1016.0 |
| 20260831230632 | 28 | 165 | 0.0 | 3.2 | 0.00 | 0.00 | 0.00 | 59 | 1016.0 |
| 20260831230530 | 28 | 168 | 1.6 | 3.2 | 0.00 | 0.00 | 0.00 | 59 | 1016.0 |
| 20260831230429 | 28 | 167 | 1.6 | 3.2 | 0.00 | 0.00 | 0.00 | 59 | 1016.0 |
| 20260831230327 | 28 | 167 | 1.6 | 3.2 | 0.00 | 0.00 | 0.00 | 59 | 1016.0 |
| 20260831230228 | 28 | 167 | 1.6 | 3.2 | 0.00 | 0.00 | 0.00 | 59 | 1016.0 |
| 20260831230154 | 28 | 168 | 1.6 | 1.6 | 0.00 | 0.00 | 0.00 | 59 | 1016.0 |
| 20260831230034 | 28 | 168 | 0.0 | 0.0 | 0.00 | 0.00 | 0.00 | 59 | 1016.0 |
| 20260831225934 | 28 | 167 | 0.0 | 1.6 | 0.00 | 0.00 | 0.00 | 60 | 1016.0 |
| 20260831225832 | 28 | 168 | 0.0 | 1.6 | 0.00 | 0.00 | 0.00 | 60 | 1016.0 |
| 20260831225730 | 28 | 168 | 0.0 | 1.6 | 0.00 | 0.00 | 0.00 | 60 | 1016.1 |
| 20260831225629 | 28 | 168 | 0.0 | 1.6 | 0.00 | 0.00 | 0.00 | 60 | 1016.1 |
| 20260831225529 | 28 | 168 | 0.0 | 1.6 | 0.00 | 0.00 | 0.00 | 60 | 1016.1 |
| 20260831225428 | 28 | 168 | 0.0 | 3.2 | 0.00 | 0.00 | 0.00 | 60 | 1016.1 |
| 20260831225331 | 28 | 168 | 0.0 | 4.8 | 0.00 | 0.00 | 0.00 | 60 | 1016.1 |
| 20260831225228 | 28 | 168 | 0.0 | 4.8 | 0.00 | 0.00 | 0.00 | 60 | 1016.1 |
| 20260831225127 | 28 | 165 | 0.0 | 4.8 | 0.00 | 0.00 | 0.00 | 60 | 1016.1 |
| 20260831225025 | 28 | 167 | 0.0 | 6.4 | 0.00 | 0.00 | 0.00 | 60 | 1016.1 |
| 20260831224944 | 28 | 168 | 0.0 | 6.4 | 0.00 | 0.00 | 0.00 | 60 | 1016.1 |
| 20260831224842 | 28 | 168 | 0.0 | 6.4 | 0.00 | 0.00 | 0.00 | 60 | 1016.1 |
| 20260831224801 | 28 | 168 | 0.0 | 6.4 | 0.00 | 0.00 | 0.00 | 58 | 1016.1 |
| 20260831224710 | 28 | 168 | 1.6 | 6.4 | 0.00 | 0.00 | 0.00 | 59 | 1016.1 |
| 20260831224531 | 28 | 168 | 3.2 | 6.4 | 0.00 | 0.00 | 0.00 | 59 | 1016.1 |
| 20260831224450 | 28 | 167 | 1.6 | 6.4 | 0.00 | 0.00 | 0.00 | 59 | 1016.1 |
| 20260831224326 | 28 | 168 | 1.6 | 6.4 | 0.00 | 0.00 | 0.00 | 59 | 1016.1 |
| 20260831224244 | 28 | 168 | 3.2 | 6.4 | 0.00 | 0.00 | 0.00 | 59 | 1016.3 |
| 20260831224203 | 28 | 168 | 3.2 | 6.4 | 0.00 | 0.00 | 0.00 | 59 | 1016.3 |
| 20260831224101 | 28 | 167 | 0.0 | 3.2 | 0.00 | 0.00 | 0.00 | 59 | 1016.3 |
| 20260831223938 | 28 | 165 | 0.0 | 3.2 | 0.00 | 0.00 | 0.00 | 59 | 1016.3 |
| 20260831223857 | 28 | 162 | 0.0 | 4.8 | 0.00 | 0.00 | 0.00 | 58 | 1016.3 |
| 20260831223735 | 28 | 167 | 0.0 | 4.8 | 0.00 | 0.00 | 0.00 | 59 | 1016.3 |
| 20260831223637 | 28 | 167 | 0.0 | 4.8 | 0.00 | 0.00 | 0.00 | 58 | 1016.3 |
| 20260831223556 | 28 | 165 | 0.0 | 4.8 | 0.00 | 0.00 | 0.00 | 59 | 1016.3 |
| 20260831223433 | 28 | 167 | 0.0 | 6.4 | 0.00 | 0.00 | 0.00 | 59 | 1016.3 |
| 20260831223332 | 28 | 167 | 0.0 | 6.4 | 0.00 | 0.00 | 0.00 | 59 | 1016.3 |
| 20260831223252 | 28 | 164 | 0.0 | 6.4 | 0.00 | 0.00 | 0.00 | 59 | 1016.3 |
| 20260831223223 | 28 | 162 | 1.6 | 8.0 | 0.00 | 0.00 | 0.00 | 59 | 1016.3 |
| 20260831223039 | 28 | 167 | 3.2 | 8.0 | 0.00 | 0.00 | 0.00 | 59 | 1016.3 |
| 20260831222938 | 28 | 165 | 3.2 | 8.0 | 0.00 | 0.00 | 0.00 | 59 | 1016.3 |
| 20260831222901 | 28 | 165 | 1.6 | 8.0 | 0.00 | 0.00 | 0.00 | 59 | 1016.3 |
| 20260831222737 | 28 | 165 | 1.6 | 8.0 | 0.00 | 0.00 | 0.00 | 59 | 1016.4 |
| 20260831222635 | 28 | 167 | 3.2 | 8.0 | 0.00 | 0.00 | 0.00 | 59 | 1016.4 |
| 20260831222537 | 28 | 167 | 1.6 | 8.0 | 0.00 | 0.00 | 0.00 | 59 | 1016.4 |
| 20260831222436 | 28 | 165 | 1.6 | 8.0 | 0.00 | 0.00 | 0.00 | 59 | 1016.4 |
| 20260831222358 | 28 | 167 | 4.8 | 8.0 | 0.00 | 0.00 | 0.00 | 58 | 1016.4 |
| 20260831222235 | 28 | 160 | 3.2 | 8.0 | 0.00 | 0.00 | 0.00 | 58 | 1016.4 |
| 20260831222137 | 28 | 167 | 0.0 | 8.0 | 0.00 | 0.00 | 0.00 | 58 | 1016.4 |
| 20260831222055 | 28 | 167 | 1.6 | 8.0 | 0.00 | 0.00 | 0.00 | 58 | 1016.4 |
| 20260831221932 | 28 | 164 | 3.2 | 8.0 | 0.00 | 0.00 | 0.00 | 58 | 1016.4 |
| 20260831221850 | 28 | 167 | 3.2 | 8.0 | 0.00 | 0.00 | 0.00 | 58 | 1016.4 |
| 20260831221739 | 28 | 167 | 1.6 | 8.0 | 0.00 | 0.00 | 0.00 | 57 | 1016.4 |
| 20260831221648 | 28 | 167 | 3.2 | 8.0 | 0.00 | 0.00 | 0.00 | 58 | 1016.4 |
| 20260831221526 | 28 | 165 | 4.8 | 8.0 | 0.00 | 0.00 | 0.00 | 59 | 1016.4 |
| 20260831221424 | 28 | 165 | 1.6 | 8.0 | 0.00 | 0.00 | 0.00 | 59 | 1016.4 |
| 20260831221329 | 28 | 165 | 3.2 | 8.0 | 0.00 | 0.00 | 0.00 | 59 | 1016.4 |
| 20260831221228 | 28 | 165 | 6.4 | 8.0 | 0.00 | 0.00 | 0.00 | 58 | 1016.4 |
| 20260831221146 | 28 | 110 | 0.0 | 3.2 | 0.00 | 0.00 | 0.00 | 58 | 1016.4 |
| 20260831221043 | 28 | 109 | 0.0 | 3.2 | 0.00 | 0.00 | 0.00 | 58 | 1016.4 |
| 20260831221002 | 28 | 109 | 1.6 | 4.8 | 0.00 | 0.00 | 0.00 | 57 | 1016.4 |
| 20260831220839 | 28 | 107 | 0.0 | 9.7 | 0.00 | 0.00 | 0.00 | 56 | 1016.4 |
| 20260831220756 | 28 | 109 | 0.0 | 9.7 | 0.00 | 0.00 | 0.00 | 56 | 1016.4 |
| 20260831220633 | 28 | 106 | 0.0 | 9.7 | 0.00 | 0.00 | 0.00 | 57 | 1016.4 |
| 20260831220531 | 28 | 109 | 0.0 | 9.7 | 0.00 | 0.00 | 0.00 | 57 | 1016.4 |
| 20260831220433 | 28 | 109 | 0.0 | 9.7 | 0.00 | 0.00 | 0.00 | 57 | 1016.4 |
| 20260831220331 | 28 | 107 | 1.6 | 9.7 | 0.00 | 0.00 | 0.00 | 57 | 1016.4 |
| 20260831220239 | 28 | 107 | 1.6 | 9.7 | 0.00 | 0.00 | 0.00 | 57 | 1016.4 |
| 20260831220148 | 28 | 107 | 3.2 | 9.7 | 0.00 | 0.00 | 0.00 | 57 | 1016.4 |
| 20260831220045 | 28 | 110 | 3.2 | 9.7 | 0.00 | 0.00 | 0.00 | 57 | 1016.4 |
| 20260831220002 | 28 | 107 | 6.4 | 9.7 | 0.00 | 0.00 | 0.00 | 56 | 1016.4 |
| 20260831215859 | 28 | 109 | 4.8 | 9.7 | 0.00 | 0.00 | 0.00 | 56 | 1016.4 |
| 20260831215740 | 28 | 100 | 3.2 | 4.8 | 0.00 | 0.00 | 0.00 | 56 | 1016.4 |
| 20260831215659 | 28 | 99 | 3.2 | 4.8 | 0.00 | 0.00 | 0.00 | 56 | 1016.4 |
| 20260831215556 | 29 | 99 | 1.6 | 4.8 | 0.00 | 0.00 | 0.00 | 58 | 1016.4 |
| 20260831215436 | 29 | 97 | 3.2 | 4.8 | 0.00 | 0.00 | 0.00 | 58 | 1016.4 |
| 20260831215355 | 29 | 99 | 1.6 | 4.8 | 0.00 | 0.00 | 0.00 | 58 | 1016.4 |
| 20260831215231 | 29 | 99 | 3.2 | 4.8 | 0.00 | 0.00 | 0.00 | 58 | 1016.4 |
| 20260831215130 | 29 | 97 | 0.0 | 4.8 | 0.00 | 0.00 | 0.00 | 58 | 1016.4 |
| 20260831215029 | 29 | 99 | 0.0 | 4.8 | 0.00 | 0.00 | 0.00 | 58 | 1016.4 |
| 20260831214928 | 29 | 99 | 0.0 | 4.8 | 0.00 | 0.00 | 0.00 | 58 | 1016.4 |
| 20260831214827 | 29 | 96 | 0.0 | 4.8 | 0.00 | 0.00 | 0.00 | 58 | 1016.4 |
| 20260831214740 | 29 | 99 | 0.0 | 4.8 | 0.00 | 0.00 | 0.00 | 59 | 1016.4 |
| 20260831214649 | 29 | 99 | 1.6 | 4.8 | 0.00 | 0.00 | 0.00 | 58 | 1016.4 |
| 20260831214527 | 29 | 97 | 0.0 | 4.8 | 0.00 | 0.00 | 0.00 | 58 | 1016.4 |
| 20260831214425 | 29 | 95 | 1.6 | 4.8 | 0.00 | 0.00 | 0.00 | 57 | 1016.4 |
| 20260831214325 | 29 | 97 | 0.0 | 4.8 | 0.00 | 0.00 | 0.00 | 57 | 1016.4 |
| 20260831214224 | 29 | 99 | 1.6 | 4.8 | 0.00 | 0.00 | 0.00 | 57 | 1016.5 |
| 20260831214124 | 29 | 97 | 0.0 | 4.8 | 0.00 | 0.00 | 0.00 | 57 | 1016.5 |
| 20260831214026 | 29 | 96 | 1.6 | 4.8 | 0.00 | 0.00 | 0.00 | 56 | 1016.5 |
| 20260831213925 | 29 | 99 | 3.2 | 4.8 | 0.00 | 0.00 | 0.00 | 56 | 1016.5 |
| 20260831213845 | 29 | 96 | 3.2 | 4.8 | 0.00 | 0.00 | 0.00 | 56 | 1016.5 |
| 20260831213803 | 29 | 97 | 1.6 | 4.8 | 0.00 | 0.00 | 0.00 | 56 | 1016.5 |
| 20260831213641 | 29 | 95 | 0.0 | 3.2 | 0.00 | 0.00 | 0.00 | 56 | 1016.5 |
| 20260831213540 | 29 | 97 | 0.0 | 3.2 | 0.00 | 0.00 | 0.00 | 56 | 1016.5 |
| 20260831213439 | 29 | 97 | 0.0 | 3.2 | 0.00 | 0.00 | 0.00 | 57 | 1016.5 |
| 20260831213337 | 29 | 96 | 0.0 | 3.2 | 0.00 | 0.00 | 0.00 | 55 | 1016.5 |
| 20260831213241 | 29 | 96 | 1.6 | 3.2 | 0.00 | 0.00 | 0.00 | 56 | 1016.5 |
| 20260831213211 | 29 | 97 | 1.6 | 3.2 | 0.00 | 0.00 | 0.00 | 56 | 1016.5 |
| 20260831213027 | 29 | 96 | 0.0 | 3.2 | 0.00 | 0.00 | 0.00 | 55 | 1016.5 |
| 20260831212926 | 29 | 97 | 0.0 | 3.2 | 0.00 | 0.00 | 0.00 | 54 | 1016.5 |
| 20260831212826 | 29 | 96 | 0.0 | 4.8 | 0.00 | 0.00 | 0.00 | 54 | 1016.5 |
| 20260831212726 | 29 | 96 | 0.0 | 4.8 | 0.00 | 0.00 | 0.00 | 54 | 1016.6 |
| 20260831212625 | 29 | 97 | 0.0 | 4.8 | 0.00 | 0.00 | 0.00 | 56 | 1016.6 |
| 20260831212547 | 29 | 97 | 0.0 | 6.4 | 0.00 | 0.00 | 0.00 | 56 | 1016.6 |
| 20260831212425 | 29 | 97 | 0.0 | 6.4 | 0.00 | 0.00 | 0.00 | 56 | 1016.6 |
| 20260831212342 | 29 | 96 | 0.0 | 6.4 | 0.00 | 0.00 | 0.00 | 56 | 1016.6 |
| 20260831212241 | 29 | 96 | 1.6 | 6.4 | 0.00 | 0.00 | 0.00 | 56 | 1016.6 |
| 20260831212200 | 29 | 97 | 1.6 | 6.4 | 0.00 | 0.00 | 0.00 | 56 | 1016.6 |
| 20260831212036 | 29 | 97 | 1.6 | 6.4 | 0.00 | 0.00 | 0.00 | 56 | 1016.6 |
| 20260831211934 | 29 | 96 | 3.2 | 6.4 | 0.00 | 0.00 | 0.00 | 56 | 1016.6 |
| 20260831211832 | 29 | 95 | 3.2 | 6.4 | 0.00 | 0.00 | 0.00 | 56 | 1016.6 |
| 20260831211735 | 29 | 96 | 4.8 | 6.4 | 0.00 | 0.00 | 0.00 | 56 | 1016.6 |
| 20260831211704 | 29 | 97 | 4.8 | 6.4 | 0.00 | 0.00 | 0.00 | 56 | 1016.6 |
| 20260831211602 | 29 | 96 | 3.2 | 4.8 | 0.00 | 0.00 | 0.00 | 57 | 1016.6 |
| 20260831211439 | 29 | 96 | 3.2 | 4.8 | 0.00 | 0.00 | 0.00 | 57 | 1016.6 |
| 20260831211337 | 29 | 96 | 1.6 | 8.0 | 0.00 | 0.00 | 0.00 | 57 | 1016.6 |
| 20260831211235 | 29 | 95 | 0.0 | 8.0 | 0.00 | 0.00 | 0.00 | 58 | 1016.7 |
| 20260831211134 | 29 | 97 | 1.6 | 8.0 | 0.00 | 0.00 | 0.00 | 57 | 1016.7 |
| 20260831211034 | 29 | 96 | 3.2 | 8.0 | 0.00 | 0.00 | 0.00 | 58 | 1016.7 |
| 20260831210937 | 29 | 97 | 3.2 | 8.0 | 0.00 | 0.00 | 0.00 | 58 | 1016.7 |
| 20260831210837 | 29 | 97 | 3.2 | 8.0 | 0.00 | 0.00 | 0.00 | 58 | 1016.7 |
| 20260831210735 | 29 | 97 | 1.6 | 8.0 | 0.00 | 0.00 | 0.00 | 56 | 1016.7 |
| 20260831210634 | 29 | 96 | 1.6 | 8.0 | 0.00 | 0.00 | 0.00 | 56 | 1016.7 |
| 20260831210533 | 29 | 96 | 4.8 | 8.0 | 0.00 | 0.00 | 0.00 | 56 | 1016.7 |
| 20260831210431 | 29 | 96 | 4.8 | 8.0 | 0.00 | 0.00 | 0.00 | 57 | 1016.7 |
| 20260831210334 | 28 | 97 | 4.8 | 8.0 | 0.00 | 0.00 | 0.00 | 58 | 1016.7 |
| 20260831210243 | 28 | 97 | 6.4 | 8.0 | 0.00 | 0.00 | 0.00 | 58 | 1016.7 |
| 20260831210153 | 28 | 96 | 6.4 | 8.0 | 0.00 | 0.00 | 0.00 | 56 | 1016.7 |
| 20260831210028 | 28 | 99 | 1.6 | 4.8 | 0.00 | 0.00 | 0.00 | 55 | 1016.7 |
| 20260831205930 | 28 | 97 | 0.0 | 8.0 | 0.00 | 0.00 | 0.00 | 54 | 1016.7 |
| 20260831205850 | 28 | 95 | 0.0 | 8.0 | 0.00 | 0.00 | 0.00 | 54 | 1016.7 |
| 20260831205747 | 28 | 96 | 1.6 | 8.0 | 0.00 | 0.00 | 0.00 | 54 | 1016.9 |
| 20260831205623 | 28 | 97 | 0.0 | 8.0 | 0.00 | 0.00 | 0.00 | 54 | 1016.9 |
| 20260831205523 | 28 | 97 | 0.0 | 8.0 | 0.00 | 0.00 | 0.00 | 55 | 1016.9 |
| 20260831205429 | 28 | 95 | 0.0 | 9.7 | 0.00 | 0.00 | 0.00 | 57 | 1016.9 |
| 20260831205328 | 28 | 97 | 3.2 | 9.7 | 0.00 | 0.00 | 0.00 | 57 | 1016.9 |
| 20260831205227 | 28 | 97 | 3.2 | 9.7 | 0.00 | 0.00 | 0.00 | 58 | 1016.9 |
| 20260831205127 | 28 | 97 | 4.8 | 9.7 | 0.00 | 0.00 | 0.00 | 58 | 1016.9 |
| 20260831205047 | 28 | 96 | 4.8 | 9.7 | 0.00 | 0.00 | 0.00 | 58 | 1016.9 |
| 20260831205005 | 28 | 97 | 3.2 | 9.7 | 0.00 | 0.00 | 0.00 | 59 | 1016.9 |
| 20260831204842 | 28 | 96 | 3.2 | 9.7 | 0.00 | 0.00 | 0.00 | 59 | 1016.9 |
| 20260831204725 | 28 | 97 | 4.8 | 9.7 | 0.00 | 0.00 | 0.00 | 59 | 1016.9 |
| 20260831204656 | 28 | 95 | 6.4 | 9.7 | 0.00 | 0.00 | 0.00 | 59 | 1016.9 |
| 20260831204533 | 28 | 99 | 4.8 | 9.7 | 0.00 | 0.00 | 0.00 | 59 | 1016.9 |
| 20260831204433 | 28 | 99 | 1.6 | 6.4 | 0.00 | 0.00 | 0.00 | 57 | 1016.9 |
| 20260831204332 | 28 | 100 | 0.0 | 6.4 | 0.00 | 0.00 | 0.00 | 57 | 1016.9 |
| 20260831204230 | 28 | 99 | 0.0 | 6.4 | 0.00 | 0.00 | 0.00 | 56 | 1016.9 |
| 20260831204129 | 28 | 97 | 0.0 | 6.4 | 0.00 | 0.00 | 0.00 | 56 | 1016.9 |
| 20260831204052 | 28 | 100 | 3.2 | 6.4 | 0.00 | 0.00 | 0.00 | 56 | 1016.9 |
| 20260831203930 | 28 | 99 | 3.2 | 6.4 | 0.00 | 0.00 | 0.00 | 57 | 1016.9 |
| 20260831203829 | 28 | 144 | 1.6 | 8.0 | 0.00 | 0.00 | 0.00 | 57 | 1016.9 |
| 20260831203728 | 28 | 144 | 3.2 | 8.0 | 0.00 | 0.00 | 0.00 | 57 | 1016.9 |
| 20260831203626 | 28 | 182 | 4.8 | 8.0 | 0.00 | 0.00 | 0.00 | 57 | 1016.9 |
| 20260831203526 | 28 | 184 | 0.0 | 8.0 | 0.00 | 0.00 | 0.00 | 58 | 1016.9 |
| 20260831203425 | 28 | 186 | 3.2 | 8.0 | 0.00 | 0.00 | 0.00 | 58 | 1016.9 |
| 20260831203330 | 28 | 185 | 3.2 | 8.0 | 0.00 | 0.00 | 0.00 | 59 | 1016.9 |
| 20260831203202 | 28 | 185 | 1.6 | 8.0 | 0.00 | 0.00 | 0.00 | 59 | 1016.9 |
| 20260831203039 | 28 | 185 | 3.2 | 8.0 | 0.00 | 0.00 | 0.00 | 59 | 1016.9 |
| 20260831202958 | 28 | 184 | 3.2 | 8.0 | 0.00 | 0.00 | 0.00 | 58 | 1016.9 |
| 20260831202835 | 28 | 182 | 1.6 | 8.0 | 0.00 | 0.00 | 0.00 | 59 | 1016.9 |
| 20260831202739 | 28 | 182 | 1.6 | 4.8 | 0.00 | 0.00 | 0.00 | 59 | 1017.0 |
| 20260831202641 | 28 | 184 | 1.6 | 4.8 | 0.00 | 0.00 | 0.00 | 58 | 1017.0 |
| 20260831202602 | 28 | 184 | 1.6 | 4.8 | 0.00 | 0.00 | 0.00 | 58 | 1017.0 |
| 20260831202438 | 28 | 181 | 1.6 | 4.8 | 0.00 | 0.00 | 0.00 | 58 | 1017.0 |
| 20260831202336 | 28 | 181 | 0.0 | 4.8 | 0.00 | 0.00 | 0.00 | 59 | 1017.0 |
| 20260831202255 | 28 | 181 | 0.0 | 4.8 | 0.00 | 0.00 | 0.00 | 59 | 1017.0 |
| 20260831202132 | 28 | 192 | 0.0 | 8.0 | 0.00 | 0.00 | 0.00 | 59 | 1017.0 |
| 20260831202031 | 28 | 192 | 0.0 | 8.0 | 0.00 | 0.00 | 0.00 | 59 | 1017.0 |
| 20260831201929 | 28 | 193 | 0.0 | 8.0 | 0.00 | 0.00 | 0.00 | 57 | 1017.0 |
| 20260831201832 | 28 | 192 | 0.0 | 8.0 | 0.00 | 0.00 | 0.00 | 58 | 1017.0 |
| 20260831201735 | 28 | 192 | 0.0 | 8.0 | 0.00 | 0.00 | 0.00 | 58 | 1017.0 |
| 20260831201702 | 28 | 193 | 1.6 | 8.0 | 0.00 | 0.00 | 0.00 | 58 | 1017.0 |
| 20260831201601 | 28 | 191 | 3.2 | 8.0 | 0.00 | 0.00 | 0.00 | 59 | 1017.0 |
| 20260831201439 | 28 | 191 | 1.6 | 8.0 | 0.00 | 0.00 | 0.00 | 59 | 1017.0 |
| 20260831201357 | 28 | 192 | 1.6 | 8.0 | 0.00 | 0.00 | 0.00 | 58 | 1017.0 |
| 20260831201235 | 28 | 192 | 3.2 | 8.0 | 0.00 | 0.00 | 0.00 | 58 | 1017.1 |
| 20260831201134 | 28 | 198 | 3.2 | 4.8 | 0.00 | 0.00 | 0.00 | 60 | 1017.1 |
| 20260831201058 | 28 | 216 | 0.0 | 6.4 | 0.00 | 0.00 | 0.00 | 60 | 1017.1 |
| 20260831200934 | 28 | 217 | 0.0 | 6.4 | 0.00 | 0.00 | 0.00 | 59 | 1017.1 |
| 20260831200832 | 28 | 216 | 0.0 | 6.4 | 0.00 | 0.00 | 0.00 | 59 | 1017.1 |
| 20260831200731 | 28 | 216 | 0.0 | 6.4 | 0.00 | 0.00 | 0.00 | 60 | 1017.1 |
| 20260831200631 | 28 | 216 | 0.0 | 6.4 | 0.00 | 0.00 | 0.00 | 59 | 1017.1 |
| 20260831200550 | 28 | 215 | 0.0 | 6.4 | 0.00 | 0.00 | 0.00 | 58 | 1017.1 |
| 20260831200429 | 28 | 216 | 0.0 | 6.4 | 0.00 | 0.00 | 0.00 | 60 | 1017.1 |
| 20260831200331 | 28 | 216 | 1.6 | 6.4 | 0.00 | 0.00 | 0.00 | 63 | 1017.1 |
| 20260831200251 | 28 | 216 | 3.2 | 6.4 | 0.00 | 0.00 | 0.00 | 63 | 1017.1 |
| 20260831200203 | 28 | 216 | 1.6 | 6.4 | 0.00 | 0.00 | 0.00 | 64 | 1017.1 |
| 20260831200040 | 28 | 217 | 0.0 | 4.8 | 0.00 | 0.00 | 0.00 | 63 | 1017.1 |
| 20260831195939 | 28 | 253 | 0.0 | 8.0 | 0.00 | 0.00 | 0.00 | 62 | 1017.1 |
| 20260831195858 | 28 | 253 | 0.0 | 8.0 | 0.00 | 0.00 | 0.00 | 62 | 1017.1 |
| 20260831195736 | 28 | 251 | 0.0 | 8.0 | 0.00 | 0.00 | 0.00 | 62 | 1017.3 |
| 20260831195634 | 28 | 253 | 1.6 | 8.0 | 0.00 | 0.00 | 0.00 | 61 | 1017.3 |
| 20260831195553 | 28 | 254 | 0.0 | 8.0 | 0.00 | 0.00 | 0.00 | 61 | 1017.3 |
| 20260831195435 | 28 | 257 | 0.0 | 8.0 | 0.00 | 0.00 | 0.00 | 63 | 1017.3 |
| 20260831195335 | 28 | 256 | 0.0 | 8.0 | 0.00 | 0.00 | 0.00 | 63 | 1017.3 |
| 20260831195234 | 28 | 254 | 1.6 | 8.0 | 0.00 | 0.00 | 0.00 | 63 | 1017.3 |
| 20260831195132 | 28 | 254 | 3.2 | 8.0 | 0.00 | 0.00 | 0.00 | 63 | 1017.3 |
| 20260831195031 | 28 | 251 | 3.2 | 8.0 | 0.00 | 0.00 | 0.00 | 62 | 1017.3 |
| 20260831194949 | 28 | 253 | 0.0 | 4.8 | 0.00 | 0.00 | 0.00 | 62 | 1017.3 |
| 20260831194828 | 28 | 253 | 3.2 | 4.8 | 0.00 | 0.00 | 0.00 | 62 | 1017.3 |
| 20260831194731 | 28 | 251 | 3.2 | 4.8 | 0.00 | 0.00 | 0.00 | 61 | 1017.3 |
| 20260831194701 | 28 | 253 | 3.2 | 4.8 | 0.00 | 0.00 | 0.00 | 60 | 1017.3 |
| 20260831194538 | 28 | 253 | 1.6 | 4.8 | 0.00 | 0.00 | 0.00 | 60 | 1017.3 |
| 20260831194438 | 28 | 251 | 1.6 | 4.8 | 0.00 | 0.00 | 0.00 | 59 | 1017.3 |
| 20260831194356 | 28 | 253 | 1.6 | 4.8 | 0.00 | 0.00 | 0.00 | 58 | 1017.3 |
| 20260831194233 | 28 | 253 | 0.0 | 3.2 | 0.00 | 0.00 | 0.00 | 59 | 1017.5 |
| 20260831194152 | 28 | 247 | 0.0 | 3.2 | 0.00 | 0.00 | 0.00 | 59 | 1017.5 |
| 20260831193954 | 28 | 253 | 0.0 | 3.2 | 0.00 | 0.00 | 0.00 | 62 | 1017.5 |
| 20260831193831 | 28 | 253 | 1.6 | 3.2 | 0.00 | 0.00 | 0.00 | 63 | 1017.5 |
| 20260831193730 | 28 | 253 | 0.0 | 3.2 | 0.00 | 0.00 | 0.00 | 64 | 1017.5 |
| 20260831193631 | 28 | 251 | 0.0 | 3.2 | 0.00 | 0.00 | 0.00 | 64 | 1017.5 |
| 20260831193529 | 28 | 253 | 0.0 | 3.2 | 0.00 | 0.00 | 0.00 | 63 | 1017.5 |
| 20260831193427 | 28 | 253 | 0.0 | 3.2 | 0.00 | 0.00 | 0.00 | 62 | 1017.5 |
| 20260831193347 | 28 | 253 | 0.0 | 3.2 | 0.00 | 0.00 | 0.00 | 62 | 1017.5 |
| 20260831193305 | 28 | 254 | 1.6 | 3.2 | 0.00 | 0.00 | 0.00 | 65 | 1017.5 |
| 20260831193214 | 27 | 253 | 0.0 | 3.2 | 0.00 | 0.00 | 0.00 | 65 | 1017.5 |
| 20260831193036 | 27 | 251 | 0.0 | 1.6 | 0.00 | 0.00 | 0.00 | 63 | 1017.5 |
| 20260831192935 | 27 | 253 | 0.0 | 1.6 | 0.00 | 0.00 | 0.00 | 64 | 1017.5 |
| 20260831192834 | 27 | 251 | 0.0 | 0.0 | 0.00 | 0.00 | 0.00 | 64 | 1017.5 |
| 20260831192733 | 27 | 253 | 0.0 | 0.0 | 0.00 | 0.00 | 0.00 | 63 | 1017.7 |
| 20260831192632 | 27 | 253 | 0.0 | 0.0 | 0.00 | 0.00 | 0.00 | 64 | 1017.7 |
| 20260831192531 | 27 | 253 | 0.0 | 0.0 | 0.00 | 0.00 | 0.00 | 65 | 1017.7 |
| 20260831192433 | 27 | 253 | 0.0 | 1.6 | 0.00 | 0.00 | 0.00 | 65 | 1017.7 |
| 20260831192331 | 27 | 253 | 0.0 | 4.8 | 0.00 | 0.00 | 0.00 | 65 | 1017.7 |
| 20260831192230 | 27 | 251 | 0.0 | 4.8 | 0.00 | 0.00 | 0.00 | 64 | 1017.7 |
| 20260831192131 | 27 | 253 | 0.0 | 6.4 | 0.00 | 0.00 | 0.00 | 64 | 1017.7 |
| 20260831192031 | 27 | 250 | 0.0 | 6.4 | 0.00 | 0.00 | 0.00 | 64 | 1017.7 |
| 20260831191928 | 27 | 253 | 0.0 | 6.4 | 0.00 | 0.00 | 0.00 | 62 | 1017.7 |
| 20260831191848 | 27 | 251 | 0.0 | 6.4 | 0.00 | 0.00 | 0.00 | 62 | 1017.7 |
| 20260831191808 | 27 | 253 | 0.0 | 6.4 | 0.00 | 0.00 | 0.00 | 65 | 1017.7 |
| 20260831191659 | 27 | 251 | 0.0 | 6.4 | 0.00 | 0.00 | 0.00 | 65 | 1017.7 |
| 20260831191556 | 27 | 251 | 3.2 | 6.4 | 0.00 | 0.00 | 0.00 | 65 | 1017.7 |
| 20260831191434 | 27 | 251 | 3.2 | 6.4 | 0.00 | 0.00 | 0.00 | 67 | 1017.7 |
| 20260831191352 | 27 | 253 | 1.6 | 6.4 | 0.00 | 0.00 | 0.00 | 67 | 1017.7 |
| 20260831191231 | 27 | 253 | 3.2 | 6.4 | 0.00 | 0.00 | 0.00 | 67 | 1017.8 |
| 20260831191131 | 27 | 254 | 0.0 | 4.8 | 0.00 | 0.00 | 0.00 | 66 | 1017.8 |
| 20260831191049 | 27 | 251 | 1.6 | 4.8 | 0.00 | 0.00 | 0.00 | 67 | 1017.8 |
| 20260831190925 | 27 | 250 | 0.0 | 4.8 | 0.00 | 0.00 | 0.00 | 69 | 1017.8 |
| 20260831190827 | 27 | 253 | 3.2 | 4.8 | 0.00 | 0.00 | 0.00 | 69 | 1017.8 |
| 20260831190726 | 27 | 251 | 3.2 | 4.8 | 0.00 | 0.00 | 0.00 | 69 | 1017.8 |
| 20260831190625 | 27 | 251 | 0.0 | 4.8 | 0.00 | 0.00 | 0.00 | 68 | 1017.8 |
| 20260831190542 | 27 | 251 | 0.0 | 4.8 | 0.00 | 0.00 | 0.00 | 69 | 1017.8 |
| 20260831190441 | 27 | 253 | 0.0 | 4.8 | 0.00 | 0.00 | 0.00 | 69 | 1017.8 |
| 20260831190339 | 27 | 253 | 0.0 | 4.8 | 0.00 | 0.00 | 0.00 | 69 | 1017.8 |
| 20260831190258 | 27 | 253 | 0.0 | 4.8 | 0.00 | 0.00 | 0.00 | 70 | 1017.8 |
| 20260831190207 | 27 | 250 | 3.2 | 4.8 | 0.00 | 0.00 | 0.00 | 70 | 1017.8 |
| 20260831190026 | 27 | 253 | 3.2 | 4.8 | 0.00 | 0.00 | 0.00 | 69 | 1017.8 |
| 20260831185944 | 27 | 251 | 1.6 | 4.8 | 0.00 | 0.00 | 0.00 | 69 | 1017.8 |
| 20260831185903 | 27 | 250 | 0.0 | 3.2 | 0.00 | 0.00 | 0.00 | 68 | 1017.8 |
| 20260831185740 | 27 | 253 | 0.0 | 3.2 | 0.00 | 0.00 | 0.00 | 67 | 1018.1 |
| 20260831185638 | 27 | 250 | 0.0 | 4.8 | 0.00 | 0.00 | 0.00 | 66 | 1018.1 |
| 20260831185536 | 27 | 253 | 0.0 | 4.8 | 0.00 | 0.00 | 0.00 | 66 | 1018.1 |
| 20260831185435 | 27 | 250 | 0.0 | 4.8 | 0.00 | 0.00 | 0.00 | 66 | 1018.1 |
| 20260831185333 | 27 | 254 | 0.0 | 4.8 | 0.00 | 0.00 | 0.00 | 65 | 1018.1 |
| 20260831185257 | 27 | 253 | 0.0 | 4.8 | 0.00 | 0.00 | 0.00 | 65 | 1018.1 |
| 20260831185133 | 27 | 251 | 0.0 | 4.8 | 0.00 | 0.00 | 0.00 | 65 | 1018.1 |
| 20260831185031 | 27 | 250 | 1.6 | 4.8 | 0.00 | 0.00 | 0.00 | 65 | 1018.1 |
| 20260831184930 | 27 | 253 | 1.6 | 4.8 | 0.00 | 0.00 | 0.00 | 65 | 1018.1 |
| 20260831184849 | 27 | 253 | 3.2 | 4.8 | 0.00 | 0.00 | 0.00 | 65 | 1018.1 |
| 20260831184750 | 27 | 253 | 3.2 | 3.2 | 0.00 | 0.00 | 0.00 | 65 | 1018.1 |
| 20260831184657 | 27 | 251 | 1.6 | 3.2 | 0.00 | 0.00 | 0.00 | 65 | 1018.1 |
| 20260831184535 | 27 | 247 | 1.6 | 3.2 | 0.00 | 0.00 | 0.00 | 64 | 1018.1 |
| 20260831184439 | 27 | 251 | 0.0 | 3.2 | 0.00 | 0.00 | 0.00 | 63 | 1018.1 |
| 20260831184339 | 27 | 253 | 0.0 | 4.8 | 0.00 | 0.00 | 0.00 | 62 | 1018.1 |
| 20260831184258 | 27 | 253 | 0.0 | 4.8 | 0.00 | 0.00 | 0.00 | 63 | 1018.2 |
| 20260831184135 | 27 | 253 | 0.0 | 4.8 | 0.00 | 0.00 | 0.00 | 64 | 1018.2 |
| 20260831184033 | 27 | 253 | 1.6 | 4.8 | 0.00 | 0.00 | 0.00 | 67 | 1018.2 |
| 20260831183933 | 27 | 251 | 1.6 | 4.8 | 0.00 | 0.00 | 0.00 | 68 | 1018.2 |
| 20260831183851 | 27 | 253 | 0.0 | 4.8 | 0.00 | 0.00 | 0.00 | 69 | 1018.2 |
| 20260831183730 | 27 | 251 | 0.0 | 4.8 | 0.00 | 0.00 | 0.00 | 70 | 1018.2 |
| 20260831183633 | 27 | 253 | 1.6 | 4.8 | 0.00 | 0.00 | 0.00 | 70 | 1018.2 |
| 20260831183552 | 27 | 253 | 3.2 | 4.8 | 0.00 | 0.00 | 0.00 | 69 | 1018.2 |
| 20260831183429 | 27 | 253 | 1.6 | 3.2 | 0.00 | 0.00 | 0.00 | 69 | 1018.2 |
| 20260831183327 | 27 | 253 | 0.0 | 4.8 | 0.00 | 0.00 | 0.00 | 69 | 1018.2 |
| 20260831183226 | 27 | 253 | 0.0 | 4.8 | 0.00 | 0.00 | 0.00 | 69 | 1018.2 |
| 20260831183157 | 27 | 253 | 0.0 | 4.8 | 0.00 | 0.00 | 0.00 | 69 | 1018.2 |
| 20260831183054 | 27 | 253 | 0.0 | 4.8 | 0.00 | 0.00 | 0.00 | 68 | 1018.2 |
| 20260831182931 | 27 | 247 | 1.6 | 4.8 | 0.00 | 0.00 | 0.00 | 68 | 1018.2 |
| 20260831182833 | 27 | 251 | 3.2 | 4.8 | 0.00 | 0.00 | 0.00 | 68 | 1018.2 |
| 20260831182733 | 27 | 251 | 1.6 | 4.8 | 0.00 | 0.00 | 0.00 | 68 | 1018.2 |
| 20260831182631 | 27 | 253 | 1.6 | 4.8 | 0.00 | 0.00 | 0.00 | 67 | 1018.2 |
| 20260831182529 | 27 | 253 | 3.2 | 4.8 | 0.00 | 0.00 | 0.00 | 67 | 1018.2 |
| 20260831182427 | 27 | 253 | 3.2 | 4.8 | 0.00 | 0.00 | 0.00 | 67 | 1018.2 |
| 20260831182326 | 27 | 251 | 1.6 | 4.8 | 0.00 | 0.00 | 0.00 | 66 | 1018.2 |
| 20260831182230 | 27 | 253 | 3.2 | 4.8 | 0.00 | 0.00 | 0.00 | 67 | 1018.2 |
| 20260831182130 | 27 | 250 | 3.2 | 4.8 | 0.00 | 0.00 | 0.00 | 67 | 1018.2 |
| 20260831182028 | 27 | 250 | 1.6 | 3.2 | 0.00 | 0.00 | 0.00 | 67 | 1018.2 |
| 20260831181926 | 27 | 253 | 1.6 | 3.2 | 0.00 | 0.00 | 0.00 | 68 | 1018.2 |
| 20260831181846 | 27 | 253 | 0.0 | 3.2 | 0.00 | 0.00 | 0.00 | 67 | 1018.2 |
| 20260831181738 | 27 | 251 | 1.6 | 3.2 | 0.00 | 0.00 | 0.00 | 68 | 1018.2 |
| 20260831181648 | 27 | 253 | 0.0 | 3.2 | 0.00 | 0.00 | 0.00 | 68 | 1018.2 |
| 20260831181525 | 27 | 253 | 0.0 | 3.2 | 0.00 | 0.00 | 0.00 | 68 | 1018.2 |
| 20260831181445 | 27 | 250 | 0.0 | 3.2 | 0.00 | 0.00 | 0.00 | 68 | 1018.2 |
| 20260831181347 | 27 | 253 | 0.0 | 4.8 | 0.00 | 0.00 | 0.00 | 68 | 1018.2 |
| 20260831181244 | 27 | 248 | 0.0 | 4.8 | 0.00 | 0.00 | 0.00 | 68 | 1018.4 |
| 20260831181204 | 27 | 253 | 1.6 | 4.8 | 0.00 | 0.00 | 0.00 | 68 | 1018.4 |
| 20260831181102 | 27 | 250 | 1.6 | 4.8 | 0.00 | 0.00 | 0.00 | 68 | 1018.4 |
| 20260831180940 | 27 | 251 | 1.6 | 4.8 | 0.00 | 0.00 | 0.00 | 68 | 1018.4 |
| 20260831180839 | 27 | 251 | 1.6 | 4.8 | 0.00 | 0.00 | 0.00 | 68 | 1018.4 |
| 20260831180736 | 27 | 253 | 0.0 | 4.8 | 0.00 | 0.00 | 0.00 | 67 | 1018.4 |
| 20260831180635 | 27 | 251 | 0.0 | 4.8 | 0.00 | 0.00 | 0.00 | 68 | 1018.4 |
| 20260831180554 | 27 | 253 | 3.2 | 4.8 | 0.00 | 0.00 | 0.00 | 68 | 1018.4 |
| 20260831180436 | 27 | 251 | 1.6 | 3.2 | 0.00 | 0.00 | 0.00 | 68 | 1018.4 |
| 20260831180355 | 27 | 251 | 0.0 | 3.2 | 0.00 | 0.00 | 0.00 | 68 | 1018.4 |
| 20260831180234 | 27 | 251 | 0.0 | 3.2 | 0.00 | 0.00 | 0.00 | 67 | 1018.4 |
| 20260831180204 | 27 | 250 | 1.6 | 3.2 | 0.00 | 0.00 | 0.00 | 67 | 1018.4 |
| 20260831180042 | 27 | 251 | 0.0 | 1.6 | 0.00 | 0.00 | 0.00 | 67 | 1018.4 |
| 20260831175939 | 27 | 250 | 0.0 | 1.6 | 0.00 | 0.00 | 0.00 | 66 | 1018.4 |
| 20260831175839 | 27 | 250 | 0.0 | 1.6 | 0.00 | 0.00 | 0.00 | 69 | 1018.4 |
| 20260831175738 | 27 | 248 | 0.0 | 1.6 | 0.00 | 0.00 | 0.00 | 68 | 1018.7 |
| 20260831175641 | 27 | 251 | 0.0 | 1.6 | 0.00 | 0.00 | 0.00 | 68 | 1018.7 |
| 20260831175541 | 27 | 251 | 0.0 | 0.0 | 0.00 | 0.00 | 0.00 | 68 | 1018.7 |
| 20260831175440 | 27 | 250 | 0.0 | 0.0 | 0.00 | 0.00 | 0.00 | 68 | 1018.7 |
| 20260831175340 | 27 | 253 | 0.0 | 0.0 | 0.00 | 0.00 | 0.00 | 68 | 1018.7 |
| 20260831175238 | 27 | 253 | 0.0 | 0.0 | 0.00 | 0.00 | 0.00 | 67 | 1018.7 |
| 20260831175136 | 27 | 253 | 0.0 | 0.0 | 0.00 | 0.00 | 0.00 | 68 | 1018.7 |
| 20260831175034 | 27 | 250 | 0.0 | 0.0 | 0.00 | 0.00 | 0.00 | 68 | 1018.7 |
| 20260831174937 | 27 | 253 | 0.0 | 0.0 | 0.00 | 0.00 | 0.00 | 68 | 1018.7 |
| 20260831174836 | 27 | 253 | 0.0 | 0.0 | 0.00 | 0.00 | 0.00 | 69 | 1018.7 |
| 20260831174733 | 27 | 251 | 0.0 | 0.0 | 0.00 | 0.00 | 0.00 | 70 | 1018.7 |
| 20260831174704 | 27 | 253 | 0.0 | 0.0 | 0.00 | 0.00 | 0.00 | 71 | 1018.7 |
| 20260831174542 | 27 | 253 | 0.0 | 1.6 | 0.00 | 0.00 | 0.00 | 72 | 1018.7 |
| 20260831174501 | 27 | 251 | 0.0 | 3.2 | 0.00 | 0.00 | 0.00 | 72 | 1018.7 |
| 20260831174339 | 27 | 253 | 0.0 | 3.2 | 0.00 | 0.00 | 0.00 | 71 | 1018.7 |
| 20260831174237 | 27 | 248 | 0.0 | 3.2 | 0.00 | 0.00 | 0.00 | 71 | 1018.8 |
| 20260831174140 | 27 | 251 | 0.0 | 3.2 | 0.00 | 0.00 | 0.00 | 71 | 1018.8 |
| 20260831174039 | 27 | 251 | 0.0 | 3.2 | 0.00 | 0.00 | 0.00 | 71 | 1018.8 |
| 20260831173938 | 27 | 253 | 0.0 | 3.2 | 0.00 | 0.00 | 0.00 | 71 | 1018.8 |
| 20260831173837 | 27 | 253 | 0.0 | 3.2 | 0.00 | 0.00 | 0.00 | 70 | 1018.8 |
| 20260831173737 | 27 | 253 | 1.6 | 3.2 | 0.00 | 0.00 | 0.00 | 68 | 1018.8 |
| 20260831173635 | 27 | 253 | 1.6 | 3.2 | 0.00 | 0.00 | 0.00 | 68 | 1018.8 |
| 20260831173537 | 27 | 251 | 1.6 | 3.2 | 0.00 | 0.00 | 0.00 | 71 | 1018.8 |
| 20260831173455 | 27 | 253 | 0.0 | 0.0 | 0.00 | 0.00 | 0.00 | 72 | 1018.8 |
| 20260831173353 | 27 | 251 | 0.0 | 0.0 | 0.00 | 0.00 | 0.00 | 72 | 1018.8 |
| 20260831173312 | 27 | 250 | 0.0 | 1.6 | 0.00 | 0.00 | 0.00 | 72 | 1018.8 |
| 20260831173200 | 27 | 253 | 0.0 | 1.6 | 0.00 | 0.00 | 0.00 | 72 | 1018.8 |
| 20260831173041 | 27 | 251 | 0.0 | 1.6 | 0.00 | 0.00 | 0.00 | 71 | 1018.8 |
| 20260831172941 | 27 | 253 | 0.0 | 1.6 | 0.00 | 0.00 | 0.00 | 71 | 1018.8 |
| 20260831172840 | 27 | 253 | 0.0 | 1.6 | 0.00 | 0.00 | 0.00 | 71 | 1018.8 |
| 20260831172738 | 27 | 251 | 0.0 | 1.6 | 0.00 | 0.00 | 0.00 | 71 | 1018.9 |
| 20260831172701 | 27 | 251 | 0.0 | 1.6 | 0.00 | 0.00 | 0.00 | 71 | 1018.9 |
| 20260831172540 | 27 | 253 | 0.0 | 1.6 | 0.00 | 0.00 | 0.00 | 71 | 1018.9 |
| 20260831172438 | 27 | 250 | 0.0 | 3.2 | 0.00 | 0.00 | 0.00 | 71 | 1018.9 |
| 20260831172358 | 27 | 247 | 0.0 | 3.2 | 0.00 | 0.00 | 0.00 | 71 | 1018.9 |
| 20260831172235 | 27 | 253 | 0.0 | 3.2 | 0.00 | 0.00 | 0.00 | 71 | 1018.9 |
| 20260831172134 | 27 | 251 | 0.0 | 3.2 | 0.00 | 0.00 | 0.00 | 71 | 1018.9 |
| 20260831172033 | 27 | 253 | 0.0 | 3.2 | 0.00 | 0.00 | 0.00 | 70 | 1018.9 |
| 20260831171951 | 27 | 253 | 0.0 | 4.8 | 0.00 | 0.00 | 0.00 | 71 | 1018.9 |
| 20260831171832 | 27 | 247 | 1.6 | 4.8 | 0.00 | 0.00 | 0.00 | 71 | 1018.9 |
| 20260831171751 | 27 | 250 | 1.6 | 4.8 | 0.00 | 0.00 | 0.00 | 71 | 1018.9 |
| 20260831171701 | 27 | 251 | 1.6 | 4.8 | 0.00 | 0.00 | 0.00 | 71 | 1018.9 |
| 20260831171540 | 27 | 253 | 1.6 | 4.8 | 0.00 | 0.00 | 0.00 | 70 | 1018.9 |
| 20260831171439 | 27 | 248 | 0.0 | 4.8 | 0.00 | 0.00 | 0.00 | 70 | 1018.9 |
| 20260831171337 | 27 | 253 | 0.0 | 4.8 | 0.00 | 0.00 | 0.00 | 70 | 1018.9 |
| 20260831171235 | 27 | 253 | 1.6 | 4.8 | 0.00 | 0.00 | 0.00 | 70 | 1019.0 |
| 20260831171133 | 27 | 251 | 1.6 | 4.8 | 0.00 | 0.00 | 0.00 | 70 | 1019.0 |
| 20260831171037 | 27 | 251 | 3.2 | 4.8 | 0.00 | 0.00 | 0.00 | 71 | 1019.0 |
| 20260831170956 | 27 | 251 | 1.6 | 4.8 | 0.00 | 0.00 | 0.00 | 70 | 1019.0 |
| 20260831170832 | 27 | 251 | 1.6 | 4.8 | 0.00 | 0.00 | 0.00 | 71 | 1019.0 |
| 20260831170731 | 27 | 253 | 3.2 | 4.8 | 0.00 | 0.00 | 0.00 | 71 | 1019.0 |
| 20260831170631 | 27 | 250 | 3.2 | 4.8 | 0.00 | 0.00 | 0.00 | 71 | 1019.0 |
| 20260831170529 | 27 | 250 | 3.2 | 8.0 | 0.00 | 0.00 | 0.00 | 70 | 1019.0 |
| 20260831170427 | 27 | 250 | 1.6 | 9.7 | 0.00 | 0.00 | 0.00 | 70 | 1019.0 |
| 20260831170331 | 27 | 250 | 0.0 | 9.7 | 0.00 | 0.00 | 0.00 | 70 | 1019.0 |
| 20260831170241 | 27 | 250 | 0.0 | 9.7 | 0.00 | 0.00 | 0.00 | 70 | 1019.0 |
| 20260831170153 | 27 | 246 | 0.0 | 9.7 | 0.00 | 0.00 | 0.00 | 70 | 1019.0 |
| 20260831170029 | 27 | 248 | 0.0 | 9.7 | 0.00 | 0.00 | 0.00 | 70 | 1019.0 |
| 20260831165929 | 27 | 250 | 1.6 | 9.7 | 0.00 | 0.00 | 0.00 | 72 | 1019.0 |
| 20260831165829 | 27 | 247 | 0.0 | 9.7 | 0.00 | 0.00 | 0.00 | 72 | 1019.0 |
| 20260831165727 | 27 | 250 | 3.2 | 9.7 | 0.00 | 0.00 | 0.00 | 71 | 1019.1 |
| 20260831165631 | 27 | 250 | 6.4 | 9.7 | 0.00 | 0.00 | 0.00 | 71 | 1019.1 |
| 20260831165530 | 27 | 250 | 3.2 | 4.8 | 0.00 | 0.00 | 0.00 | 71 | 1019.1 |
| 20260831165430 | 27 | 248 | 1.6 | 4.8 | 0.00 | 0.00 | 0.00 | 70 | 1019.1 |
| 20260831165328 | 27 | 248 | 0.0 | 4.8 | 0.00 | 0.00 | 0.00 | 70 | 1019.1 |
| 20260831165246 | 27 | 244 | 0.0 | 4.8 | 0.00 | 0.00 | 0.00 | 70 | 1019.1 |
| 20260831165204 | 27 | 250 | 1.6 | 4.8 | 0.00 | 0.00 | 0.00 | 70 | 1019.1 |
| 20260831165043 | 27 | 248 | 3.2 | 4.8 | 0.00 | 0.00 | 0.00 | 70 | 1019.1 |
| 20260831164927 | 27 | 248 | 1.6 | 8.0 | 0.00 | 0.00 | 0.00 | 71 | 1019.1 |
| 20260831164830 | 27 | 250 | 3.2 | 8.0 | 0.00 | 0.00 | 0.00 | 71 | 1019.1 |
| 20260831164740 | 27 | 250 | 1.6 | 11.3 | 0.00 | 0.00 | 0.00 | 70 | 1019.1 |
| 20260831164649 | 27 | 248 | 3.2 | 11.3 | 0.00 | 0.00 | 0.00 | 70 | 1019.1 |
| 20260831164529 | 27 | 250 | 0.0 | 11.3 | 0.00 | 0.00 | 0.00 | 71 | 1019.1 |
| 20260831164427 | 27 | 250 | 0.0 | 11.3 | 0.00 | 0.00 | 0.00 | 71 | 1019.1 |
| 20260831164327 | 27 | 250 | 0.0 | 11.3 | 0.00 | 0.00 | 0.00 | 71 | 1019.1 |
| 20260831164247 | 27 | 247 | 3.2 | 11.3 | 0.00 | 0.00 | 0.00 | 70 | 1019.2 |
| 20260831164128 | 27 | 251 | 4.8 | 11.3 | 0.00 | 0.00 | 0.00 | 70 | 1019.2 |
| 20260831164047 | 27 | 247 | 3.2 | 11.3 | 0.00 | 0.00 | 0.00 | 71 | 1019.2 |
| 20260831163944 | 27 | 247 | 6.4 | 11.3 | 0.00 | 0.00 | 0.00 | 71 | 1019.2 |
| 20260831163842 | 27 | 246 | 6.4 | 11.3 | 0.00 | 0.00 | 0.00 | 69 | 1019.2 |
| 20260831163800 | 26 | 229 | 1.6 | 9.7 | 0.00 | 0.00 | 0.00 | 69 | 1019.2 |
| 20260831163638 | 26 | 232 | 0.0 | 9.7 | 0.00 | 0.00 | 0.00 | 69 | 1019.2 |
| 20260831163537 | 26 | 232 | 1.6 | 9.7 | 0.00 | 0.00 | 0.00 | 69 | 1019.2 |
| 20260831163435 | 26 | 229 | 0.0 | 9.7 | 0.00 | 0.00 | 0.00 | 69 | 1019.2 |
| 20260831163355 | 26 | 226 | 0.0 | 12.9 | 0.00 | 0.00 | 0.00 | 70 | 1019.2 |
| 20260831163237 | 26 | 224 | 0.0 | 12.9 | 0.00 | 0.00 | 0.00 | 70 | 1019.2 |
| 20260831163207 | 26 | 226 | 3.2 | 12.9 | 0.00 | 0.00 | 0.00 | 70 | 1019.2 |
| 20260831163104 | 26 | 224 | 6.4 | 12.9 | 0.00 | 0.00 | 0.00 | 71 | 1019.2 |
| 20260831162941 | 26 | 215 | 3.2 | 12.9 | 0.00 | 0.00 | 0.00 | 71 | 1019.2 |
| 20260831162900 | 26 | 215 | 1.6 | 12.9 | 0.00 | 0.00 | 0.00 | 72 | 1019.2 |
| 20260831162758 | 26 | 213 | 3.2 | 12.9 | 0.00 | 0.00 | 0.00 | 72 | 1019.2 |
| 20260831162635 | 26 | 215 | 4.8 | 12.9 | 0.00 | 0.00 | 0.00 | 72 | 1019.2 |
| 20260831162535 | 26 | 213 | 6.4 | 12.9 | 0.00 | 0.00 | 0.00 | 72 | 1019.2 |
| 20260831162436 | 26 | 215 | 8.0 | 12.9 | 0.00 | 0.00 | 0.00 | 72 | 1019.2 |
| 20260831162354 | 26 | 227 | 4.8 | 11.3 | 0.00 | 0.00 | 0.00 | 72 | 1019.2 |
| 20260831162234 | 26 | 227 | 4.8 | 11.3 | 0.00 | 0.00 | 0.00 | 72 | 1019.2 |
| 20260831162133 | 26 | 233 | 6.4 | 11.3 | 0.00 | 0.00 | 0.00 | 73 | 1019.2 |
| 20260831162033 | 26 | 243 | 1.6 | 4.8 | 0.00 | 0.00 | 0.00 | 73 | 1019.2 |
| 20260831161932 | 26 | 244 | 1.6 | 4.8 | 0.00 | 0.00 | 0.00 | 72 | 1019.2 |
| 20260831161830 | 26 | 243 | 1.6 | 4.8 | 0.00 | 0.00 | 0.00 | 72 | 1019.2 |
| 20260831161733 | 26 | 241 | 0.0 | 4.8 | 0.00 | 0.00 | 0.00 | 73 | 1019.2 |
| 20260831161703 | 26 | 244 | 0.0 | 8.0 | 0.00 | 0.00 | 0.00 | 73 | 1019.2 |
| 20260831161541 | 27 | 244 | 0.0 | 9.7 | 0.00 | 0.00 | 0.00 | 73 | 1019.2 |
| 20260831161440 | 27 | 244 | 1.6 | 9.7 | 0.00 | 0.00 | 0.00 | 72 | 1019.2 |
| 20260831161338 | 27 | 244 | 3.2 | 9.7 | 0.00 | 0.00 | 0.00 | 72 | 1019.2 |
| 20260831161258 | 27 | 244 | 4.8 | 9.7 | 0.00 | 0.00 | 0.00 | 72 | 1019.2 |
| 20260831161156 | 27 | 241 | 3.2 | 9.7 | 0.00 | 0.00 | 0.00 | 71 | 1019.2 |
| 20260831161033 | 27 | 243 | 3.2 | 9.7 | 0.00 | 0.00 | 0.00 | 71 | 1019.2 |
| 20260831160953 | 27 | 239 | 3.2 | 9.7 | 0.00 | 0.00 | 0.00 | 72 | 1019.2 |
| 20260831160835 | 27 | 240 | 3.2 | 9.7 | 0.00 | 0.00 | 0.00 | 71 | 1019.2 |
| 20260831160732 | 27 | 237 | 6.4 | 9.7 | 0.00 | 0.00 | 0.00 | 71 | 1019.2 |
| 20260831160632 | 27 | 240 | 6.4 | 9.7 | 0.00 | 0.00 | 0.00 | 71 | 1019.2 |
| 20260831160530 | 27 | 240 | 4.8 | 9.7 | 0.00 | 0.00 | 0.00 | 71 | 1019.2 |
| 20260831160449 | 27 | 236 | 4.8 | 9.7 | 0.00 | 0.00 | 0.00 | 71 | 1019.2 |
| 20260831160326 | 27 | 232 | 1.6 | 9.7 | 0.00 | 0.00 | 0.00 | 71 | 1019.2 |
| 20260831160225 | 27 | 229 | 1.6 | 9.7 | 0.00 | 0.00 | 0.00 | 71 | 1019.2 |
| 20260831160200 | 27 | 229 | 1.6 | 11.3 | 0.00 | 0.00 | 0.00 | 71 | 1019.2 |
| 20260831160040 | 27 | 229 | 4.8 | 11.3 | 0.00 | 0.00 | 0.00 | 71 | 1019.2 |
| 20260831155938 | 27 | 229 | 6.4 | 11.3 | 0.00 | 0.00 | 0.00 | 71 | 1019.2 |
| 20260831155835 | 27 | 206 | 1.6 | 11.3 | 0.00 | 0.00 | 0.00 | 71 | 1019.2 |
| 20260831155735 | 27 | 205 | 1.6 | 11.3 | 0.00 | 0.00 | 0.00 | 71 | 1019.2 |
| 20260831155636 | 27 | 205 | 3.2 | 11.3 | 0.00 | 0.00 | 0.00 | 72 | 1019.2 |
| 20260831155555 | 27 | 206 | 1.6 | 11.3 | 0.00 | 0.00 | 0.00 | 72 | 1019.2 |
| 20260831155437 | 27 | 206 | 4.8 | 11.3 | 0.00 | 0.00 | 0.00 | 72 | 1019.2 |
| 20260831155339 | 27 | 202 | 9.7 | 11.3 | 0.00 | 0.00 | 0.00 | 73 | 1019.2 |
| 20260831155259 | 27 | 234 | 6.4 | 11.3 | 0.00 | 0.00 | 0.00 | 73 | 1019.2 |
| 20260831155136 | 27 | 261 | 0.0 | 8.0 | 0.00 | 0.00 | 0.00 | 72 | 1019.2 |
| 20260831155034 | 27 | 263 | 0.0 | 6.4 | 0.00 | 0.00 | 0.00 | 73 | 1019.2 |
| 20260831154932 | 27 | 264 | 3.2 | 6.4 | 0.00 | 0.00 | 0.00 | 73 | 1019.2 |
| 20260831154830 | 27 | 265 | 3.2 | 8.0 | 0.00 | 0.00 | 0.00 | 73 | 1019.2 |
| 20260831154749 | 27 | 263 | 1.6 | 9.7 | 0.00 | 0.00 | 0.00 | 72 | 1019.2 |
| 20260831154657 | 27 | 265 | 1.6 | 9.7 | 0.00 | 0.00 | 0.00 | 72 | 1019.2 |
| 20260831154523 | 27 | 265 | 0.0 | 11.3 | 0.00 | 0.00 | 0.00 | 72 | 1019.2 |
| 20260831154442 | 27 | 263 | 1.6 | 11.3 | 0.00 | 0.00 | 0.00 | 72 | 1019.2 |
| 20260831154341 | 27 | 260 | 3.2 | 11.3 | 0.00 | 0.00 | 0.00 | 72 | 1019.2 |
| 20260831154237 | 27 | 261 | 4.8 | 11.3 | 0.00 | 0.00 | 0.00 | 72 | 1019.3 |
| 20260831154135 | 27 | 251 | 1.6 | 11.3 | 0.00 | 0.00 | 0.00 | 72 | 1019.3 |
| 20260831154032 | 27 | 248 | 3.2 | 11.3 | 0.00 | 0.00 | 0.00 | 72 | 1019.3 |
| 20260831153930 | 27 | 230 | 3.2 | 11.3 | 0.00 | 0.00 | 0.00 | 73 | 1019.3 |
| 20260831153835 | 27 | 230 | 6.4 | 12.9 | 0.00 | 0.00 | 0.00 | 73 | 1019.3 |
| 20260831153736 | 27 | 224 | 6.4 | 12.9 | 0.00 | 0.00 | 0.00 | 73 | 1019.3 |
| 20260831153655 | 27 | 230 | 8.0 | 12.9 | 0.00 | 0.00 | 0.00 | 72 | 1019.3 |
| 20260831153552 | 27 | 246 | 1.6 | 12.9 | 0.00 | 0.00 | 0.00 | 72 | 1019.3 |
| 20260831153430 | 26 | 251 | 4.8 | 12.9 | 0.00 | 0.00 | 0.00 | 72 | 1019.3 |
| 20260831153327 | 26 | 250 | 6.4 | 12.9 | 0.00 | 0.00 | 0.00 | 73 | 1019.3 |
| 20260831153224 | 26 | 241 | 3.2 | 12.9 | 0.00 | 0.00 | 0.00 | 73 | 1019.3 |
| 20260831153155 | 26 | 241 | 4.8 | 12.9 | 0.00 | 0.00 | 0.00 | 74 | 1019.3 |
| 20260831153032 | 26 | 232 | 8.0 | 12.9 | 0.00 | 0.00 | 0.00 | 74 | 1019.3 |
| 20260831152937 | 26 | 222 | 8.0 | 12.9 | 0.00 | 0.00 | 0.00 | 74 | 1019.3 |
| 20260831152836 | 26 | 271 | 1.6 | 11.3 | 0.00 | 0.00 | 0.00 | 73 | 1019.3 |
| 20260831152735 | 26 | 272 | 1.6 | 14.5 | 0.00 | 0.00 | 0.00 | 74 | 1019.3 |
| 20260831152634 | 26 | 253 | 3.2 | 16.1 | 0.00 | 0.00 | 0.00 | 74 | 1019.3 |
| 20260831152532 | 26 | 250 | 4.8 | 16.1 | 0.00 | 0.00 | 0.00 | 74 | 1019.3 |
| 20260831152435 | 26 | 251 | 6.4 | 16.1 | 0.00 | 0.00 | 0.00 | 74 | 1019.3 |
| 20260831152334 | 26 | 251 | 4.8 | 16.1 | 0.00 | 0.00 | 0.00 | 75 | 1019.3 |
| 20260831152237 | 26 | 251 | 4.8 | 16.1 | 0.00 | 0.00 | 0.00 | 75 | 1019.3 |
| 20260831152135 | 26 | 277 | 3.2 | 16.1 | 0.00 | 0.00 | 0.00 | 74 | 1019.3 |
| 20260831152053 | 26 | 257 | 4.8 | 16.1 | 0.00 | 0.00 | 0.00 | 74 | 1019.3 |
| 20260831151930 | 26 | 230 | 3.2 | 16.1 | 0.00 | 0.00 | 0.00 | 74 | 1019.3 |
| 20260831151829 | 26 | 216 | 6.4 | 16.1 | 0.00 | 0.00 | 0.00 | 75 | 1019.3 |
| 20260831151727 | 26 | 250 | 1.6 | 12.9 | 0.00 | 0.00 | 0.00 | 76 | 1019.3 |
| 20260831151657 | 26 | 251 | 4.8 | 12.9 | 0.00 | 0.00 | 0.00 | 75 | 1019.3 |
| 20260831151535 | 26 | 248 | 6.4 | 12.9 | 0.00 | 0.00 | 0.00 | 75 | 1019.3 |
| 20260831151438 | 26 | 239 | 1.6 | 16.1 | 0.00 | 0.00 | 0.00 | 76 | 1019.3 |
| 20260831151336 | 26 | 239 | 4.8 | 16.1 | 0.00 | 0.00 | 0.00 | 77 | 1019.3 |
| 20260831151255 | 26 | 240 | 9.7 | 16.1 | 0.00 | 0.00 | 0.00 | 77 | 1019.2 |
| 20260831151132 | 26 | 248 | 6.4 | 16.1 | 0.00 | 0.00 | 0.00 | 77 | 1019.2 |
| 20260831151030 | 26 | 257 | 6.4 | 16.1 | 0.00 | 0.00 | 0.00 | 77 | 1019.2 |
| 20260831150951 | 26 | 260 | 3.2 | 16.1 | 0.00 | 0.00 | 0.00 | 77 | 1019.2 |
| 20260831150829 | 26 | 258 | 3.2 | 16.1 | 0.00 | 0.00 | 0.00 | 77 | 1019.2 |
| 20260831150732 | 26 | 232 | 6.4 | 16.1 | 0.00 | 0.00 | 0.00 | 77 | 1019.2 |
| 20260831150632 | 26 | 230 | 9.7 | 16.1 | 0.00 | 0.00 | 0.00 | 78 | 1019.2 |
| 20260831150530 | 26 | 233 | 6.4 | 12.9 | 0.00 | 0.00 | 0.00 | 78 | 1019.2 |
| 20260831150453 | 26 | 241 | 8.0 | 12.9 | 0.00 | 0.00 | 0.00 | 78 | 1019.2 |
| 20260831150330 | 25 | 240 | 9.7 | 12.9 | 0.00 | 0.00 | 0.00 | 78 | 1019.2 |
| 20260831150251 | 25 | 236 | 9.7 | 12.9 | 0.00 | 0.00 | 0.00 | 78 | 1019.2 |
| 20260831150220 | 25 | 248 | 8.0 | 12.9 | 0.00 | 0.00 | 0.00 | 79 | 1019.2 |
| 20260831150038 | 25 | 217 | 1.6 | 8.0 | 0.00 | 0.00 | 0.00 | 79 | 1019.2 |
| 20260831145942 | 25 | 209 | 1.6 | 8.0 | 0.00 | 0.00 | 0.00 | 79 | 1019.2 |
| 20260831145901 | 25 | 203 | 4.8 | 9.7 | 0.00 | 0.00 | 0.00 | 80 | 1019.2 |
| 20260831145758 | 25 | 237 | 3.2 | 9.7 | 0.00 | 0.00 | 0.00 | 80 | 1019.3 |
| 20260831145655 | 25 | 236 | 4.8 | 9.7 | 0.00 | 0.00 | 0.00 | 80 | 1019.3 |
| 20260831145531 | 25 | 237 | 3.2 | 9.7 | 0.00 | 0.00 | 0.00 | 80 | 1019.3 |
| 20260831145450 | 25 | 232 | 3.2 | 9.7 | 0.00 | 0.00 | 0.00 | 80 | 1019.3 |
| 20260831145348 | 25 | 239 | 4.8 | 9.7 | 0.00 | 0.00 | 0.00 | 80 | 1019.3 |
| 20260831145227 | 25 | 236 | 3.2 | 9.7 | 0.00 | 0.00 | 0.00 | 80 | 1019.3 |
| 20260831145126 | 25 | 239 | 1.6 | 9.7 | 0.00 | 0.00 | 0.00 | 80 | 1019.3 |
| 20260831145024 | 25 | 239 | 4.8 | 9.7 | 0.00 | 0.00 | 0.00 | 80 | 1019.3 |
| 20260831144927 | 25 | 158 | 0.0 | 9.7 | 0.00 | 0.00 | 0.00 | 80 | 1019.3 |
| 20260831144828 | 25 | 160 | 0.0 | 9.7 | 0.00 | 0.00 | 0.00 | 80 | 1019.3 |
| 20260831144739 | 25 | 158 | 6.4 | 9.7 | 0.00 | 0.00 | 0.00 | 80 | 1019.3 |
| 20260831144646 | 25 | 157 | 3.2 | 6.4 | 0.00 | 0.00 | 0.00 | 80 | 1019.3 |
| 20260831144544 | 25 | 154 | 1.6 | 6.4 | 0.00 | 0.00 | 0.00 | 80 | 1019.3 |
| 20260831144444 | 25 | 151 | 0.0 | 9.7 | 0.00 | 0.00 | 0.00 | 80 | 1019.3 |
| 20260831144342 | 25 | 150 | 0.0 | 11.3 | 0.00 | 0.00 | 0.00 | 80 | 1019.3 |
| 20260831144239 | 25 | 148 | 0.0 | 11.3 | 0.00 | 0.00 | 0.00 | 80 | 1019.3 |
| 20260831144142 | 25 | 150 | 0.0 | 11.3 | 0.00 | 0.00 | 0.00 | 80 | 1019.3 |
| 20260831144042 | 25 | 148 | 1.6 | 11.3 | 0.00 | 0.00 | 0.00 | 80 | 1019.3 |
| 20260831143941 | 25 | 150 | 1.6 | 11.3 | 0.00 | 0.00 | 0.00 | 80 | 1019.3 |
| 20260831143839 | 25 | 147 | 3.2 | 11.3 | 0.00 | 0.00 | 0.00 | 80 | 1019.3 |
| 20260831143737 | 25 | 145 | 3.2 | 11.3 | 0.00 | 0.00 | 0.00 | 80 | 1019.3 |
| 20260831143657 | 25 | 143 | 6.4 | 11.3 | 0.00 | 0.00 | 0.00 | 80 | 1019.3 |
| 20260831143535 | 25 | 137 | 4.8 | 11.3 | 0.00 | 0.00 | 0.00 | 80 | 1019.3 |
| 20260831143435 | 25 | 140 | 6.4 | 11.3 | 0.00 | 0.00 | 0.00 | 80 | 1019.3 |
| 20260831143334 | 25 | 106 | 1.6 | 9.7 | 0.00 | 0.00 | 0.00 | 80 | 1019.3 |
| 20260831143235 | 25 | 178 | 1.6 | 9.7 | 0.00 | 0.00 | 0.00 | 80 | 1019.3 |
| 20260831143205 | 25 | 176 | 3.2 | 9.7 | 0.00 | 0.00 | 0.00 | 80 | 1019.3 |
| 20260831143105 | 25 | 178 | 1.6 | 9.7 | 0.00 | 0.00 | 0.00 | 80 | 1019.3 |
| 20260831143002 | 25 | 175 | 1.6 | 9.7 | 0.00 | 0.00 | 0.00 | 80 | 1019.3 |
| 20260831142900 | 25 | 175 | 0.0 | 9.7 | 0.00 | 0.00 | 0.00 | 79 | 1019.3 |
| 20260831142738 | 25 | 174 | 0.0 | 9.7 | 0.00 | 0.00 | 0.00 | 79 | 1019.3 |
| 20260831142636 | 25 | 176 | 3.2 | 9.7 | 0.00 | 0.00 | 0.00 | 79 | 1019.3 |
| 20260831142536 | 25 | 175 | 3.2 | 9.7 | 0.00 | 0.00 | 0.00 | 79 | 1019.3 |
| 20260831142438 | 25 | 168 | 4.8 | 9.7 | 0.00 | 0.00 | 0.00 | 79 | 1019.3 |
| 20260831142338 | 25 | 169 | 3.2 | 9.7 | 0.00 | 0.00 | 0.00 | 80 | 1019.3 |
| 20260831142256 | 25 | 165 | 3.2 | 9.7 | 0.00 | 0.00 | 0.00 | 79 | 1019.3 |
| 20260831142133 | 25 | 158 | 1.6 | 9.7 | 0.00 | 0.00 | 0.00 | 79 | 1019.3 |
| 20260831142051 | 25 | 164 | 3.2 | 9.7 | 0.00 | 0.00 | 0.00 | 79 | 1019.3 |
| 20260831141928 | 25 | 152 | 1.6 | 9.7 | 0.00 | 0.00 | 0.00 | 80 | 1019.3 |
| 20260831141827 | 25 | 151 | 3.2 | 11.3 | 0.00 | 0.00 | 0.00 | 80 | 1019.3 |
| 20260831141730 | 25 | 154 | 3.2 | 11.3 | 0.00 | 0.00 | 0.00 | 80 | 1019.3 |
| 20260831141659 | 25 | 152 | 3.2 | 11.3 | 0.00 | 0.00 | 0.00 | 80 | 1019.3 |
| 20260831141557 | 25 | 157 | 4.8 | 11.3 | 0.00 | 0.00 | 0.00 | 80 | 1019.3 |
| 20260831141435 | 25 | 152 | 8.0 | 11.3 | 0.00 | 0.00 | 0.00 | 80 | 1019.3 |
| 20260831141337 | 25 | 151 | 6.4 | 11.3 | 0.00 | 0.00 | 0.00 | 80 | 1019.3 |
| 20260831141235 | 25 | 133 | 3.2 | 12.9 | 0.00 | 0.00 | 0.00 | 79 | 1019.2 |
| 20260831141133 | 25 | 124 | 3.2 | 14.5 | 0.00 | 0.00 | 0.00 | 79 | 1019.2 |
| 20260831141033 | 25 | 117 | 4.8 | 14.5 | 0.00 | 0.00 | 0.00 | 80 | 1019.2 |
| 20260831140936 | 25 | 192 | 8.0 | 14.5 | 0.00 | 0.00 | 0.00 | 79 | 1019.2 |
| 20260831140836 | 25 | 185 | 4.8 | 14.5 | 0.00 | 0.00 | 0.00 | 79 | 1019.2 |
| 20260831140734 | 25 | 192 | 1.6 | 14.5 | 0.00 | 0.00 | 0.00 | 79 | 1019.2 |
| 20260831140632 | 25 | 192 | 4.8 | 14.5 | 0.00 | 0.00 | 0.00 | 79 | 1019.2 |
| 20260831140552 | 25 | 203 | 3.2 | 14.5 | 0.00 | 0.00 | 0.00 | 80 | 1019.2 |
| 20260831140451 | 25 | 230 | 1.6 | 14.5 | 0.00 | 0.00 | 0.00 | 80 | 1019.2 |
| 20260831140328 | 25 | 226 | 11.3 | 14.5 | 0.00 | 0.00 | 0.00 | 79 | 1019.2 |
| 20260831140236 | 25 | 219 | 8.0 | 12.9 | 0.00 | 0.00 | 0.00 | 79 | 1019.2 |
| 20260831140149 | 25 | 210 | 4.8 | 12.9 | 0.00 | 0.00 | 0.00 | 79 | 1019.2 |
| 20260831140025 | 25 | 178 | 3.2 | 12.9 | 0.00 | 0.00 | 0.00 | 79 | 1019.2 |
| 20260831135925 | 25 | 171 | 3.2 | 12.9 | 0.00 | 0.00 | 0.00 | 80 | 1019.2 |
| 20260831135843 | 25 | 167 | 4.8 | 12.9 | 0.00 | 0.00 | 0.00 | 80 | 1019.2 |
| 20260831135801 | 25 | 175 | 4.8 | 12.9 | 0.00 | 0.00 | 0.00 | 80 | 1019.2 |
| 20260831135639 | 25 | 157 | 4.8 | 12.9 | 0.00 | 0.00 | 0.00 | 80 | 1019.2 |
| 20260831135537 | 25 | 179 | 6.4 | 16.1 | 0.00 | 0.00 | 0.00 | 81 | 1019.2 |
| 20260831135437 | 25 | 202 | 8.0 | 16.1 | 0.00 | 0.00 | 0.00 | 81 | 1019.2 |
| 20260831135339 | 25 | 186 | 6.4 | 16.1 | 0.00 | 0.00 | 0.00 | 81 | 1019.2 |
| 20260831135238 | 25 | 192 | 4.8 | 16.1 | 0.00 | 0.00 | 0.00 | 81 | 1019.2 |
| 20260831135136 | 25 | 167 | 1.6 | 16.1 | 0.00 | 0.00 | 0.00 | 81 | 1019.2 |
| 20260831135054 | 25 | 158 | 6.4 | 16.1 | 0.00 | 0.00 | 0.00 | 81 | 1019.2 |
| 20260831134932 | 25 | 155 | 4.8 | 16.1 | 0.00 | 0.00 | 0.00 | 81 | 1019.2 |
| 20260831134832 | 25 | 140 | 4.8 | 16.1 | 0.00 | 0.00 | 0.00 | 81 | 1019.2 |
| 20260831134729 | 25 | 188 | 8.0 | 16.1 | 0.00 | 0.00 | 0.00 | 81 | 1019.2 |
| 20260831134700 | 25 | 186 | 6.4 | 16.1 | 0.00 | 0.00 | 0.00 | 81 | 1019.2 |
| 20260831134541 | 25 | 172 | 3.2 | 14.5 | 0.00 | 0.00 | 0.00 | 81 | 1019.2 |
| 20260831134440 | 25 | 172 | 4.8 | 14.5 | 0.00 | 0.00 | 0.00 | 81 | 1019.2 |
| 20260831134340 | 24 | 144 | 8.0 | 14.5 | 0.00 | 0.00 | 0.00 | 81 | 1019.2 |
| 20260831134239 | 24 | 162 | 6.4 | 14.5 | 0.00 | 0.00 | 0.00 | 81 | 1019.1 |
| 20260831134138 | 24 | 192 | 3.2 | 14.5 | 0.00 | 0.00 | 0.00 | 81 | 1019.1 |
| 20260831134039 | 24 | 169 | 1.6 | 9.7 | 0.00 | 0.00 | 0.00 | 81 | 1019.1 |
| 20260831133941 | 24 | 165 | 3.2 | 9.7 | 0.00 | 0.00 | 0.00 | 81 | 1019.1 |
| 20260831133839 | 24 | 167 | 4.8 | 9.7 | 0.00 | 0.00 | 0.00 | 81 | 1019.1 |
| 20260831133734 | 24 | 161 | 4.8 | 9.7 | 0.00 | 0.00 | 0.00 | 81 | 1019.1 |
| 20260831133653 | 24 | 164 | 4.8 | 9.7 | 0.00 | 0.00 | 0.00 | 81 | 1019.1 |
| 20260831133531 | 24 | 155 | 3.2 | 9.7 | 0.00 | 0.00 | 0.00 | 82 | 1019.1 |
| 20260831133430 | 24 | 154 | 4.8 | 9.7 | 0.00 | 0.00 | 0.00 | 81 | 1019.1 |
| 20260831133328 | 24 | 178 | 1.6 | 9.7 | 0.00 | 0.00 | 0.00 | 82 | 1019.1 |
| 20260831133246 | 24 | 181 | 1.6 | 9.7 | 0.00 | 0.00 | 0.00 | 82 | 1019.1 |
| 20260831133156 | 24 | 179 | 1.6 | 9.7 | 0.00 | 0.00 | 0.00 | 82 | 1019.1 |
| 20260831133036 | 24 | 179 | 4.8 | 9.7 | 0.00 | 0.00 | 0.00 | 82 | 1019.1 |
| 20260831132936 | 24 | 171 | 3.2 | 9.7 | 0.00 | 0.00 | 0.00 | 82 | 1019.1 |
| 20260831132833 | 24 | 172 | 1.6 | 9.7 | 0.00 | 0.00 | 0.00 | 82 | 1019.1 |
| 20260831132753 | 24 | 174 | 1.6 | 9.7 | 0.00 | 0.00 | 0.00 | 82 | 1019.0 |
| 20260831132630 | 24 | 174 | 4.8 | 9.7 | 0.00 | 0.00 | 0.00 | 82 | 1019.0 |
| 20260831132530 | 24 | 167 | 3.2 | 9.7 | 0.00 | 0.00 | 0.00 | 82 | 1019.0 |
| 20260831132429 | 24 | 161 | 1.6 | 9.7 | 0.00 | 0.00 | 0.00 | 82 | 1019.0 |
| 20260831132332 | 24 | 162 | 0.0 | 9.7 | 0.00 | 0.00 | 0.00 | 82 | 1019.0 |
| 20260831132232 | 24 | 162 | 0.0 | 9.7 | 0.00 | 0.00 | 0.00 | 82 | 1019.0 |
| 20260831132132 | 24 | 162 | 1.6 | 9.7 | 0.00 | 0.00 | 0.00 | 82 | 1019.0 |
| 20260831132030 | 24 | 161 | 3.2 | 9.7 | 0.00 | 0.00 | 0.00 | 82 | 1019.0 |
| 20260831131931 | 24 | 160 | 4.8 | 9.7 | 0.00 | 0.00 | 0.00 | 82 | 1019.0 |
| 20260831131831 | 24 | 150 | 3.2 | 9.7 | 0.00 | 0.00 | 0.00 | 82 | 1019.0 |
| 20260831131749 | 24 | 150 | 3.2 | 9.7 | 0.00 | 0.00 | 0.00 | 82 | 1019.0 |
| 20260831131703 | 24 | 151 | 4.8 | 9.7 | 0.00 | 0.00 | 0.00 | 82 | 1019.0 |
| 20260831131541 | 24 | 148 | 8.0 | 9.7 | 0.00 | 0.00 | 0.00 | 82 | 1019.0 |
| 20260831131500 | 24 | 154 | 6.4 | 9.7 | 0.00 | 0.00 | 0.00 | 82 | 1019.0 |
| 20260831131359 | 24 | 154 | 4.8 | 9.7 | 0.00 | 0.00 | 0.00 | 82 | 1019.0 |
| 20260831131235 | 24 | 152 | 6.4 | 9.7 | 0.00 | 0.00 | 0.00 | 82 | 1018.9 |
| 20260831131134 | 24 | 169 | 3.2 | 9.7 | 0.00 | 0.00 | 0.00 | 82 | 1018.9 |
| 20260831131031 | 24 | 171 | 4.8 | 9.7 | 0.00 | 0.00 | 0.00 | 82 | 1018.9 |
| 20260831130928 | 24 | 172 | 3.2 | 9.7 | 0.00 | 0.00 | 0.00 | 82 | 1018.9 |
| 20260831130828 | 24 | 169 | 3.2 | 9.7 | 0.00 | 0.00 | 0.00 | 82 | 1018.9 |
| 20260831130732 | 24 | 168 | 4.8 | 11.3 | 0.00 | 0.00 | 0.00 | 83 | 1018.9 |
| 20260831130631 | 24 | 171 | 4.8 | 11.3 | 0.00 | 0.00 | 0.00 | 83 | 1018.9 |
| 20260831130529 | 24 | 171 | 6.4 | 11.3 | 0.00 | 0.00 | 0.00 | 83 | 1018.9 |
| 20260831130427 | 24 | 172 | 3.2 | 11.3 | 0.00 | 0.00 | 0.00 | 83 | 1018.9 |
| 20260831130325 | 23 | 174 | 4.8 | 11.3 | 0.00 | 0.00 | 0.00 | 83 | 1018.9 |
| 20260831130244 | 23 | 175 | 3.2 | 11.3 | 0.00 | 0.00 | 0.00 | 83 | 1018.9 |
| 20260831130216 | 23 | 174 | 4.8 | 11.3 | 0.00 | 0.00 | 0.00 | 83 | 1018.9 |
| 20260831130036 | 23 | 175 | 4.8 | 11.3 | 0.00 | 0.00 | 0.00 | 83 | 1018.9 |
| 20260831125935 | 23 | 174 | 8.0 | 11.3 | 0.00 | 0.00 | 0.00 | 83 | 1018.9 |
| 20260831125834 | 23 | 176 | 6.4 | 11.3 | 0.00 | 0.00 | 0.00 | 83 | 1018.9 |
| 20260831125733 | 23 | 179 | 3.2 | 8.0 | 0.00 | 0.00 | 0.00 | 83 | 1018.7 |
| 20260831125633 | 23 | 178 | 3.2 | 8.0 | 0.00 | 0.00 | 0.00 | 83 | 1018.7 |
| 20260831125532 | 23 | 179 | 6.4 | 8.0 | 0.00 | 0.00 | 0.00 | 83 | 1018.7 |
| 20260831125451 | 23 | 182 | 4.8 | 8.0 | 0.00 | 0.00 | 0.00 | 83 | 1018.7 |
| 20260831125334 | 23 | 182 | 4.8 | 8.0 | 0.00 | 0.00 | 0.00 | 83 | 1018.7 |
| 20260831125233 | 23 | 182 | 4.8 | 8.0 | 0.00 | 0.00 | 0.00 | 83 | 1018.7 |
| 20260831125132 | 23 | 182 | 3.2 | 8.0 | 0.00 | 0.00 | 0.00 | 83 | 1018.7 |
| 20260831125032 | 23 | 181 | 3.2 | 8.0 | 0.00 | 0.00 | 0.00 | 83 | 1018.7 |
| 20260831124950 | 23 | 184 | 4.8 | 8.0 | 0.00 | 0.00 | 0.00 | 84 | 1018.7 |
| 20260831124848 | 23 | 182 | 4.8 | 8.0 | 0.00 | 0.00 | 0.00 | 84 | 1018.7 |
| 20260831124745 | 23 | 182 | 3.2 | 8.0 | 0.00 | 0.00 | 0.00 | 84 | 1018.7 |
| 20260831124715 | 23 | 185 | 3.2 | 9.7 | 0.00 | 0.00 | 0.00 | 84 | 1018.7 |
| 20260831124530 | 23 | 185 | 3.2 | 9.7 | 0.00 | 0.00 | 0.00 | 84 | 1018.7 |
| 20260831124433 | 23 | 184 | 3.2 | 9.7 | 0.00 | 0.00 | 0.00 | 84 | 1018.7 |
| 20260831124332 | 23 | 179 | 4.8 | 9.7 | 0.00 | 0.00 | 0.00 | 84 | 1018.7 |
| 20260831124231 | 23 | 176 | 1.6 | 9.7 | 0.00 | 0.00 | 0.00 | 84 | 1018.7 |
| 20260831124131 | 23 | 179 | 3.2 | 9.7 | 0.00 | 0.00 | 0.00 | 84 | 1018.7 |
| 20260831124030 | 23 | 181 | 3.2 | 9.7 | 0.00 | 0.00 | 0.00 | 84 | 1018.7 |
| 20260831123953 | 23 | 179 | 4.8 | 9.7 | 0.00 | 0.00 | 0.00 | 84 | 1018.7 |
| 20260831123830 | 23 | 179 | 6.4 | 9.7 | 0.00 | 0.00 | 0.00 | 84 | 1018.7 |
| 20260831123733 | 23 | 181 | 6.4 | 9.7 | 0.00 | 0.00 | 0.00 | 84 | 1018.7 |
| 20260831123653 | 23 | 175 | 8.0 | 9.7 | 0.00 | 0.00 | 0.00 | 84 | 1018.7 |
| 20260831123531 | 23 | 191 | 4.8 | 9.7 | 0.00 | 0.00 | 0.00 | 84 | 1018.7 |
| 20260831123430 | 23 | 203 | 3.2 | 8.0 | 0.00 | 0.00 | 0.00 | 84 | 1018.7 |
| 20260831123329 | 23 | 202 | 3.2 | 8.0 | 0.00 | 0.00 | 0.00 | 84 | 1018.7 |
| 20260831123238 | 23 | 200 | 1.6 | 8.0 | 0.00 | 0.00 | 0.00 | 84 | 1018.7 |
| 20260831123149 | 23 | 203 | 1.6 | 8.0 | 0.00 | 0.00 | 0.00 | 84 | 1018.7 |
| 20260831123026 | 23 | 202 | 1.6 | 8.0 | 0.00 | 0.00 | 0.00 | 83 | 1018.7 |
| 20260831122929 | 23 | 203 | 3.2 | 8.0 | 0.00 | 0.00 | 0.00 | 83 | 1018.7 |
| 20260831122827 | 23 | 202 | 4.8 | 9.7 | 0.00 | 0.00 | 0.00 | 83 | 1018.7 |
| 20260831122725 | 23 | 202 | 1.6 | 9.7 | 0.00 | 0.00 | 0.00 | 83 | 1018.5 |
| 20260831122644 | 23 | 202 | 3.2 | 9.7 | 0.00 | 0.00 | 0.00 | 83 | 1018.5 |
| 20260831122602 | 23 | 203 | 4.8 | 9.7 | 0.00 | 0.00 | 0.00 | 83 | 1018.5 |
| 20260831122501 | 23 | 203 | 4.8 | 12.9 | 0.00 | 0.00 | 0.00 | 83 | 1018.5 |
| 20260831122337 | 23 | 200 | 3.2 | 12.9 | 0.00 | 0.00 | 0.00 | 83 | 1018.5 |
| 20260831122235 | 23 | 200 | 3.2 | 12.9 | 0.00 | 0.00 | 0.00 | 83 | 1018.5 |
| 20260831122138 | 23 | 199 | 3.2 | 12.9 | 0.00 | 0.00 | 0.00 | 83 | 1018.5 |
| 20260831122037 | 23 | 196 | 4.8 | 12.9 | 0.00 | 0.00 | 0.00 | 83 | 1018.5 |
| 20260831121956 | 23 | 200 | 4.8 | 12.9 | 0.00 | 0.00 | 0.00 | 83 | 1018.5 |
| 20260831121857 | 23 | 205 | 3.2 | 12.9 | 0.00 | 0.00 | 0.00 | 83 | 1018.5 |
| 20260831121735 | 23 | 203 | 4.8 | 12.9 | 0.00 | 0.00 | 0.00 | 83 | 1018.5 |
| 20260831121705 | 23 | 205 | 6.4 | 12.9 | 0.00 | 0.00 | 0.00 | 83 | 1018.5 |
| 20260831121602 | 23 | 205 | 8.0 | 12.9 | 0.00 | 0.00 | 0.00 | 83 | 1018.5 |
| 20260831121440 | 23 | 215 | 4.8 | 11.3 | 0.00 | 0.00 | 0.00 | 83 | 1018.5 |
| 20260831121340 | 23 | 189 | 3.2 | 9.7 | 0.00 | 0.00 | 0.00 | 83 | 1018.5 |
| 20260831121243 | 23 | 189 | 4.8 | 9.7 | 0.00 | 0.00 | 0.00 | 83 | 1018.1 |
| 20260831121141 | 23 | 189 | 4.8 | 9.7 | 0.00 | 0.00 | 0.00 | 83 | 1018.1 |
| 20260831121039 | 23 | 179 | 3.2 | 9.7 | 0.00 | 0.00 | 0.00 | 83 | 1018.1 |
| 20260831120938 | 23 | 179 | 3.2 | 9.7 | 0.00 | 0.00 | 0.00 | 83 | 1018.1 |
| 20260831120836 | 23 | 176 | 3.2 | 9.7 | 0.00 | 0.00 | 0.00 | 83 | 1018.1 |
| 20260831120736 | 23 | 179 | 3.2 | 9.7 | 0.00 | 0.00 | 0.00 | 83 | 1018.1 |
| 20260831120640 | 23 | 179 | 4.8 | 9.7 | 0.00 | 0.00 | 0.00 | 83 | 1018.1 |
| 20260831120539 | 23 | 176 | 4.8 | 9.7 | 0.00 | 0.00 | 0.00 | 83 | 1018.1 |
| 20260831120436 | 23 | 175 | 3.2 | 9.7 | 0.00 | 0.00 | 0.00 | 83 | 1018.1 |
| 20260831120333 | 23 | 175 | 3.2 | 9.7 | 0.00 | 0.00 | 0.00 | 83 | 1018.1 |
| 20260831120231 | 23 | 174 | 3.2 | 9.7 | 0.00 | 0.00 | 0.00 | 83 | 1018.1 |
| 20260831120201 | 23 | 172 | 3.2 | 9.7 | 0.00 | 0.00 | 0.00 | 83 | 1018.1 |
| 20260831120038 | 23 | 172 | 4.8 | 9.7 | 0.00 | 0.00 | 0.00 | 83 | 1018.1 |
| 20260831115940 | 23 | 172 | 3.2 | 9.7 | 0.00 | 0.00 | 0.00 | 83 | 1018.1 |
| 20260831115839 | 23 | 168 | 3.2 | 9.7 | 0.00 | 0.00 | 0.00 | 83 | 1018.1 |
| 20260831115737 | 23 | 174 | 4.8 | 9.7 | 0.00 | 0.00 | 0.00 | 83 | 1018.0 |
| 20260831115654 | 23 | 174 | 3.2 | 9.7 | 0.00 | 0.00 | 0.00 | 83 | 1018.0 |
| 20260831115532 | 23 | 175 | 4.8 | 9.7 | 0.00 | 0.00 | 0.00 | 83 | 1018.0 |
| 20260831115432 | 23 | 174 | 4.8 | 9.7 | 0.00 | 0.00 | 0.00 | 83 | 1018.0 |
| 20260831115332 | 23 | 171 | 6.4 | 9.7 | 0.00 | 0.00 | 0.00 | 83 | 1018.0 |
| 20260831115236 | 23 | 176 | 4.8 | 8.0 | 0.00 | 0.00 | 0.00 | 83 | 1018.0 |
| 20260831115134 | 23 | 176 | 3.2 | 9.7 | 0.00 | 0.00 | 0.00 | 83 | 1018.0 |
| 20260831115033 | 23 | 178 | 3.2 | 9.7 | 0.00 | 0.00 | 0.00 | 83 | 1018.0 |
| 20260831114932 | 23 | 176 | 3.2 | 9.7 | 0.00 | 0.00 | 0.00 | 83 | 1018.0 |
| 20260831114829 | 23 | 176 | 3.2 | 9.7 | 0.00 | 0.00 | 0.00 | 83 | 1018.0 |
| 20260831114740 | 23 | 176 | 6.4 | 9.7 | 0.00 | 0.00 | 0.00 | 83 | 1018.0 |
| 20260831114649 | 23 | 176 | 4.8 | 9.7 | 0.00 | 0.00 | 0.00 | 83 | 1018.0 |
| 20260831114528 | 23 | 179 | 3.2 | 9.7 | 0.00 | 0.00 | 0.00 | 83 | 1018.0 |
| 20260831114450 | 23 | 178 | 3.2 | 9.7 | 0.00 | 0.00 | 0.00 | 83 | 1018.0 |
| 20260831114327 | 23 | 179 | 4.8 | 9.7 | 0.00 | 0.00 | 0.00 | 83 | 1018.0 |
| 20260831114244 | 23 | 184 | 4.8 | 9.7 | 0.00 | 0.00 | 0.00 | 83 | 1017.8 |
| 20260831114143 | 23 | 185 | 3.2 | 9.7 | 0.00 | 0.00 | 0.00 | 82 | 1017.8 |
| 20260831114042 | 23 | 185 | 3.2 | 9.7 | 0.00 | 0.00 | 0.00 | 82 | 1017.8 |
| 20260831113942 | 23 | 186 | 4.8 | 11.3 | 0.00 | 0.00 | 0.00 | 82 | 1017.8 |
| 20260831113840 | 23 | 185 | 3.2 | 11.3 | 0.00 | 0.00 | 0.00 | 82 | 1017.8 |
| 20260831113744 | 23 | 185 | 4.8 | 11.3 | 0.00 | 0.00 | 0.00 | 82 | 1017.8 |
| 20260831113702 | 23 | 182 | 6.4 | 11.3 | 0.00 | 0.00 | 0.00 | 82 | 1017.8 |
| 20260831113539 | 23 | 184 | 6.4 | 11.3 | 0.00 | 0.00 | 0.00 | 82 | 1017.8 |
| 20260831113438 | 23 | 188 | 6.4 | 11.3 | 0.00 | 0.00 | 0.00 | 82 | 1017.8 |
| 20260831113337 | 23 | 189 | 3.2 | 11.3 | 0.00 | 0.00 | 0.00 | 82 | 1017.8 |
| 20260831113256 | 23 | 188 | 3.2 | 11.3 | 0.00 | 0.00 | 0.00 | 82 | 1017.8 |
| 20260831113227 | 23 | 191 | 4.8 | 12.9 | 0.00 | 0.00 | 0.00 | 82 | 1017.8 |
| 20260831113103 | 23 | 202 | 6.4 | 14.5 | 0.00 | 0.00 | 0.00 | 82 | 1017.8 |
| 20260831112925 | 23 | 205 | 4.8 | 14.5 | 0.00 | 0.00 | 0.00 | 82 | 1017.8 |
| 20260831112843 | 23 | 203 | 4.8 | 14.5 | 0.00 | 0.00 | 0.00 | 82 | 1017.8 |
| 20260831112741 | 23 | 200 | 6.4 | 14.5 | 0.00 | 0.00 | 0.00 | 82 | 1017.8 |
| 20260831112639 | 23 | 195 | 4.8 | 14.5 | 0.00 | 0.00 | 0.00 | 82 | 1017.8 |
| 20260831112537 | 23 | 191 | 3.2 | 14.5 | 0.00 | 0.00 | 0.00 | 82 | 1017.8 |
| 20260831112439 | 23 | 203 | 4.8 | 14.5 | 0.00 | 0.00 | 0.00 | 82 | 1017.8 |
| 20260831112337 | 23 | 191 | 6.4 | 14.5 | 0.00 | 0.00 | 0.00 | 82 | 1017.8 |
| 20260831112255 | 23 | 196 | 8.0 | 14.5 | 0.00 | 0.00 | 0.00 | 82 | 1017.8 |
| 20260831112137 | 23 | 202 | 6.4 | 12.9 | 0.00 | 0.00 | 0.00 | 82 | 1017.8 |
| 20260831112037 | 23 | 195 | 6.4 | 12.9 | 0.00 | 0.00 | 0.00 | 82 | 1017.8 |
| 20260831111940 | 23 | 196 | 6.4 | 12.9 | 0.00 | 0.00 | 0.00 | 82 | 1017.8 |
| 20260831111901 | 23 | 199 | 6.4 | 12.9 | 0.00 | 0.00 | 0.00 | 82 | 1017.8 |
| 20260831111738 | 23 | 205 | 6.4 | 17.7 | 0.00 | 0.00 | 0.00 | 82 | 1017.8 |
| 20260831111709 | 23 | 203 | 8.0 | 17.7 | 0.00 | 0.00 | 0.00 | 82 | 1017.8 |
| 20260831111526 | 23 | 195 | 8.0 | 17.7 | 0.00 | 0.00 | 0.00 | 82 | 1017.8 |
| 20260831111428 | 23 | 184 | 6.4 | 17.7 | 0.00 | 0.00 | 0.00 | 82 | 1017.8 |
| 20260831111328 | 23 | 186 | 4.8 | 17.7 | 0.00 | 0.00 | 0.00 | 82 | 1017.8 |
| 20260831111224 | 23 | 185 | 4.8 | 17.7 | 0.00 | 0.00 | 0.00 | 82 | 1017.6 |
| 20260831111143 | 23 | 188 | 4.8 | 17.7 | 0.00 | 0.00 | 0.00 | 82 | 1017.6 |
| 20260831111041 | 23 | 189 | 4.8 | 17.7 | 0.00 | 0.00 | 0.00 | 82 | 1017.6 |
| 20260831110940 | 23 | 185 | 4.8 | 17.7 | 0.00 | 0.00 | 0.00 | 82 | 1017.6 |
| 20260831110838 | 23 | 174 | 4.8 | 9.7 | 0.00 | 0.00 | 0.00 | 82 | 1017.6 |
| 20260831110736 | 23 | 169 | 4.8 | 9.7 | 0.00 | 0.00 | 0.00 | 82 | 1017.6 |
| 20260831110639 | 23 | 171 | 4.8 | 9.7 | 0.00 | 0.00 | 0.00 | 82 | 1017.6 |
| 20260831110558 | 23 | 174 | 4.8 | 9.7 | 0.00 | 0.00 | 0.00 | 82 | 1017.6 |
| 20260831110435 | 23 | 174 | 3.2 | 9.7 | 0.00 | 0.00 | 0.00 | 82 | 1017.6 |
| 20260831110333 | 23 | 171 | 4.8 | 9.7 | 0.00 | 0.00 | 0.00 | 81 | 1017.6 |
| 20260831110232 | 23 | 169 | 4.8 | 11.3 | 0.00 | 0.00 | 0.00 | 81 | 1017.6 |
| 20260831110204 | 23 | 168 | 4.8 | 11.3 | 0.00 | 0.00 | 0.00 | 81 | 1017.6 |
| 20260831110040 | 23 | 167 | 4.8 | 11.3 | 0.00 | 0.00 | 0.00 | 81 | 1017.6 |
| 20260831105944 | 23 | 165 | 6.4 | 11.3 | 0.00 | 0.00 | 0.00 | 81 | 1017.6 |
| 20260831105842 | 23 | 168 | 6.4 | 11.3 | 0.00 | 0.00 | 0.00 | 81 | 1017.6 |
| 20260831105742 | 23 | 169 | 3.2 | 11.3 | 0.00 | 0.00 | 0.00 | 81 | 1017.3 |
| 20260831105641 | 23 | 171 | 3.2 | 11.3 | 0.00 | 0.00 | 0.00 | 81 | 1017.3 |
| 20260831105559 | 23 | 168 | 4.8 | 11.3 | 0.00 | 0.00 | 0.00 | 81 | 1017.3 |
| 20260831105437 | 23 | 167 | 4.8 | 11.3 | 0.00 | 0.00 | 0.00 | 81 | 1017.3 |
| 20260831105336 | 23 | 167 | 8.0 | 11.3 | 0.00 | 0.00 | 0.00 | 81 | 1017.3 |
| 20260831105240 | 23 | 172 | 6.4 | 9.7 | 0.00 | 0.00 | 0.00 | 81 | 1017.3 |
| 20260831105200 | 23 | 169 | 4.8 | 9.7 | 0.00 | 0.00 | 0.00 | 81 | 1017.3 |
| 20260831105035 | 23 | 169 | 3.2 | 9.7 | 0.00 | 0.00 | 0.00 | 81 | 1017.3 |
| 20260831104956 | 23 | 174 | 3.2 | 9.7 | 0.00 | 0.00 | 0.00 | 81 | 1017.3 |
| 20260831104833 | 23 | 172 | 4.8 | 9.7 | 0.00 | 0.00 | 0.00 | 81 | 1017.3 |
| 20260831104733 | 23 | 174 | 4.8 | 9.7 | 0.00 | 0.00 | 0.00 | 81 | 1017.3 |
| 20260831104700 | 23 | 175 | 4.8 | 9.7 | 0.00 | 0.00 | 0.00 | 81 | 1017.3 |
| 20260831104540 | 23 | 175 | 4.8 | 9.7 | 0.00 | 0.00 | 0.00 | 81 | 1017.3 |
| 20260831104436 | 23 | 175 | 4.8 | 9.7 | 0.00 | 0.00 | 0.00 | 81 | 1017.3 |
| 20260831104355 | 23 | 179 | 4.8 | 9.7 | 0.00 | 0.00 | 0.00 | 81 | 1017.3 |
| 20260831104238 | 23 | 181 | 4.8 | 9.7 | 0.00 | 0.00 | 0.00 | 81 | 1017.1 |
| 20260831104137 | 23 | 184 | 4.8 | 9.7 | 0.00 | 0.00 | 0.00 | 81 | 1017.1 |
| 20260831104036 | 23 | 185 | 3.2 | 12.9 | 0.00 | 0.00 | 0.00 | 81 | 1017.1 |
| 20260831103933 | 23 | 182 | 3.2 | 12.9 | 0.00 | 0.00 | 0.00 | 81 | 1017.1 |
| 20260831103852 | 23 | 186 | 3.2 | 12.9 | 0.00 | 0.00 | 0.00 | 81 | 1017.1 |
| 20260831103730 | 23 | 186 | 3.2 | 12.9 | 0.00 | 0.00 | 0.00 | 81 | 1017.1 |
| 20260831103629 | 23 | 185 | 4.8 | 12.9 | 0.00 | 0.00 | 0.00 | 80 | 1017.1 |
| 20260831103528 | 23 | 185 | 4.8 | 12.9 | 0.00 | 0.00 | 0.00 | 80 | 1017.1 |
| 20260831103450 | 23 | 184 | 4.8 | 12.9 | 0.00 | 0.00 | 0.00 | 80 | 1017.1 |
| 20260831103327 | 23 | 189 | 4.8 | 12.9 | 0.00 | 0.00 | 0.00 | 80 | 1017.1 |
| 20260831103227 | 23 | 189 | 8.0 | 12.9 | 0.00 | 0.00 | 0.00 | 80 | 1017.1 |
| 20260831103157 | 23 | 192 | 4.8 | 17.7 | 0.00 | 0.00 | 0.00 | 80 | 1017.1 |
| 20260831103035 | 23 | 205 | 4.8 | 17.7 | 0.00 | 0.00 | 0.00 | 80 | 1017.1 |
| 20260831102953 | 23 | 192 | 8.0 | 17.7 | 0.00 | 0.00 | 0.00 | 80 | 1017.1 |
| 20260831102830 | 23 | 191 | 6.4 | 17.7 | 0.00 | 0.00 | 0.00 | 80 | 1017.1 |
| 20260831102730 | 23 | 188 | 4.8 | 17.7 | 0.00 | 0.00 | 0.00 | 80 | 1017.0 |
| 20260831102653 | 23 | 196 | 6.4 | 17.7 | 0.00 | 0.00 | 0.00 | 80 | 1017.0 |
| 20260831102531 | 23 | 200 | 8.0 | 17.7 | 0.00 | 0.00 | 0.00 | 80 | 1017.0 |
| 20260831102430 | 23 | 195 | 6.4 | 17.7 | 0.00 | 0.00 | 0.00 | 80 | 1017.0 |
| 20260831102329 | 23 | 185 | 8.0 | 20.9 | 0.00 | 0.00 | 0.00 | 80 | 1017.0 |
| 20260831102229 | 23 | 188 | 9.7 | 20.9 | 0.00 | 0.00 | 0.00 | 80 | 1017.0 |
| 20260831102127 | 23 | 191 | 6.4 | 20.9 | 0.00 | 0.00 | 0.00 | 80 | 1017.0 |
| 20260831102027 | 23 | 178 | 9.7 | 20.9 | 0.00 | 0.00 | 0.00 | 80 | 1017.0 |
| 20260831101931 | 23 | 199 | 11.3 | 20.9 | 0.00 | 0.00 | 0.00 | 80 | 1017.0 |
| 20260831101830 | 23 | 205 | 8.0 | 20.9 | 0.00 | 0.00 | 0.00 | 80 | 1017.0 |
| 20260831101751 | 23 | 200 | 6.4 | 20.9 | 0.00 | 0.00 | 0.00 | 80 | 1017.0 |
| 20260831101720 | 23 | 188 | 9.7 | 20.9 | 0.00 | 0.00 | 0.00 | 80 | 1017.0 |
| 20260831101538 | 23 | 192 | 8.0 | 20.9 | 0.00 | 0.00 | 0.00 | 80 | 1017.0 |
| 20260831101435 | 23 | 202 | 9.7 | 20.9 | 0.00 | 0.00 | 0.00 | 80 | 1017.0 |
| 20260831101335 | 23 | 179 | 9.7 | 16.1 | 0.00 | 0.00 | 0.00 | 80 | 1017.0 |
| 20260831101234 | 23 | 206 | 11.3 | 16.1 | 0.00 | 0.00 | 0.00 | 80 | 1016.9 |
| 20260831101138 | 23 | 178 | 9.7 | 16.1 | 0.00 | 0.00 | 0.00 | 80 | 1016.9 |
| 20260831101036 | 23 | 179 | 9.7 | 16.1 | 0.00 | 0.00 | 0.00 | 80 | 1016.9 |
| 20260831100936 | 23 | 188 | 8.0 | 16.1 | 0.00 | 0.00 | 0.00 | 80 | 1016.9 |
| 20260831100835 | 23 | 186 | 8.0 | 16.1 | 0.00 | 0.00 | 0.00 | 80 | 1016.9 |
| 20260831100734 | 23 | 191 | 4.8 | 12.9 | 0.00 | 0.00 | 0.00 | 80 | 1016.9 |
| 20260831100633 | 23 | 188 | 6.4 | 12.9 | 0.00 | 0.00 | 0.00 | 80 | 1016.9 |
| 20260831100553 | 23 | 182 | 4.8 | 12.9 | 0.00 | 0.00 | 0.00 | 80 | 1016.9 |
| 20260831100434 | 23 | 169 | 8.0 | 12.9 | 0.00 | 0.00 | 0.00 | 80 | 1016.9 |
| 20260831100333 | 23 | 189 | 4.8 | 12.9 | 0.00 | 0.00 | 0.00 | 80 | 1016.9 |
| 20260831100233 | 23 | 175 | 4.8 | 12.9 | 0.00 | 0.00 | 0.00 | 80 | 1016.9 |
| 20260831100204 | 23 | 186 | 4.8 | 12.9 | 0.00 | 0.00 | 0.00 | 80 | 1016.9 |
| 20260831100040 | 23 | 186 | 6.4 | 14.5 | 0.00 | 0.00 | 0.00 | 80 | 1016.9 |
| 20260831095959 | 23 | 196 | 6.4 | 14.5 | 0.00 | 0.00 | 0.00 | 80 | 1016.9 |
| 20260831095837 | 23 | 185 | 8.0 | 14.5 | 0.00 | 0.00 | 0.00 | 80 | 1016.9 |
| 20260831095755 | 23 | 195 | 8.0 | 14.5 | 0.00 | 0.00 | 0.00 | 80 | 1016.9 |
| 20260831095634 | 23 | 193 | 8.0 | 14.5 | 0.00 | 0.00 | 0.00 | 80 | 1016.9 |
| 20260831095557 | 23 | 213 | 6.4 | 14.5 | 0.00 | 0.00 | 0.00 | 80 | 1016.9 |
| 20260831095454 | 23 | 184 | 8.0 | 14.5 | 0.00 | 0.00 | 0.00 | 80 | 1016.9 |
| 20260831095331 | 23 | 196 | 6.4 | 16.1 | 0.00 | 0.00 | 0.00 | 80 | 1016.9 |
| 20260831095230 | 23 | 193 | 6.4 | 16.1 | 0.00 | 0.00 | 0.00 | 80 | 1016.9 |
| 20260831095127 | 23 | 182 | 6.4 | 16.1 | 0.00 | 0.00 | 0.00 | 80 | 1016.9 |
| 20260831095024 | 23 | 189 | 8.0 | 16.1 | 0.00 | 0.00 | 0.00 | 80 | 1016.9 |
| 20260831094943 | 23 | 192 | 6.4 | 16.1 | 0.00 | 0.00 | 0.00 | 80 | 1016.9 |
| 20260831094843 | 23 | 189 | 4.8 | 16.1 | 0.00 | 0.00 | 0.00 | 80 | 1016.9 |
| 20260831094726 | 23 | 178 | 4.8 | 16.1 | 0.00 | 0.00 | 0.00 | 80 | 1016.9 |
| 20260831094657 | 23 | 182 | 8.0 | 16.1 | 0.00 | 0.00 | 0.00 | 80 | 1016.9 |
| 20260831094535 | 23 | 182 | 8.0 | 16.1 | 0.00 | 0.00 | 0.00 | 80 | 1016.9 |
| 20260831094453 | 23 | 191 | 6.4 | 16.1 | 0.00 | 0.00 | 0.00 | 80 | 1016.9 |
| 20260831094330 | 23 | 184 | 8.0 | 11.3 | 0.00 | 0.00 | 0.00 | 80 | 1016.9 |
| 20260831094228 | 23 | 193 | 6.4 | 11.3 | 0.00 | 0.00 | 0.00 | 80 | 1016.7 |
| 20260831094146 | 23 | 199 | 6.4 | 11.3 | 0.00 | 0.00 | 0.00 | 80 | 1016.7 |
| 20260831094104 | 23 | 193 | 4.8 | 11.3 | 0.00 | 0.00 | 0.00 | 80 | 1016.7 |
| 20260831093926 | 23 | 185 | 6.4 | 11.3 | 0.00 | 0.00 | 0.00 | 80 | 1016.7 |
| 20260831093825 | 23 | 188 | 4.8 | 11.3 | 0.00 | 0.00 | 0.00 | 80 | 1016.7 |
| 20260831093744 | 23 | 178 | 6.4 | 11.3 | 0.00 | 0.00 | 0.00 | 80 | 1016.7 |
| 20260831093702 | 23 | 175 | 8.0 | 11.3 | 0.00 | 0.00 | 0.00 | 80 | 1016.7 |
| 20260831093540 | 23 | 164 | 4.8 | 11.3 | 0.00 | 0.00 | 0.00 | 80 | 1016.7 |
| 20260831093440 | 23 | 167 | 4.8 | 11.3 | 0.00 | 0.00 | 0.00 | 80 | 1016.7 |
| 20260831093338 | 23 | 145 | 8.0 | 11.3 | 0.00 | 0.00 | 0.00 | 80 | 1016.7 |
| 20260831093242 | 23 | 144 | 9.7 | 11.3 | 0.00 | 0.00 | 0.00 | 80 | 1016.7 |
| 20260831093212 | 23 | 151 | 4.8 | 12.9 | 0.00 | 0.00 | 0.00 | 80 | 1016.7 |
| 20260831093026 | 23 | 165 | 6.4 | 12.9 | 0.00 | 0.00 | 0.00 | 80 | 1016.7 |
| 20260831092946 | 23 | 151 | 6.4 | 12.9 | 0.00 | 0.00 | 0.00 | 80 | 1016.7 |
| 20260831092844 | 23 | 145 | 8.0 | 12.9 | 0.00 | 0.00 | 0.00 | 80 | 1016.7 |
| 20260831092743 | 23 | 162 | 8.0 | 12.9 | 0.00 | 0.00 | 0.00 | 80 | 1016.7 |
| 20260831092703 | 23 | 169 | 6.4 | 12.9 | 0.00 | 0.00 | 0.00 | 80 | 1016.7 |
| 20260831092542 | 23 | 169 | 6.4 | 12.9 | 0.00 | 0.00 | 0.00 | 80 | 1016.7 |
| 20260831092425 | 23 | 160 | 4.8 | 12.9 | 0.00 | 0.00 | 0.00 | 79 | 1016.7 |
| 20260831092342 | 23 | 158 | 8.0 | 12.9 | 0.00 | 0.00 | 0.00 | 80 | 1016.7 |
| 20260831092240 | 23 | 137 | 8.0 | 12.9 | 0.00 | 0.00 | 0.00 | 80 | 1016.7 |
| 20260831092138 | 23 | 169 | 8.0 | 11.3 | 0.00 | 0.00 | 0.00 | 79 | 1016.7 |
| 20260831092037 | 23 | 169 | 4.8 | 12.9 | 0.00 | 0.00 | 0.00 | 79 | 1016.7 |
| 20260831091934 | 23 | 162 | 6.4 | 12.9 | 0.00 | 0.00 | 0.00 | 79 | 1016.7 |
| 20260831091852 | 23 | 182 | 6.4 | 12.9 | 0.00 | 0.00 | 0.00 | 79 | 1016.7 |
| 20260831091740 | 23 | 144 | 6.4 | 12.9 | 0.00 | 0.00 | 0.00 | 79 | 1016.7 |
| 20260831091650 | 23 | 162 | 6.4 | 12.9 | 0.00 | 0.00 | 0.00 | 79 | 1016.7 |
| 20260831091526 | 23 | 167 | 8.0 | 12.9 | 0.00 | 0.00 | 0.00 | 79 | 1016.7 |
| 20260831091427 | 23 | 171 | 3.2 | 12.9 | 0.00 | 0.00 | 0.00 | 79 | 1016.7 |
| 20260831091345 | 23 | 179 | 6.4 | 16.1 | 0.00 | 0.00 | 0.00 | 79 | 1016.7 |
| 20260831091242 | 23 | 167 | 8.0 | 16.1 | 0.00 | 0.00 | 0.00 | 79 | 1016.6 |
| 20260831091140 | 23 | 169 | 8.0 | 16.1 | 0.00 | 0.00 | 0.00 | 79 | 1016.6 |
| 20260831091038 | 23 | 168 | 6.4 | 16.1 | 0.00 | 0.00 | 0.00 | 79 | 1016.6 |
| 20260831090936 | 23 | 164 | 4.8 | 16.1 | 0.00 | 0.00 | 0.00 | 79 | 1016.6 |
| 20260831090835 | 23 | 168 | 8.0 | 16.1 | 0.00 | 0.00 | 0.00 | 79 | 1016.6 |
| 20260831090738 | 23 | 168 | 6.4 | 16.1 | 0.00 | 0.00 | 0.00 | 79 | 1016.6 |
| 20260831090635 | 23 | 165 | 6.4 | 16.1 | 0.00 | 0.00 | 0.00 | 79 | 1016.6 |
| 20260831090535 | 23 | 169 | 6.4 | 16.1 | 0.00 | 0.00 | 0.00 | 79 | 1016.6 |
| 20260831090435 | 23 | 169 | 6.4 | 12.9 | 0.00 | 0.00 | 0.00 | 79 | 1016.6 |
| 20260831090332 | 23 | 184 | 6.4 | 12.9 | 0.00 | 0.00 | 0.00 | 79 | 1016.6 |
| 20260831090240 | 23 | 182 | 8.0 | 12.9 | 0.00 | 0.00 | 0.00 | 79 | 1016.6 |
| 20260831090149 | 23 | 179 | 9.7 | 12.9 | 0.00 | 0.00 | 0.00 | 79 | 1016.6 |
| 20260831090029 | 23 | 165 | 6.4 | 12.9 | 0.00 | 0.00 | 0.00 | 79 | 1016.6 |
| 20260831085932 | 23 | 185 | 6.4 | 16.1 | 0.00 | 0.00 | 0.00 | 79 | 1016.6 |
| 20260831085830 | 23 | 174 | 8.0 | 16.1 | 0.00 | 0.00 | 0.00 | 79 | 1016.6 |
| 20260831085729 | 23 | 174 | 8.0 | 16.1 | 0.00 | 0.00 | 0.00 | 79 | 1016.5 |
| 20260831085626 | 23 | 181 | 8.0 | 16.1 | 0.00 | 0.00 | 0.00 | 79 | 1016.5 |
| 20260831085544 | 23 | 178 | 6.4 | 16.1 | 0.00 | 0.00 | 0.00 | 79 | 1016.5 |
| 20260831085441 | 23 | 165 | 6.4 | 16.1 | 0.00 | 0.00 | 0.00 | 79 | 1016.5 |
| 20260831085324 | 23 | 175 | 4.8 | 16.1 | 0.00 | 0.00 | 0.00 | 79 | 1016.5 |
| 20260831085244 | 23 | 165 | 4.8 | 16.1 | 0.00 | 0.00 | 0.00 | 79 | 1016.5 |
| 20260831085140 | 23 | 162 | 8.0 | 16.1 | 0.00 | 0.00 | 0.00 | 79 | 1016.5 |
| 20260831085038 | 23 | 161 | 8.0 | 16.1 | 0.00 | 0.00 | 0.00 | 79 | 1016.5 |
| 20260831084957 | 23 | 182 | 6.4 | 14.5 | 0.00 | 0.00 | 0.00 | 79 | 1016.5 |
| 20260831084857 | 23 | 172 | 8.0 | 14.5 | 0.00 | 0.00 | 0.00 | 79 | 1016.5 |
| 20260831084815 | 23 | 169 | 6.4 | 14.5 | 0.00 | 0.00 | 0.00 | 78 | 1016.5 |
| 20260831084723 | 23 | 179 | 4.8 | 14.5 | 0.00 | 0.00 | 0.00 | 79 | 1016.5 |
| 20260831084539 | 23 | 172 | 6.4 | 14.5 | 0.00 | 0.00 | 0.00 | 78 | 1016.5 |
| 20260831084458 | 23 | 181 | 8.0 | 14.5 | 0.00 | 0.00 | 0.00 | 78 | 1016.5 |
| 20260831084339 | 23 | 176 | 6.4 | 12.9 | 0.00 | 0.00 | 0.00 | 78 | 1016.5 |
| 20260831084239 | 23 | 164 | 8.0 | 12.9 | 0.00 | 0.00 | 0.00 | 78 | 1016.5 |
| 20260831084139 | 23 | 178 | 8.0 | 12.9 | 0.00 | 0.00 | 0.00 | 78 | 1016.5 |
| 20260831084037 | 23 | 179 | 8.0 | 12.9 | 0.00 | 0.00 | 0.00 | 78 | 1016.5 |
| 20260831083936 | 23 | 178 | 8.0 | 12.9 | 0.00 | 0.00 | 0.00 | 78 | 1016.5 |
| 20260831083834 | 23 | 176 | 8.0 | 12.9 | 0.00 | 0.00 | 0.00 | 78 | 1016.5 |
| 20260831083733 | 23 | 185 | 6.4 | 12.9 | 0.00 | 0.00 | 0.00 | 78 | 1016.5 |
| 20260831083637 | 23 | 178 | 6.4 | 12.9 | 0.00 | 0.00 | 0.00 | 78 | 1016.5 |
| 20260831083535 | 23 | 174 | 6.4 | 12.9 | 0.00 | 0.00 | 0.00 | 78 | 1016.5 |
| 20260831083432 | 23 | 168 | 4.8 | 14.5 | 0.00 | 0.00 | 0.00 | 79 | 1016.5 |
| 20260831083331 | 23 | 167 | 6.4 | 14.5 | 0.00 | 0.00 | 0.00 | 79 | 1016.5 |
| 20260831083231 | 23 | 158 | 8.0 | 14.5 | 0.00 | 0.00 | 0.00 | 79 | 1016.5 |
| 20260831083201 | 23 | 154 | 8.0 | 14.5 | 0.00 | 0.00 | 0.00 | 79 | 1016.5 |
| 20260831083041 | 23 | 164 | 6.4 | 14.5 | 0.00 | 0.00 | 0.00 | 79 | 1016.5 |
| 20260831082943 | 23 | 161 | 4.8 | 14.5 | 0.00 | 0.00 | 0.00 | 79 | 1016.5 |
| 20260831082902 | 23 | 158 | 6.4 | 14.5 | 0.00 | 0.00 | 0.00 | 79 | 1016.5 |
| 20260831082739 | 23 | 162 | 9.7 | 14.5 | 0.00 | 0.00 | 0.00 | 78 | 1016.4 |
| 20260831082638 | 23 | 179 | 11.3 | 14.5 | 0.00 | 0.00 | 0.00 | 78 | 1016.4 |
| 20260831082537 | 23 | 152 | 9.7 | 14.5 | 0.00 | 0.00 | 0.00 | 78 | 1016.4 |
| 20260831082436 | 23 | 167 | 8.0 | 14.5 | 0.00 | 0.00 | 0.00 | 78 | 1016.4 |
| 20260831082333 | 23 | 161 | 6.4 | 12.9 | 0.00 | 0.00 | 0.00 | 78 | 1016.4 |
| 20260831082236 | 23 | 157 | 6.4 | 12.9 | 0.00 | 0.00 | 0.00 | 78 | 1016.4 |
| 20260831082134 | 23 | 147 | 6.4 | 12.9 | 0.00 | 0.00 | 0.00 | 78 | 1016.4 |
| 20260831082034 | 23 | 171 | 8.0 | 12.9 | 0.00 | 0.00 | 0.00 | 78 | 1016.4 |
| 20260831081933 | 23 | 160 | 8.0 | 12.9 | 0.00 | 0.00 | 0.00 | 78 | 1016.4 |
| 20260831081831 | 23 | 158 | 6.4 | 12.9 | 0.00 | 0.00 | 0.00 | 78 | 1016.4 |
| 20260831081731 | 23 | 161 | 8.0 | 12.9 | 0.00 | 0.00 | 0.00 | 78 | 1016.4 |
| 20260831081700 | 23 | 152 | 8.0 | 12.9 | 0.00 | 0.00 | 0.00 | 78 | 1016.4 |
| 20260831081541 | 23 | 167 | 6.4 | 12.9 | 0.00 | 0.00 | 0.00 | 78 | 1016.4 |
| 20260831081438 | 23 | 165 | 6.4 | 12.9 | 0.00 | 0.00 | 0.00 | 78 | 1016.4 |
| 20260831081336 | 23 | 160 | 6.4 | 12.9 | 0.00 | 0.00 | 0.00 | 78 | 1016.4 |
| 20260831081234 | 23 | 161 | 6.4 | 12.9 | 0.00 | 0.00 | 0.00 | 78 | 1016.4 |
| 20260831081131 | 23 | 162 | 4.8 | 12.9 | 0.00 | 0.00 | 0.00 | 78 | 1016.4 |
| 20260831081030 | 23 | 150 | 6.4 | 12.9 | 0.00 | 0.00 | 0.00 | 78 | 1016.4 |
| 20260831080930 | 23 | 169 | 4.8 | 12.9 | 0.00 | 0.00 | 0.00 | 78 | 1016.4 |
| 20260831080828 | 23 | 164 | 6.4 | 12.9 | 0.00 | 0.00 | 0.00 | 78 | 1016.4 |
| 20260831080733 | 23 | 157 | 8.0 | 12.9 | 0.00 | 0.00 | 0.00 | 78 | 1016.4 |
| 20260831080630 | 23 | 171 | 6.4 | 14.5 | 0.00 | 0.00 | 0.00 | 78 | 1016.4 |
| 20260831080527 | 23 | 175 | 8.0 | 14.5 | 0.00 | 0.00 | 0.00 | 78 | 1016.4 |
| 20260831080446 | 23 | 162 | 9.7 | 14.5 | 0.00 | 0.00 | 0.00 | 78 | 1016.4 |
| 20260831080325 | 23 | 165 | 9.7 | 14.5 | 0.00 | 0.00 | 0.00 | 78 | 1016.4 |
| 20260831080237 | 23 | 157 | 11.3 | 14.5 | 0.00 | 0.00 | 0.00 | 78 | 1016.4 |
| 20260831080146 | 23 | 169 | 6.4 | 14.5 | 0.00 | 0.00 | 0.00 | 78 | 1016.4 |
| 20260831080024 | 23 | 178 | 9.7 | 14.5 | 0.00 | 0.00 | 0.00 | 78 | 1016.4 |
| 20260831075927 | 23 | 179 | 4.8 | 14.5 | 0.00 | 0.00 | 0.00 | 78 | 1016.4 |
| 20260831075826 | 23 | 185 | 8.0 | 14.5 | 0.00 | 0.00 | 0.00 | 77 | 1016.4 |
| 20260831075724 | 23 | 184 | 6.4 | 14.5 | 0.00 | 0.00 | 0.00 | 77 | 1016.5 |
| 20260831075643 | 23 | 143 | 8.0 | 12.9 | 0.00 | 0.00 | 0.00 | 77 | 1016.5 |
| 20260831075543 | 23 | 160 | 6.4 | 11.3 | 0.00 | 0.00 | 0.00 | 77 | 1016.5 |
| 20260831075442 | 23 | 175 | 6.4 | 11.3 | 0.00 | 0.00 | 0.00 | 77 | 1016.5 |
| 20260831075325 | 23 | 169 | 8.0 | 11.3 | 0.00 | 0.00 | 0.00 | 77 | 1016.5 |